<?xml version="1.0" encoding="UTF-8" standalone="no" ?>
<gpx xmlns="http://www.topografix.com/GPX/1/1" xmlns:xsi="http://www.w3.org/2001/XMLSchema-instance" xsi:schemaLocation="http://www.topografix.com/GPX/1/1 http://www.topografix.com/GPX/1/1/gpx.xsd" version="1.1" creator="VisuGPX - https://www.visugpx.com">
  <metadata>
    <name>CAP dans les vouillands</name>
    <desc><![CDATA[tour du jeudi soir]]></desc>
  </metadata>
  <trk>
    <name><![CDATA[CAP dans les vouillands_1]]></name>
    <trkseg>
      <trkpt lat="45.18056" lon="5.70492">
        <ele>236</ele>
        <time>2015-04-09T17:02:15.000Z</time>
      </trkpt>
      <trkpt lat="45.1805" lon="5.70482">
        <ele>248</ele>
        <time>2015-04-09T17:02:36.000Z</time>
      </trkpt>
      <trkpt lat="45.18051" lon="5.70465">
        <ele>256</ele>
        <time>2015-04-09T17:02:40.000Z</time>
      </trkpt>
      <trkpt lat="45.18051" lon="5.70451">
        <ele>263</ele>
        <time>2015-04-09T17:02:44.000Z</time>
      </trkpt>
      <trkpt lat="45.18042" lon="5.70444">
        <ele>261</ele>
        <time>2015-04-09T17:02:48.000Z</time>
      </trkpt>
      <trkpt lat="45.18032" lon="5.70439">
        <ele>263</ele>
        <time>2015-04-09T17:02:52.000Z</time>
      </trkpt>
      <trkpt lat="45.18027" lon="5.70428">
        <ele>261</ele>
        <time>2015-04-09T17:02:56.000Z</time>
      </trkpt>
      <trkpt lat="45.18027" lon="5.70428">
        <ele>261</ele>
        <time>2015-04-09T17:02:58.000Z</time>
      </trkpt>
      <trkpt lat="45.18027" lon="5.70428">
        <ele>261</ele>
        <time>2015-04-09T17:03:00.000Z</time>
      </trkpt>
      <trkpt lat="45.18027" lon="5.70428">
        <ele>261</ele>
        <time>2015-04-09T17:03:02.000Z</time>
      </trkpt>
      <trkpt lat="45.18027" lon="5.70428">
        <ele>261</ele>
        <time>2015-04-09T17:03:04.000Z</time>
      </trkpt>
      <trkpt lat="45.18027" lon="5.70428">
        <ele>261</ele>
        <time>2015-04-09T17:03:06.000Z</time>
      </trkpt>
      <trkpt lat="45.18027" lon="5.70428">
        <ele>261</ele>
        <time>2015-04-09T17:03:08.000Z</time>
      </trkpt>
      <trkpt lat="45.18027" lon="5.70428">
        <ele>261</ele>
        <time>2015-04-09T17:03:10.000Z</time>
      </trkpt>
      <trkpt lat="45.18027" lon="5.70428">
        <ele>261</ele>
        <time>2015-04-09T17:03:12.000Z</time>
      </trkpt>
      <trkpt lat="45.18027" lon="5.70398">
        <ele>257</ele>
        <time>2015-04-09T17:04:04.000Z</time>
      </trkpt>
      <trkpt lat="45.18028" lon="5.70379">
        <ele>256</ele>
        <time>2015-04-09T17:04:06.000Z</time>
      </trkpt>
      <trkpt lat="45.18028" lon="5.70366">
        <ele>261</ele>
        <time>2015-04-09T17:04:08.000Z</time>
      </trkpt>
      <trkpt lat="45.18028" lon="5.70356">
        <ele>261</ele>
        <time>2015-04-09T17:04:10.000Z</time>
      </trkpt>
      <trkpt lat="45.18028" lon="5.70347">
        <ele>261</ele>
        <time>2015-04-09T17:04:12.000Z</time>
      </trkpt>
      <trkpt lat="45.18029" lon="5.70331">
        <ele>262</ele>
        <time>2015-04-09T17:04:14.000Z</time>
      </trkpt>
      <trkpt lat="45.18029" lon="5.70316">
        <ele>264</ele>
        <time>2015-04-09T17:04:18.000Z</time>
      </trkpt>
      <trkpt lat="45.1803" lon="5.703">
        <ele>266</ele>
        <time>2015-04-09T17:04:22.000Z</time>
      </trkpt>
      <trkpt lat="45.1803" lon="5.70285">
        <ele>267</ele>
        <time>2015-04-09T17:04:26.000Z</time>
      </trkpt>
      <trkpt lat="45.18029" lon="5.70272">
        <ele>270</ele>
        <time>2015-04-09T17:04:30.000Z</time>
      </trkpt>
      <trkpt lat="45.18028" lon="5.70258">
        <ele>272</ele>
        <time>2015-04-09T17:04:34.000Z</time>
      </trkpt>
      <trkpt lat="45.18027" lon="5.70243">
        <ele>271</ele>
        <time>2015-04-09T17:04:38.000Z</time>
      </trkpt>
      <trkpt lat="45.18026" lon="5.70226">
        <ele>267</ele>
        <time>2015-04-09T17:04:42.000Z</time>
      </trkpt>
      <trkpt lat="45.18026" lon="5.70226">
        <ele>267</ele>
        <time>2015-04-09T17:04:46.000Z</time>
      </trkpt>
      <trkpt lat="45.18026" lon="5.70226">
        <ele>267</ele>
        <time>2015-04-09T17:04:48.000Z</time>
      </trkpt>
      <trkpt lat="45.18026" lon="5.70226">
        <ele>267</ele>
        <time>2015-04-09T17:04:50.000Z</time>
      </trkpt>
      <trkpt lat="45.18026" lon="5.70226">
        <ele>267</ele>
        <time>2015-04-09T17:04:52.000Z</time>
      </trkpt>
      <trkpt lat="45.18023" lon="5.70209">
        <ele>272</ele>
        <time>2015-04-09T17:04:56.000Z</time>
      </trkpt>
      <trkpt lat="45.18024" lon="5.70192">
        <ele>274</ele>
        <time>2015-04-09T17:05:00.000Z</time>
      </trkpt>
      <trkpt lat="45.18024" lon="5.70176">
        <ele>274</ele>
        <time>2015-04-09T17:05:04.000Z</time>
      </trkpt>
      <trkpt lat="45.18023" lon="5.70161">
        <ele>275</ele>
        <time>2015-04-09T17:05:08.000Z</time>
      </trkpt>
      <trkpt lat="45.18023" lon="5.70145">
        <ele>276</ele>
        <time>2015-04-09T17:05:12.000Z</time>
      </trkpt>
      <trkpt lat="45.18024" lon="5.70128">
        <ele>278</ele>
        <time>2015-04-09T17:05:16.000Z</time>
      </trkpt>
      <trkpt lat="45.18024" lon="5.70113">
        <ele>278</ele>
        <time>2015-04-09T17:05:20.000Z</time>
      </trkpt>
      <trkpt lat="45.18024" lon="5.70113">
        <ele>278</ele>
        <time>2015-04-09T17:05:23.000Z</time>
      </trkpt>
      <trkpt lat="45.18024" lon="5.70113">
        <ele>278</ele>
        <time>2015-04-09T17:05:24.000Z</time>
      </trkpt>
      <trkpt lat="45.18024" lon="5.70113">
        <ele>278</ele>
        <time>2015-04-09T17:05:26.000Z</time>
      </trkpt>
      <trkpt lat="45.18024" lon="5.70113">
        <ele>278</ele>
        <time>2015-04-09T17:05:28.000Z</time>
      </trkpt>
      <trkpt lat="45.18024" lon="5.70113">
        <ele>278</ele>
        <time>2015-04-09T17:05:30.000Z</time>
      </trkpt>
      <trkpt lat="45.18024" lon="5.70113">
        <ele>278</ele>
        <time>2015-04-09T17:05:32.000Z</time>
      </trkpt>
      <trkpt lat="45.18023" lon="5.70055">
        <ele>274</ele>
        <time>2015-04-09T17:05:34.000Z</time>
      </trkpt>
      <trkpt lat="45.18023" lon="5.70036">
        <ele>275</ele>
        <time>2015-04-09T17:05:38.000Z</time>
      </trkpt>
      <trkpt lat="45.18023" lon="5.7002">
        <ele>276</ele>
        <time>2015-04-09T17:05:42.000Z</time>
      </trkpt>
      <trkpt lat="45.18022" lon="5.70005">
        <ele>275</ele>
        <time>2015-04-09T17:05:46.000Z</time>
      </trkpt>
      <trkpt lat="45.18022" lon="5.69987">
        <ele>273</ele>
        <time>2015-04-09T17:05:50.000Z</time>
      </trkpt>
      <trkpt lat="45.18022" lon="5.69987">
        <ele>273</ele>
        <time>2015-04-09T17:05:52.000Z</time>
      </trkpt>
      <trkpt lat="45.18022" lon="5.69987">
        <ele>273</ele>
        <time>2015-04-09T17:05:54.000Z</time>
      </trkpt>
      <trkpt lat="45.18022" lon="5.69987">
        <ele>273</ele>
        <time>2015-04-09T17:05:56.000Z</time>
      </trkpt>
      <trkpt lat="45.18022" lon="5.69987">
        <ele>273</ele>
        <time>2015-04-09T17:05:58.000Z</time>
      </trkpt>
      <trkpt lat="45.18022" lon="5.69987">
        <ele>273</ele>
        <time>2015-04-09T17:06:00.000Z</time>
      </trkpt>
      <trkpt lat="45.18022" lon="5.69987">
        <ele>273</ele>
        <time>2015-04-09T17:06:02.000Z</time>
      </trkpt>
      <trkpt lat="45.18022" lon="5.69987">
        <ele>273</ele>
        <time>2015-04-09T17:06:04.000Z</time>
      </trkpt>
      <trkpt lat="45.18022" lon="5.69987">
        <ele>273</ele>
        <time>2015-04-09T17:06:12.000Z</time>
      </trkpt>
      <trkpt lat="45.18022" lon="5.69987">
        <ele>273</ele>
        <time>2015-04-09T17:06:14.000Z</time>
      </trkpt>
      <trkpt lat="45.18023" lon="5.69933">
        <ele>277</ele>
        <time>2015-04-09T17:06:18.000Z</time>
      </trkpt>
      <trkpt lat="45.18025" lon="5.69902">
        <ele>276</ele>
        <time>2015-04-09T17:06:20.000Z</time>
      </trkpt>
      <trkpt lat="45.18026" lon="5.69882">
        <ele>276</ele>
        <time>2015-04-09T17:06:22.000Z</time>
      </trkpt>
      <trkpt lat="45.18027" lon="5.69868">
        <ele>272</ele>
        <time>2015-04-09T17:06:24.000Z</time>
      </trkpt>
      <trkpt lat="45.18027" lon="5.69868">
        <ele>272</ele>
        <time>2015-04-09T17:06:26.000Z</time>
      </trkpt>
      <trkpt lat="45.18027" lon="5.69868">
        <ele>272</ele>
        <time>2015-04-09T17:06:28.000Z</time>
      </trkpt>
      <trkpt lat="45.18031" lon="5.69842">
        <ele>270</ele>
        <time>2015-04-09T17:06:34.000Z</time>
      </trkpt>
      <trkpt lat="45.18033" lon="5.69824">
        <ele>269</ele>
        <time>2015-04-09T17:06:36.000Z</time>
      </trkpt>
      <trkpt lat="45.18033" lon="5.69824">
        <ele>269</ele>
        <time>2015-04-09T17:06:38.000Z</time>
      </trkpt>
      <trkpt lat="45.18033" lon="5.69824">
        <ele>269</ele>
        <time>2015-04-09T17:06:40.000Z</time>
      </trkpt>
      <trkpt lat="45.18033" lon="5.69824">
        <ele>269</ele>
        <time>2015-04-09T17:06:42.000Z</time>
      </trkpt>
      <trkpt lat="45.18033" lon="5.69824">
        <ele>269</ele>
        <time>2015-04-09T17:06:44.000Z</time>
      </trkpt>
      <trkpt lat="45.18033" lon="5.69824">
        <ele>269</ele>
        <time>2015-04-09T17:06:46.000Z</time>
      </trkpt>
      <trkpt lat="45.1804" lon="5.69792">
        <ele>284</ele>
        <time>2015-04-09T17:06:52.000Z</time>
      </trkpt>
      <trkpt lat="45.18045" lon="5.69772">
        <ele>282</ele>
        <time>2015-04-09T17:06:55.000Z</time>
      </trkpt>
      <trkpt lat="45.18049" lon="5.69758">
        <ele>281</ele>
        <time>2015-04-09T17:06:56.000Z</time>
      </trkpt>
      <trkpt lat="45.18053" lon="5.69746">
        <ele>277</ele>
        <time>2015-04-09T17:06:58.000Z</time>
      </trkpt>
      <trkpt lat="45.18056" lon="5.69736">
        <ele>277</ele>
        <time>2015-04-09T17:07:00.000Z</time>
      </trkpt>
      <trkpt lat="45.18062" lon="5.69718">
        <ele>277</ele>
        <time>2015-04-09T17:07:02.000Z</time>
      </trkpt>
      <trkpt lat="45.18069" lon="5.69707">
        <ele>275</ele>
        <time>2015-04-09T17:07:06.000Z</time>
      </trkpt>
      <trkpt lat="45.18075" lon="5.69693">
        <ele>278</ele>
        <time>2015-04-09T17:07:10.000Z</time>
      </trkpt>
      <trkpt lat="45.18079" lon="5.69677">
        <ele>277</ele>
        <time>2015-04-09T17:07:14.000Z</time>
      </trkpt>
      <trkpt lat="45.18081" lon="5.69659">
        <ele>275</ele>
        <time>2015-04-09T17:07:18.000Z</time>
      </trkpt>
      <trkpt lat="45.18081" lon="5.69659">
        <ele>275</ele>
        <time>2015-04-09T17:07:20.000Z</time>
      </trkpt>
      <trkpt lat="45.18081" lon="5.69659">
        <ele>275</ele>
        <time>2015-04-09T17:07:22.000Z</time>
      </trkpt>
      <trkpt lat="45.18089" lon="5.69622">
        <ele>273</ele>
        <time>2015-04-09T17:07:28.000Z</time>
      </trkpt>
      <trkpt lat="45.18089" lon="5.69622">
        <ele>273</ele>
        <time>2015-04-09T17:07:30.000Z</time>
      </trkpt>
      <trkpt lat="45.18089" lon="5.69622">
        <ele>273</ele>
        <time>2015-04-09T17:07:32.000Z</time>
      </trkpt>
      <trkpt lat="45.18095" lon="5.696">
        <ele>271</ele>
        <time>2015-04-09T17:07:34.000Z</time>
      </trkpt>
      <trkpt lat="45.18098" lon="5.69585">
        <ele>274</ele>
        <time>2015-04-09T17:07:38.000Z</time>
      </trkpt>
      <trkpt lat="45.18098" lon="5.69585">
        <ele>274</ele>
        <time>2015-04-09T17:07:40.000Z</time>
      </trkpt>
      <trkpt lat="45.18098" lon="5.69585">
        <ele>274</ele>
        <time>2015-04-09T17:07:42.000Z</time>
      </trkpt>
      <trkpt lat="45.18098" lon="5.69585">
        <ele>274</ele>
        <time>2015-04-09T17:07:44.000Z</time>
      </trkpt>
      <trkpt lat="45.18104" lon="5.69547">
        <ele>268</ele>
        <time>2015-04-09T17:07:48.000Z</time>
      </trkpt>
      <trkpt lat="45.18105" lon="5.69528">
        <ele>271</ele>
        <time>2015-04-09T17:07:52.000Z</time>
      </trkpt>
      <trkpt lat="45.18106" lon="5.69512">
        <ele>274</ele>
        <time>2015-04-09T17:07:56.000Z</time>
      </trkpt>
      <trkpt lat="45.18106" lon="5.69512">
        <ele>274</ele>
        <time>2015-04-09T17:07:58.000Z</time>
      </trkpt>
      <trkpt lat="45.18106" lon="5.69512">
        <ele>274</ele>
        <time>2015-04-09T17:08:00.000Z</time>
      </trkpt>
      <trkpt lat="45.18106" lon="5.69512">
        <ele>274</ele>
        <time>2015-04-09T17:08:02.000Z</time>
      </trkpt>
      <trkpt lat="45.18106" lon="5.69512">
        <ele>274</ele>
        <time>2015-04-09T17:08:04.000Z</time>
      </trkpt>
      <trkpt lat="45.18106" lon="5.69512">
        <ele>274</ele>
        <time>2015-04-09T17:08:06.000Z</time>
      </trkpt>
      <trkpt lat="45.18106" lon="5.69512">
        <ele>274</ele>
        <time>2015-04-09T17:08:08.000Z</time>
      </trkpt>
      <trkpt lat="45.18106" lon="5.69512">
        <ele>274</ele>
        <time>2015-04-09T17:08:10.000Z</time>
      </trkpt>
      <trkpt lat="45.18106" lon="5.69512">
        <ele>274</ele>
        <time>2015-04-09T17:08:12.000Z</time>
      </trkpt>
      <trkpt lat="45.18106" lon="5.69512">
        <ele>274</ele>
        <time>2015-04-09T17:08:14.000Z</time>
      </trkpt>
      <trkpt lat="45.18106" lon="5.69512">
        <ele>274</ele>
        <time>2015-04-09T17:08:16.000Z</time>
      </trkpt>
      <trkpt lat="45.18106" lon="5.69512">
        <ele>274</ele>
        <time>2015-04-09T17:08:18.000Z</time>
      </trkpt>
      <trkpt lat="45.18106" lon="5.69512">
        <ele>274</ele>
        <time>2015-04-09T17:08:20.000Z</time>
      </trkpt>
      <trkpt lat="45.18106" lon="5.69512">
        <ele>274</ele>
        <time>2015-04-09T17:08:22.000Z</time>
      </trkpt>
      <trkpt lat="45.18106" lon="5.69512">
        <ele>274</ele>
        <time>2015-04-09T17:08:24.000Z</time>
      </trkpt>
      <trkpt lat="45.18106" lon="5.69512">
        <ele>274</ele>
        <time>2015-04-09T17:08:26.000Z</time>
      </trkpt>
      <trkpt lat="45.18106" lon="5.69512">
        <ele>274</ele>
        <time>2015-04-09T17:08:28.000Z</time>
      </trkpt>
      <trkpt lat="45.18106" lon="5.69512">
        <ele>274</ele>
        <time>2015-04-09T17:08:30.000Z</time>
      </trkpt>
      <trkpt lat="45.18111" lon="5.69442">
        <ele>269</ele>
        <time>2015-04-09T17:08:32.000Z</time>
      </trkpt>
      <trkpt lat="45.18113" lon="5.69402">
        <ele>268</ele>
        <time>2015-04-09T17:08:34.000Z</time>
      </trkpt>
      <trkpt lat="45.18114" lon="5.69378">
        <ele>268</ele>
        <time>2015-04-09T17:08:36.000Z</time>
      </trkpt>
      <trkpt lat="45.18116" lon="5.69363">
        <ele>269</ele>
        <time>2015-04-09T17:08:38.000Z</time>
      </trkpt>
      <trkpt lat="45.18117" lon="5.69352">
        <ele>269</ele>
        <time>2015-04-09T17:08:40.000Z</time>
      </trkpt>
      <trkpt lat="45.18117" lon="5.69352">
        <ele>269</ele>
        <time>2015-04-09T17:08:42.000Z</time>
      </trkpt>
      <trkpt lat="45.18117" lon="5.69352">
        <ele>269</ele>
        <time>2015-04-09T17:08:44.000Z</time>
      </trkpt>
      <trkpt lat="45.18117" lon="5.69352">
        <ele>269</ele>
        <time>2015-04-09T17:08:46.000Z</time>
      </trkpt>
      <trkpt lat="45.18117" lon="5.69352">
        <ele>269</ele>
        <time>2015-04-09T17:08:48.000Z</time>
      </trkpt>
      <trkpt lat="45.18117" lon="5.69352">
        <ele>269</ele>
        <time>2015-04-09T17:08:50.000Z</time>
      </trkpt>
      <trkpt lat="45.18117" lon="5.69352">
        <ele>269</ele>
        <time>2015-04-09T17:08:53.000Z</time>
      </trkpt>
      <trkpt lat="45.18117" lon="5.69352">
        <ele>269</ele>
        <time>2015-04-09T17:08:54.000Z</time>
      </trkpt>
      <trkpt lat="45.18117" lon="5.69352">
        <ele>269</ele>
        <time>2015-04-09T17:08:56.000Z</time>
      </trkpt>
      <trkpt lat="45.18117" lon="5.69352">
        <ele>269</ele>
        <time>2015-04-09T17:08:58.000Z</time>
      </trkpt>
      <trkpt lat="45.18117" lon="5.69352">
        <ele>269</ele>
        <time>2015-04-09T17:09:00.000Z</time>
      </trkpt>
      <trkpt lat="45.18117" lon="5.69352">
        <ele>269</ele>
        <time>2015-04-09T17:09:02.000Z</time>
      </trkpt>
      <trkpt lat="45.18117" lon="5.69352">
        <ele>269</ele>
        <time>2015-04-09T17:09:04.000Z</time>
      </trkpt>
      <trkpt lat="45.18117" lon="5.69352">
        <ele>269</ele>
        <time>2015-04-09T17:09:06.000Z</time>
      </trkpt>
      <trkpt lat="45.18117" lon="5.69352">
        <ele>269</ele>
        <time>2015-04-09T17:09:08.000Z</time>
      </trkpt>
      <trkpt lat="45.18117" lon="5.69352">
        <ele>269</ele>
        <time>2015-04-09T17:09:10.000Z</time>
      </trkpt>
      <trkpt lat="45.18117" lon="5.69352">
        <ele>269</ele>
        <time>2015-04-09T17:09:12.000Z</time>
      </trkpt>
      <trkpt lat="45.18117" lon="5.69352">
        <ele>269</ele>
        <time>2015-04-09T17:09:14.000Z</time>
      </trkpt>
      <trkpt lat="45.18117" lon="5.69215">
        <ele>263</ele>
        <time>2015-04-09T17:09:16.000Z</time>
      </trkpt>
      <trkpt lat="45.18115" lon="5.692">
        <ele>266</ele>
        <time>2015-04-09T17:09:20.000Z</time>
      </trkpt>
      <trkpt lat="45.18113" lon="5.69184">
        <ele>267</ele>
        <time>2015-04-09T17:09:24.000Z</time>
      </trkpt>
      <trkpt lat="45.18107" lon="5.69169">
        <ele>267</ele>
        <time>2015-04-09T17:09:28.000Z</time>
      </trkpt>
      <trkpt lat="45.18101" lon="5.69155">
        <ele>266</ele>
        <time>2015-04-09T17:09:32.000Z</time>
      </trkpt>
      <trkpt lat="45.18096" lon="5.69141">
        <ele>267</ele>
        <time>2015-04-09T17:09:36.000Z</time>
      </trkpt>
      <trkpt lat="45.18096" lon="5.69141">
        <ele>267</ele>
        <time>2015-04-09T17:09:38.000Z</time>
      </trkpt>
      <trkpt lat="45.18096" lon="5.69141">
        <ele>267</ele>
        <time>2015-04-09T17:09:40.000Z</time>
      </trkpt>
      <trkpt lat="45.18096" lon="5.69141">
        <ele>267</ele>
        <time>2015-04-09T17:09:42.000Z</time>
      </trkpt>
      <trkpt lat="45.18088" lon="5.69094">
        <ele>266</ele>
        <time>2015-04-09T17:09:50.000Z</time>
      </trkpt>
      <trkpt lat="45.18087" lon="5.69079">
        <ele>263</ele>
        <time>2015-04-09T17:09:54.000Z</time>
      </trkpt>
      <trkpt lat="45.18086" lon="5.69072">
        <ele>264</ele>
        <time>2015-04-09T17:09:58.000Z</time>
      </trkpt>
      <trkpt lat="45.18084" lon="5.69064">
        <ele>263</ele>
        <time>2015-04-09T17:10:00.000Z</time>
      </trkpt>
      <trkpt lat="45.18082" lon="5.69056">
        <ele>263</ele>
        <time>2015-04-09T17:10:02.000Z</time>
      </trkpt>
      <trkpt lat="45.18081" lon="5.69049">
        <ele>263</ele>
        <time>2015-04-09T17:10:04.000Z</time>
      </trkpt>
      <trkpt lat="45.18079" lon="5.69042">
        <ele>263</ele>
        <time>2015-04-09T17:10:06.000Z</time>
      </trkpt>
      <trkpt lat="45.18077" lon="5.69028">
        <ele>264</ele>
        <time>2015-04-09T17:10:08.000Z</time>
      </trkpt>
      <trkpt lat="45.18074" lon="5.69012">
        <ele>263</ele>
        <time>2015-04-09T17:10:12.000Z</time>
      </trkpt>
      <trkpt lat="45.18071" lon="5.68996">
        <ele>264</ele>
        <time>2015-04-09T17:10:16.000Z</time>
      </trkpt>
      <trkpt lat="45.18069" lon="5.6898">
        <ele>263</ele>
        <time>2015-04-09T17:10:20.000Z</time>
      </trkpt>
      <trkpt lat="45.18069" lon="5.6898">
        <ele>263</ele>
        <time>2015-04-09T17:10:22.000Z</time>
      </trkpt>
      <trkpt lat="45.18069" lon="5.6898">
        <ele>263</ele>
        <time>2015-04-09T17:10:24.000Z</time>
      </trkpt>
      <trkpt lat="45.18069" lon="5.6898">
        <ele>263</ele>
        <time>2015-04-09T17:10:26.000Z</time>
      </trkpt>
      <trkpt lat="45.18069" lon="5.6898">
        <ele>263</ele>
        <time>2015-04-09T17:10:28.000Z</time>
      </trkpt>
      <trkpt lat="45.18069" lon="5.6898">
        <ele>263</ele>
        <time>2015-04-09T17:10:30.000Z</time>
      </trkpt>
      <trkpt lat="45.18069" lon="5.6898">
        <ele>263</ele>
        <time>2015-04-09T17:10:32.000Z</time>
      </trkpt>
      <trkpt lat="45.18069" lon="5.6898">
        <ele>263</ele>
        <time>2015-04-09T17:10:34.000Z</time>
      </trkpt>
      <trkpt lat="45.18069" lon="5.6898">
        <ele>263</ele>
        <time>2015-04-09T17:10:36.000Z</time>
      </trkpt>
      <trkpt lat="45.18069" lon="5.6898">
        <ele>263</ele>
        <time>2015-04-09T17:10:38.000Z</time>
      </trkpt>
      <trkpt lat="45.18069" lon="5.6898">
        <ele>263</ele>
        <time>2015-04-09T17:10:40.000Z</time>
      </trkpt>
      <trkpt lat="45.18069" lon="5.6898">
        <ele>263</ele>
        <time>2015-04-09T17:10:42.000Z</time>
      </trkpt>
      <trkpt lat="45.18069" lon="5.6898">
        <ele>263</ele>
        <time>2015-04-09T17:10:44.000Z</time>
      </trkpt>
      <trkpt lat="45.18069" lon="5.6898">
        <ele>263</ele>
        <time>2015-04-09T17:10:46.000Z</time>
      </trkpt>
      <trkpt lat="45.18069" lon="5.6898">
        <ele>263</ele>
        <time>2015-04-09T17:10:48.000Z</time>
      </trkpt>
      <trkpt lat="45.18069" lon="5.6898">
        <ele>263</ele>
        <time>2015-04-09T17:10:50.000Z</time>
      </trkpt>
      <trkpt lat="45.18069" lon="5.6898">
        <ele>263</ele>
        <time>2015-04-09T17:10:52.000Z</time>
      </trkpt>
      <trkpt lat="45.18069" lon="5.6898">
        <ele>263</ele>
        <time>2015-04-09T17:10:54.000Z</time>
      </trkpt>
      <trkpt lat="45.18069" lon="5.6898">
        <ele>263</ele>
        <time>2015-04-09T17:10:56.000Z</time>
      </trkpt>
      <trkpt lat="45.18156" lon="5.68924">
        <ele>272</ele>
        <time>2015-04-09T17:11:06.000Z</time>
      </trkpt>
      <trkpt lat="45.18166" lon="5.68927">
        <ele>272</ele>
        <time>2015-04-09T17:11:10.000Z</time>
      </trkpt>
      <trkpt lat="45.18176" lon="5.68927">
        <ele>274</ele>
        <time>2015-04-09T17:11:14.000Z</time>
      </trkpt>
      <trkpt lat="45.18188" lon="5.68923">
        <ele>272</ele>
        <time>2015-04-09T17:11:18.000Z</time>
      </trkpt>
      <trkpt lat="45.18199" lon="5.68921">
        <ele>272</ele>
        <time>2015-04-09T17:11:22.000Z</time>
      </trkpt>
      <trkpt lat="45.18204" lon="5.68919">
        <ele>273</ele>
        <time>2015-04-09T17:11:26.000Z</time>
      </trkpt>
      <trkpt lat="45.18209" lon="5.68915">
        <ele>275</ele>
        <time>2015-04-09T17:11:28.000Z</time>
      </trkpt>
      <trkpt lat="45.18212" lon="5.6891">
        <ele>273</ele>
        <time>2015-04-09T17:11:30.000Z</time>
      </trkpt>
      <trkpt lat="45.18213" lon="5.68903">
        <ele>275</ele>
        <time>2015-04-09T17:11:32.000Z</time>
      </trkpt>
      <trkpt lat="45.18214" lon="5.68895">
        <ele>276</ele>
        <time>2015-04-09T17:11:34.000Z</time>
      </trkpt>
      <trkpt lat="45.18215" lon="5.68879">
        <ele>271</ele>
        <time>2015-04-09T17:11:36.000Z</time>
      </trkpt>
      <trkpt lat="45.18211" lon="5.68862">
        <ele>267</ele>
        <time>2015-04-09T17:11:40.000Z</time>
      </trkpt>
      <trkpt lat="45.18208" lon="5.68847">
        <ele>265</ele>
        <time>2015-04-09T17:11:44.000Z</time>
      </trkpt>
      <trkpt lat="45.18206" lon="5.68832">
        <ele>264</ele>
        <time>2015-04-09T17:11:48.000Z</time>
      </trkpt>
      <trkpt lat="45.18203" lon="5.68817">
        <ele>264</ele>
        <time>2015-04-09T17:11:52.000Z</time>
      </trkpt>
      <trkpt lat="45.182" lon="5.68803">
        <ele>263</ele>
        <time>2015-04-09T17:11:56.000Z</time>
      </trkpt>
      <trkpt lat="45.182" lon="5.6879">
        <ele>265</ele>
        <time>2015-04-09T17:12:00.000Z</time>
      </trkpt>
      <trkpt lat="45.182" lon="5.6879">
        <ele>265</ele>
        <time>2015-04-09T17:12:02.000Z</time>
      </trkpt>
      <trkpt lat="45.182" lon="5.6879">
        <ele>265</ele>
        <time>2015-04-09T17:12:04.000Z</time>
      </trkpt>
      <trkpt lat="45.182" lon="5.6879">
        <ele>265</ele>
        <time>2015-04-09T17:12:06.000Z</time>
      </trkpt>
      <trkpt lat="45.182" lon="5.6879">
        <ele>265</ele>
        <time>2015-04-09T17:12:08.000Z</time>
      </trkpt>
      <trkpt lat="45.182" lon="5.6879">
        <ele>265</ele>
        <time>2015-04-09T17:12:10.000Z</time>
      </trkpt>
      <trkpt lat="45.182" lon="5.6879">
        <ele>265</ele>
        <time>2015-04-09T17:12:12.000Z</time>
      </trkpt>
      <trkpt lat="45.182" lon="5.6879">
        <ele>265</ele>
        <time>2015-04-09T17:12:14.000Z</time>
      </trkpt>
      <trkpt lat="45.18232" lon="5.68778">
        <ele>264</ele>
        <time>2015-04-09T17:12:18.000Z</time>
      </trkpt>
      <trkpt lat="45.18242" lon="5.68782">
        <ele>262</ele>
        <time>2015-04-09T17:12:22.000Z</time>
      </trkpt>
      <trkpt lat="45.18252" lon="5.68786">
        <ele>260</ele>
        <time>2015-04-09T17:12:26.000Z</time>
      </trkpt>
      <trkpt lat="45.18261" lon="5.68791">
        <ele>262</ele>
        <time>2015-04-09T17:12:30.000Z</time>
      </trkpt>
      <trkpt lat="45.18271" lon="5.68796">
        <ele>264</ele>
        <time>2015-04-09T17:12:34.000Z</time>
      </trkpt>
      <trkpt lat="45.18281" lon="5.688">
        <ele>266</ele>
        <time>2015-04-09T17:12:38.000Z</time>
      </trkpt>
      <trkpt lat="45.18291" lon="5.68803">
        <ele>266</ele>
        <time>2015-04-09T17:12:42.000Z</time>
      </trkpt>
      <trkpt lat="45.18299" lon="5.6881">
        <ele>270</ele>
        <time>2015-04-09T17:12:46.000Z</time>
      </trkpt>
      <trkpt lat="45.18309" lon="5.68812">
        <ele>268</ele>
        <time>2015-04-09T17:12:51.000Z</time>
      </trkpt>
      <trkpt lat="45.18318" lon="5.68808">
        <ele>268</ele>
        <time>2015-04-09T17:12:54.000Z</time>
      </trkpt>
      <trkpt lat="45.18318" lon="5.68808">
        <ele>268</ele>
        <time>2015-04-09T17:12:56.000Z</time>
      </trkpt>
      <trkpt lat="45.18318" lon="5.68808">
        <ele>268</ele>
        <time>2015-04-09T17:12:58.000Z</time>
      </trkpt>
      <trkpt lat="45.18318" lon="5.68808">
        <ele>268</ele>
        <time>2015-04-09T17:13:00.000Z</time>
      </trkpt>
      <trkpt lat="45.18318" lon="5.68808">
        <ele>268</ele>
        <time>2015-04-09T17:13:02.000Z</time>
      </trkpt>
      <trkpt lat="45.18318" lon="5.68808">
        <ele>268</ele>
        <time>2015-04-09T17:13:04.000Z</time>
      </trkpt>
      <trkpt lat="45.18318" lon="5.68808">
        <ele>268</ele>
        <time>2015-04-09T17:13:06.000Z</time>
      </trkpt>
      <trkpt lat="45.18318" lon="5.68808">
        <ele>268</ele>
        <time>2015-04-09T17:13:08.000Z</time>
      </trkpt>
      <trkpt lat="45.18318" lon="5.68808">
        <ele>268</ele>
        <time>2015-04-09T17:13:10.000Z</time>
      </trkpt>
      <trkpt lat="45.18318" lon="5.68808">
        <ele>268</ele>
        <time>2015-04-09T17:13:12.000Z</time>
      </trkpt>
      <trkpt lat="45.18318" lon="5.68808">
        <ele>268</ele>
        <time>2015-04-09T17:13:14.000Z</time>
      </trkpt>
      <trkpt lat="45.18318" lon="5.68808">
        <ele>268</ele>
        <time>2015-04-09T17:13:16.000Z</time>
      </trkpt>
      <trkpt lat="45.18318" lon="5.68808">
        <ele>268</ele>
        <time>2015-04-09T17:13:18.000Z</time>
      </trkpt>
      <trkpt lat="45.18318" lon="5.68808">
        <ele>268</ele>
        <time>2015-04-09T17:13:20.000Z</time>
      </trkpt>
      <trkpt lat="45.18318" lon="5.68808">
        <ele>268</ele>
        <time>2015-04-09T17:13:22.000Z</time>
      </trkpt>
      <trkpt lat="45.18318" lon="5.68808">
        <ele>268</ele>
        <time>2015-04-09T17:13:24.000Z</time>
      </trkpt>
      <trkpt lat="45.18318" lon="5.68808">
        <ele>268</ele>
        <time>2015-04-09T17:13:26.000Z</time>
      </trkpt>
      <trkpt lat="45.18318" lon="5.68808">
        <ele>268</ele>
        <time>2015-04-09T17:13:28.000Z</time>
      </trkpt>
      <trkpt lat="45.18356" lon="5.68818">
        <ele>264</ele>
        <time>2015-04-09T17:13:32.000Z</time>
      </trkpt>
      <trkpt lat="45.18378" lon="5.68824">
        <ele>266</ele>
        <time>2015-04-09T17:13:34.000Z</time>
      </trkpt>
      <trkpt lat="45.18391" lon="5.68828">
        <ele>269</ele>
        <time>2015-04-09T17:13:36.000Z</time>
      </trkpt>
      <trkpt lat="45.18399" lon="5.68831">
        <ele>267</ele>
        <time>2015-04-09T17:13:38.000Z</time>
      </trkpt>
      <trkpt lat="45.18406" lon="5.68834">
        <ele>266</ele>
        <time>2015-04-09T17:13:40.000Z</time>
      </trkpt>
      <trkpt lat="45.18406" lon="5.68834">
        <ele>266</ele>
        <time>2015-04-09T17:13:42.000Z</time>
      </trkpt>
      <trkpt lat="45.18406" lon="5.68834">
        <ele>266</ele>
        <time>2015-04-09T17:13:44.000Z</time>
      </trkpt>
      <trkpt lat="45.18406" lon="5.68834">
        <ele>266</ele>
        <time>2015-04-09T17:13:46.000Z</time>
      </trkpt>
      <trkpt lat="45.18406" lon="5.68834">
        <ele>266</ele>
        <time>2015-04-09T17:13:48.000Z</time>
      </trkpt>
      <trkpt lat="45.18403" lon="5.68816">
        <ele>266</ele>
        <time>2015-04-09T17:14:24.000Z</time>
      </trkpt>
      <trkpt lat="45.18409" lon="5.68805">
        <ele>266</ele>
        <time>2015-04-09T17:14:28.000Z</time>
      </trkpt>
      <trkpt lat="45.18409" lon="5.68805">
        <ele>266</ele>
        <time>2015-04-09T17:14:30.000Z</time>
      </trkpt>
      <trkpt lat="45.18409" lon="5.68805">
        <ele>266</ele>
        <time>2015-04-09T17:14:32.000Z</time>
      </trkpt>
      <trkpt lat="45.18409" lon="5.68805">
        <ele>266</ele>
        <time>2015-04-09T17:14:34.000Z</time>
      </trkpt>
      <trkpt lat="45.18409" lon="5.68805">
        <ele>266</ele>
        <time>2015-04-09T17:14:36.000Z</time>
      </trkpt>
      <trkpt lat="45.18409" lon="5.68805">
        <ele>266</ele>
        <time>2015-04-09T17:14:38.000Z</time>
      </trkpt>
      <trkpt lat="45.18409" lon="5.68805">
        <ele>266</ele>
        <time>2015-04-09T17:14:40.000Z</time>
      </trkpt>
      <trkpt lat="45.18409" lon="5.68805">
        <ele>266</ele>
        <time>2015-04-09T17:14:42.000Z</time>
      </trkpt>
      <trkpt lat="45.18409" lon="5.68805">
        <ele>266</ele>
        <time>2015-04-09T17:14:44.000Z</time>
      </trkpt>
      <trkpt lat="45.18409" lon="5.68805">
        <ele>266</ele>
        <time>2015-04-09T17:14:46.000Z</time>
      </trkpt>
      <trkpt lat="45.18409" lon="5.68805">
        <ele>266</ele>
        <time>2015-04-09T17:14:48.000Z</time>
      </trkpt>
      <trkpt lat="45.18409" lon="5.68805">
        <ele>266</ele>
        <time>2015-04-09T17:14:56.000Z</time>
      </trkpt>
      <trkpt lat="45.18409" lon="5.68805">
        <ele>266</ele>
        <time>2015-04-09T17:14:58.000Z</time>
      </trkpt>
      <trkpt lat="45.18409" lon="5.68805">
        <ele>266</ele>
        <time>2015-04-09T17:15:00.000Z</time>
      </trkpt>
      <trkpt lat="45.18409" lon="5.68805">
        <ele>266</ele>
        <time>2015-04-09T17:15:02.000Z</time>
      </trkpt>
      <trkpt lat="45.18409" lon="5.68805">
        <ele>266</ele>
        <time>2015-04-09T17:15:04.000Z</time>
      </trkpt>
      <trkpt lat="45.18409" lon="5.68805">
        <ele>266</ele>
        <time>2015-04-09T17:15:06.000Z</time>
      </trkpt>
      <trkpt lat="45.18409" lon="5.68805">
        <ele>266</ele>
        <time>2015-04-09T17:15:08.000Z</time>
      </trkpt>
      <trkpt lat="45.18409" lon="5.68805">
        <ele>266</ele>
        <time>2015-04-09T17:15:36.000Z</time>
      </trkpt>
      <trkpt lat="45.18409" lon="5.68805">
        <ele>266</ele>
        <time>2015-04-09T17:15:38.000Z</time>
      </trkpt>
      <trkpt lat="45.18409" lon="5.68805">
        <ele>266</ele>
        <time>2015-04-09T17:15:40.000Z</time>
      </trkpt>
      <trkpt lat="45.18409" lon="5.68805">
        <ele>266</ele>
        <time>2015-04-09T17:15:42.000Z</time>
      </trkpt>
      <trkpt lat="45.18409" lon="5.68805">
        <ele>266</ele>
        <time>2015-04-09T17:15:44.000Z</time>
      </trkpt>
      <trkpt lat="45.18369" lon="5.68747">
        <ele>300</ele>
        <time>2015-04-09T17:15:56.000Z</time>
      </trkpt>
      <trkpt lat="45.1835" lon="5.68717">
        <ele>298</ele>
        <time>2015-04-09T17:15:58.000Z</time>
      </trkpt>
      <trkpt lat="45.18342" lon="5.68701">
        <ele>300</ele>
        <time>2015-04-09T17:16:00.000Z</time>
      </trkpt>
      <trkpt lat="45.18338" lon="5.68693">
        <ele>301</ele>
        <time>2015-04-09T17:16:02.000Z</time>
      </trkpt>
      <trkpt lat="45.18342" lon="5.68689">
        <ele>302</ele>
        <time>2015-04-09T17:16:20.000Z</time>
      </trkpt>
      <trkpt lat="45.18341" lon="5.68682">
        <ele>302</ele>
        <time>2015-04-09T17:16:28.000Z</time>
      </trkpt>
      <trkpt lat="45.1834" lon="5.68675">
        <ele>302</ele>
        <time>2015-04-09T17:16:32.000Z</time>
      </trkpt>
      <trkpt lat="45.18345" lon="5.68674">
        <ele>301</ele>
        <time>2015-04-09T17:16:46.000Z</time>
      </trkpt>
      <trkpt lat="45.18345" lon="5.68674">
        <ele>301</ele>
        <time>2015-04-09T17:16:50.000Z</time>
      </trkpt>
      <trkpt lat="45.18345" lon="5.68674">
        <ele>301</ele>
        <time>2015-04-09T17:16:52.000Z</time>
      </trkpt>
      <trkpt lat="45.18345" lon="5.68674">
        <ele>301</ele>
        <time>2015-04-09T17:16:54.000Z</time>
      </trkpt>
      <trkpt lat="45.18346" lon="5.68668">
        <ele>302</ele>
        <time>2015-04-09T17:16:58.000Z</time>
      </trkpt>
      <trkpt lat="45.18345" lon="5.68661">
        <ele>302</ele>
        <time>2015-04-09T17:17:02.000Z</time>
      </trkpt>
      <trkpt lat="45.18345" lon="5.68654">
        <ele>304</ele>
        <time>2015-04-09T17:17:06.000Z</time>
      </trkpt>
      <trkpt lat="45.18345" lon="5.68647">
        <ele>302</ele>
        <time>2015-04-09T17:17:10.000Z</time>
      </trkpt>
      <trkpt lat="45.18345" lon="5.68647">
        <ele>302</ele>
        <time>2015-04-09T17:17:12.000Z</time>
      </trkpt>
      <trkpt lat="45.18345" lon="5.68647">
        <ele>302</ele>
        <time>2015-04-09T17:17:14.000Z</time>
      </trkpt>
      <trkpt lat="45.18345" lon="5.68647">
        <ele>302</ele>
        <time>2015-04-09T17:17:16.000Z</time>
      </trkpt>
      <trkpt lat="45.18345" lon="5.68647">
        <ele>302</ele>
        <time>2015-04-09T17:17:18.000Z</time>
      </trkpt>
      <trkpt lat="45.18345" lon="5.68647">
        <ele>302</ele>
        <time>2015-04-09T17:17:20.000Z</time>
      </trkpt>
      <trkpt lat="45.18345" lon="5.68647">
        <ele>302</ele>
        <time>2015-04-09T17:17:23.000Z</time>
      </trkpt>
      <trkpt lat="45.18345" lon="5.68647">
        <ele>302</ele>
        <time>2015-04-09T17:17:25.000Z</time>
      </trkpt>
      <trkpt lat="45.18345" lon="5.68647">
        <ele>302</ele>
        <time>2015-04-09T17:17:27.000Z</time>
      </trkpt>
      <trkpt lat="45.18345" lon="5.68647">
        <ele>302</ele>
        <time>2015-04-09T17:17:29.000Z</time>
      </trkpt>
      <trkpt lat="45.18345" lon="5.68647">
        <ele>302</ele>
        <time>2015-04-09T17:17:31.000Z</time>
      </trkpt>
      <trkpt lat="45.1835" lon="5.68649">
        <ele>302</ele>
        <time>2015-04-09T17:17:33.000Z</time>
      </trkpt>
      <trkpt lat="45.18354" lon="5.68651">
        <ele>303</ele>
        <time>2015-04-09T17:17:35.000Z</time>
      </trkpt>
      <trkpt lat="45.18359" lon="5.68655">
        <ele>305</ele>
        <time>2015-04-09T17:17:39.000Z</time>
      </trkpt>
      <trkpt lat="45.18359" lon="5.68655">
        <ele>305</ele>
        <time>2015-04-09T17:17:41.000Z</time>
      </trkpt>
      <trkpt lat="45.18362" lon="5.6866">
        <ele>306</ele>
        <time>2015-04-09T17:17:43.000Z</time>
      </trkpt>
      <trkpt lat="45.18365" lon="5.68667">
        <ele>309</ele>
        <time>2015-04-09T17:17:47.000Z</time>
      </trkpt>
      <trkpt lat="45.1837" lon="5.68673">
        <ele>310</ele>
        <time>2015-04-09T17:17:51.000Z</time>
      </trkpt>
      <trkpt lat="45.18374" lon="5.68677">
        <ele>309</ele>
        <time>2015-04-09T17:17:53.000Z</time>
      </trkpt>
      <trkpt lat="45.1838" lon="5.68679">
        <ele>310</ele>
        <time>2015-04-09T17:17:57.000Z</time>
      </trkpt>
      <trkpt lat="45.18384" lon="5.6868">
        <ele>310</ele>
        <time>2015-04-09T17:17:59.000Z</time>
      </trkpt>
      <trkpt lat="45.1839" lon="5.6868">
        <ele>311</ele>
        <time>2015-04-09T17:18:03.000Z</time>
      </trkpt>
      <trkpt lat="45.1839" lon="5.6868">
        <ele>311</ele>
        <time>2015-04-09T17:18:05.000Z</time>
      </trkpt>
      <trkpt lat="45.18395" lon="5.68678">
        <ele>312</ele>
        <time>2015-04-09T17:18:07.000Z</time>
      </trkpt>
      <trkpt lat="45.18395" lon="5.68678">
        <ele>312</ele>
        <time>2015-04-09T17:18:09.000Z</time>
      </trkpt>
      <trkpt lat="45.184" lon="5.68673">
        <ele>313</ele>
        <time>2015-04-09T17:18:11.000Z</time>
      </trkpt>
      <trkpt lat="45.184" lon="5.68673">
        <ele>313</ele>
        <time>2015-04-09T17:18:13.000Z</time>
      </trkpt>
      <trkpt lat="45.184" lon="5.68673">
        <ele>313</ele>
        <time>2015-04-09T17:18:15.000Z</time>
      </trkpt>
      <trkpt lat="45.184" lon="5.68673">
        <ele>313</ele>
        <time>2015-04-09T17:18:17.000Z</time>
      </trkpt>
      <trkpt lat="45.184" lon="5.68673">
        <ele>313</ele>
        <time>2015-04-09T17:18:19.000Z</time>
      </trkpt>
      <trkpt lat="45.184" lon="5.68673">
        <ele>313</ele>
        <time>2015-04-09T17:18:21.000Z</time>
      </trkpt>
      <trkpt lat="45.184" lon="5.68673">
        <ele>313</ele>
        <time>2015-04-09T17:18:23.000Z</time>
      </trkpt>
      <trkpt lat="45.184" lon="5.68673">
        <ele>313</ele>
        <time>2015-04-09T17:18:25.000Z</time>
      </trkpt>
      <trkpt lat="45.184" lon="5.68673">
        <ele>313</ele>
        <time>2015-04-09T17:18:27.000Z</time>
      </trkpt>
      <trkpt lat="45.184" lon="5.68673">
        <ele>313</ele>
        <time>2015-04-09T17:18:29.000Z</time>
      </trkpt>
      <trkpt lat="45.18412" lon="5.68657">
        <ele>315</ele>
        <time>2015-04-09T17:18:33.000Z</time>
      </trkpt>
      <trkpt lat="45.18419" lon="5.68647">
        <ele>316</ele>
        <time>2015-04-09T17:18:35.000Z</time>
      </trkpt>
      <trkpt lat="45.18423" lon="5.6864">
        <ele>316</ele>
        <time>2015-04-09T17:18:37.000Z</time>
      </trkpt>
      <trkpt lat="45.18427" lon="5.68634">
        <ele>315</ele>
        <time>2015-04-09T17:18:39.000Z</time>
      </trkpt>
      <trkpt lat="45.18431" lon="5.68629">
        <ele>315</ele>
        <time>2015-04-09T17:18:41.000Z</time>
      </trkpt>
      <trkpt lat="45.18436" lon="5.68617">
        <ele>317</ele>
        <time>2015-04-09T17:18:45.000Z</time>
      </trkpt>
      <trkpt lat="45.18436" lon="5.68617">
        <ele>317</ele>
        <time>2015-04-09T17:18:47.000Z</time>
      </trkpt>
      <trkpt lat="45.18436" lon="5.68617">
        <ele>317</ele>
        <time>2015-04-09T17:18:49.000Z</time>
      </trkpt>
      <trkpt lat="45.18433" lon="5.68596">
        <ele>368</ele>
        <time>2015-04-09T17:18:55.000Z</time>
      </trkpt>
      <trkpt lat="45.18433" lon="5.68596">
        <ele>368</ele>
        <time>2015-04-09T17:18:57.000Z</time>
      </trkpt>
      <trkpt lat="45.18433" lon="5.68596">
        <ele>368</ele>
        <time>2015-04-09T17:18:59.000Z</time>
      </trkpt>
      <trkpt lat="45.18433" lon="5.68596">
        <ele>368</ele>
        <time>2015-04-09T17:19:01.000Z</time>
      </trkpt>
      <trkpt lat="45.18433" lon="5.68596">
        <ele>368</ele>
        <time>2015-04-09T17:19:03.000Z</time>
      </trkpt>
      <trkpt lat="45.18433" lon="5.68596">
        <ele>368</ele>
        <time>2015-04-09T17:19:05.000Z</time>
      </trkpt>
      <trkpt lat="45.18433" lon="5.68596">
        <ele>368</ele>
        <time>2015-04-09T17:19:07.000Z</time>
      </trkpt>
      <trkpt lat="45.18433" lon="5.68596">
        <ele>368</ele>
        <time>2015-04-09T17:19:09.000Z</time>
      </trkpt>
      <trkpt lat="45.18433" lon="5.68596">
        <ele>368</ele>
        <time>2015-04-09T17:19:11.000Z</time>
      </trkpt>
      <trkpt lat="45.18433" lon="5.68596">
        <ele>368</ele>
        <time>2015-04-09T17:19:13.000Z</time>
      </trkpt>
      <trkpt lat="45.18433" lon="5.68596">
        <ele>368</ele>
        <time>2015-04-09T17:19:15.000Z</time>
      </trkpt>
      <trkpt lat="45.18433" lon="5.68596">
        <ele>368</ele>
        <time>2015-04-09T17:19:17.000Z</time>
      </trkpt>
      <trkpt lat="45.18437" lon="5.68557">
        <ele>332</ele>
        <time>2015-04-09T17:19:23.000Z</time>
      </trkpt>
      <trkpt lat="45.18437" lon="5.68557">
        <ele>332</ele>
        <time>2015-04-09T17:19:25.000Z</time>
      </trkpt>
      <trkpt lat="45.1844" lon="5.6854">
        <ele>334</ele>
        <time>2015-04-09T17:19:31.000Z</time>
      </trkpt>
      <trkpt lat="45.18442" lon="5.68526">
        <ele>338</ele>
        <time>2015-04-09T17:19:37.000Z</time>
      </trkpt>
      <trkpt lat="45.18442" lon="5.68526">
        <ele>338</ele>
        <time>2015-04-09T17:19:43.000Z</time>
      </trkpt>
      <trkpt lat="45.18442" lon="5.68526">
        <ele>338</ele>
        <time>2015-04-09T17:19:45.000Z</time>
      </trkpt>
      <trkpt lat="45.18442" lon="5.68526">
        <ele>338</ele>
        <time>2015-04-09T17:19:47.000Z</time>
      </trkpt>
      <trkpt lat="45.18442" lon="5.68526">
        <ele>338</ele>
        <time>2015-04-09T17:19:49.000Z</time>
      </trkpt>
      <trkpt lat="45.18442" lon="5.68526">
        <ele>338</ele>
        <time>2015-04-09T17:19:51.000Z</time>
      </trkpt>
      <trkpt lat="45.18442" lon="5.68526">
        <ele>338</ele>
        <time>2015-04-09T17:19:53.000Z</time>
      </trkpt>
      <trkpt lat="45.18442" lon="5.68526">
        <ele>338</ele>
        <time>2015-04-09T17:19:55.000Z</time>
      </trkpt>
      <trkpt lat="45.18442" lon="5.68526">
        <ele>338</ele>
        <time>2015-04-09T17:19:57.000Z</time>
      </trkpt>
      <trkpt lat="45.18442" lon="5.68526">
        <ele>338</ele>
        <time>2015-04-09T17:19:59.000Z</time>
      </trkpt>
      <trkpt lat="45.18442" lon="5.68526">
        <ele>338</ele>
        <time>2015-04-09T17:20:01.000Z</time>
      </trkpt>
      <trkpt lat="45.18442" lon="5.68526">
        <ele>338</ele>
        <time>2015-04-09T17:20:03.000Z</time>
      </trkpt>
      <trkpt lat="45.18442" lon="5.68526">
        <ele>338</ele>
        <time>2015-04-09T17:20:05.000Z</time>
      </trkpt>
      <trkpt lat="45.18442" lon="5.68526">
        <ele>338</ele>
        <time>2015-04-09T17:20:07.000Z</time>
      </trkpt>
      <trkpt lat="45.18442" lon="5.68526">
        <ele>338</ele>
        <time>2015-04-09T17:20:09.000Z</time>
      </trkpt>
      <trkpt lat="45.18442" lon="5.68526">
        <ele>338</ele>
        <time>2015-04-09T17:20:11.000Z</time>
      </trkpt>
      <trkpt lat="45.18442" lon="5.68526">
        <ele>338</ele>
        <time>2015-04-09T17:20:13.000Z</time>
      </trkpt>
      <trkpt lat="45.18442" lon="5.68526">
        <ele>338</ele>
        <time>2015-04-09T17:20:15.000Z</time>
      </trkpt>
      <trkpt lat="45.18442" lon="5.68526">
        <ele>338</ele>
        <time>2015-04-09T17:20:17.000Z</time>
      </trkpt>
      <trkpt lat="45.18457" lon="5.68486">
        <ele>344</ele>
        <time>2015-04-09T17:20:21.000Z</time>
      </trkpt>
      <trkpt lat="45.18465" lon="5.68462">
        <ele>343</ele>
        <time>2015-04-09T17:20:23.000Z</time>
      </trkpt>
      <trkpt lat="45.18469" lon="5.68447">
        <ele>343</ele>
        <time>2015-04-09T17:20:25.000Z</time>
      </trkpt>
      <trkpt lat="45.18471" lon="5.68437">
        <ele>345</ele>
        <time>2015-04-09T17:20:27.000Z</time>
      </trkpt>
      <trkpt lat="45.18472" lon="5.68429">
        <ele>345</ele>
        <time>2015-04-09T17:20:29.000Z</time>
      </trkpt>
      <trkpt lat="45.18472" lon="5.68416">
        <ele>346</ele>
        <time>2015-04-09T17:20:31.000Z</time>
      </trkpt>
      <trkpt lat="45.18472" lon="5.68416">
        <ele>346</ele>
        <time>2015-04-09T17:20:33.000Z</time>
      </trkpt>
      <trkpt lat="45.18472" lon="5.68416">
        <ele>346</ele>
        <time>2015-04-09T17:20:35.000Z</time>
      </trkpt>
      <trkpt lat="45.18472" lon="5.68416">
        <ele>346</ele>
        <time>2015-04-09T17:20:37.000Z</time>
      </trkpt>
      <trkpt lat="45.18472" lon="5.68416">
        <ele>346</ele>
        <time>2015-04-09T17:20:39.000Z</time>
      </trkpt>
      <trkpt lat="45.18458" lon="5.68387">
        <ele>351</ele>
        <time>2015-04-09T17:20:45.000Z</time>
      </trkpt>
      <trkpt lat="45.18457" lon="5.68374">
        <ele>354</ele>
        <time>2015-04-09T17:20:51.000Z</time>
      </trkpt>
      <trkpt lat="45.18461" lon="5.6836">
        <ele>353</ele>
        <time>2015-04-09T17:20:57.000Z</time>
      </trkpt>
      <trkpt lat="45.18466" lon="5.68345">
        <ele>354</ele>
        <time>2015-04-09T17:21:03.000Z</time>
      </trkpt>
      <trkpt lat="45.18472" lon="5.68334">
        <ele>355</ele>
        <time>2015-04-09T17:21:07.000Z</time>
      </trkpt>
      <trkpt lat="45.1848" lon="5.68326">
        <ele>356</ele>
        <time>2015-04-09T17:21:11.000Z</time>
      </trkpt>
      <trkpt lat="45.1848" lon="5.68326">
        <ele>356</ele>
        <time>2015-04-09T17:21:13.000Z</time>
      </trkpt>
      <trkpt lat="45.1848" lon="5.68326">
        <ele>356</ele>
        <time>2015-04-09T17:21:15.000Z</time>
      </trkpt>
      <trkpt lat="45.1848" lon="5.68326">
        <ele>356</ele>
        <time>2015-04-09T17:21:17.000Z</time>
      </trkpt>
      <trkpt lat="45.1848" lon="5.68326">
        <ele>356</ele>
        <time>2015-04-09T17:21:19.000Z</time>
      </trkpt>
      <trkpt lat="45.1848" lon="5.68326">
        <ele>356</ele>
        <time>2015-04-09T17:21:21.000Z</time>
      </trkpt>
      <trkpt lat="45.1848" lon="5.68326">
        <ele>356</ele>
        <time>2015-04-09T17:21:23.000Z</time>
      </trkpt>
      <trkpt lat="45.1848" lon="5.68326">
        <ele>356</ele>
        <time>2015-04-09T17:21:25.000Z</time>
      </trkpt>
      <trkpt lat="45.1848" lon="5.68326">
        <ele>356</ele>
        <time>2015-04-09T17:21:27.000Z</time>
      </trkpt>
      <trkpt lat="45.1848" lon="5.68326">
        <ele>356</ele>
        <time>2015-04-09T17:21:29.000Z</time>
      </trkpt>
      <trkpt lat="45.18507" lon="5.6828">
        <ele>358</ele>
        <time>2015-04-09T17:21:33.000Z</time>
      </trkpt>
      <trkpt lat="45.18512" lon="5.68266">
        <ele>362</ele>
        <time>2015-04-09T17:21:39.000Z</time>
      </trkpt>
      <trkpt lat="45.18519" lon="5.68253">
        <ele>361</ele>
        <time>2015-04-09T17:21:45.000Z</time>
      </trkpt>
      <trkpt lat="45.18523" lon="5.68238">
        <ele>355</ele>
        <time>2015-04-09T17:21:49.000Z</time>
      </trkpt>
      <trkpt lat="45.18524" lon="5.68231">
        <ele>355</ele>
        <time>2015-04-09T17:21:53.000Z</time>
      </trkpt>
      <trkpt lat="45.18525" lon="5.68224">
        <ele>356</ele>
        <time>2015-04-09T17:21:55.000Z</time>
      </trkpt>
      <trkpt lat="45.18525" lon="5.68224">
        <ele>356</ele>
        <time>2015-04-09T17:21:57.000Z</time>
      </trkpt>
      <trkpt lat="45.18525" lon="5.68224">
        <ele>356</ele>
        <time>2015-04-09T17:21:59.000Z</time>
      </trkpt>
      <trkpt lat="45.18525" lon="5.68224">
        <ele>356</ele>
        <time>2015-04-09T17:22:01.000Z</time>
      </trkpt>
      <trkpt lat="45.18525" lon="5.68224">
        <ele>356</ele>
        <time>2015-04-09T17:22:03.000Z</time>
      </trkpt>
      <trkpt lat="45.18525" lon="5.68224">
        <ele>356</ele>
        <time>2015-04-09T17:22:05.000Z</time>
      </trkpt>
      <trkpt lat="45.18525" lon="5.68224">
        <ele>356</ele>
        <time>2015-04-09T17:22:07.000Z</time>
      </trkpt>
      <trkpt lat="45.18525" lon="5.68224">
        <ele>356</ele>
        <time>2015-04-09T17:22:09.000Z</time>
      </trkpt>
      <trkpt lat="45.18525" lon="5.68224">
        <ele>356</ele>
        <time>2015-04-09T17:22:11.000Z</time>
      </trkpt>
      <trkpt lat="45.18525" lon="5.68224">
        <ele>356</ele>
        <time>2015-04-09T17:22:13.000Z</time>
      </trkpt>
      <trkpt lat="45.18525" lon="5.68224">
        <ele>356</ele>
        <time>2015-04-09T17:22:15.000Z</time>
      </trkpt>
      <trkpt lat="45.18525" lon="5.68224">
        <ele>356</ele>
        <time>2015-04-09T17:22:17.000Z</time>
      </trkpt>
      <trkpt lat="45.18525" lon="5.68224">
        <ele>356</ele>
        <time>2015-04-09T17:22:19.000Z</time>
      </trkpt>
      <trkpt lat="45.18525" lon="5.68224">
        <ele>356</ele>
        <time>2015-04-09T17:22:21.000Z</time>
      </trkpt>
      <trkpt lat="45.18525" lon="5.68224">
        <ele>356</ele>
        <time>2015-04-09T17:22:23.000Z</time>
      </trkpt>
      <trkpt lat="45.18538" lon="5.6818">
        <ele>356</ele>
        <time>2015-04-09T17:22:26.000Z</time>
      </trkpt>
      <trkpt lat="45.18545" lon="5.68155">
        <ele>355</ele>
        <time>2015-04-09T17:22:27.000Z</time>
      </trkpt>
      <trkpt lat="45.18549" lon="5.6814">
        <ele>353</ele>
        <time>2015-04-09T17:22:29.000Z</time>
      </trkpt>
      <trkpt lat="45.18552" lon="5.68129">
        <ele>353</ele>
        <time>2015-04-09T17:22:31.000Z</time>
      </trkpt>
      <trkpt lat="45.18555" lon="5.6812">
        <ele>353</ele>
        <time>2015-04-09T17:22:33.000Z</time>
      </trkpt>
      <trkpt lat="45.18559" lon="5.68105">
        <ele>354</ele>
        <time>2015-04-09T17:22:35.000Z</time>
      </trkpt>
      <trkpt lat="45.18559" lon="5.68105">
        <ele>354</ele>
        <time>2015-04-09T17:22:39.000Z</time>
      </trkpt>
      <trkpt lat="45.18559" lon="5.68105">
        <ele>354</ele>
        <time>2015-04-09T17:22:41.000Z</time>
      </trkpt>
      <trkpt lat="45.18559" lon="5.68105">
        <ele>354</ele>
        <time>2015-04-09T17:22:43.000Z</time>
      </trkpt>
      <trkpt lat="45.18559" lon="5.68105">
        <ele>354</ele>
        <time>2015-04-09T17:22:45.000Z</time>
      </trkpt>
      <trkpt lat="45.18559" lon="5.68105">
        <ele>354</ele>
        <time>2015-04-09T17:22:47.000Z</time>
      </trkpt>
      <trkpt lat="45.18559" lon="5.68105">
        <ele>354</ele>
        <time>2015-04-09T17:22:49.000Z</time>
      </trkpt>
      <trkpt lat="45.18567" lon="5.68081">
        <ele>353</ele>
        <time>2015-04-09T17:23:21.000Z</time>
      </trkpt>
      <trkpt lat="45.1857" lon="5.68068">
        <ele>354</ele>
        <time>2015-04-09T17:23:25.000Z</time>
      </trkpt>
      <trkpt lat="45.18571" lon="5.68055">
        <ele>356</ele>
        <time>2015-04-09T17:23:29.000Z</time>
      </trkpt>
      <trkpt lat="45.18572" lon="5.68041">
        <ele>355</ele>
        <time>2015-04-09T17:23:33.000Z</time>
      </trkpt>
      <trkpt lat="45.18573" lon="5.68026">
        <ele>356</ele>
        <time>2015-04-09T17:23:37.000Z</time>
      </trkpt>
      <trkpt lat="45.18573" lon="5.68026">
        <ele>356</ele>
        <time>2015-04-09T17:23:43.000Z</time>
      </trkpt>
      <trkpt lat="45.18573" lon="5.68026">
        <ele>356</ele>
        <time>2015-04-09T17:23:45.000Z</time>
      </trkpt>
      <trkpt lat="45.18573" lon="5.68026">
        <ele>356</ele>
        <time>2015-04-09T17:23:47.000Z</time>
      </trkpt>
      <trkpt lat="45.18573" lon="5.68026">
        <ele>356</ele>
        <time>2015-04-09T17:23:49.000Z</time>
      </trkpt>
      <trkpt lat="45.18573" lon="5.68026">
        <ele>356</ele>
        <time>2015-04-09T17:23:51.000Z</time>
      </trkpt>
      <trkpt lat="45.18573" lon="5.68026">
        <ele>356</ele>
        <time>2015-04-09T17:23:53.000Z</time>
      </trkpt>
      <trkpt lat="45.18573" lon="5.68026">
        <ele>356</ele>
        <time>2015-04-09T17:23:55.000Z</time>
      </trkpt>
      <trkpt lat="45.18573" lon="5.68026">
        <ele>356</ele>
        <time>2015-04-09T17:23:57.000Z</time>
      </trkpt>
      <trkpt lat="45.18573" lon="5.68026">
        <ele>356</ele>
        <time>2015-04-09T17:23:59.000Z</time>
      </trkpt>
      <trkpt lat="45.18573" lon="5.68026">
        <ele>356</ele>
        <time>2015-04-09T17:24:01.000Z</time>
      </trkpt>
      <trkpt lat="45.18573" lon="5.68026">
        <ele>356</ele>
        <time>2015-04-09T17:24:03.000Z</time>
      </trkpt>
      <trkpt lat="45.18573" lon="5.68026">
        <ele>356</ele>
        <time>2015-04-09T17:24:05.000Z</time>
      </trkpt>
      <trkpt lat="45.18573" lon="5.68026">
        <ele>356</ele>
        <time>2015-04-09T17:24:07.000Z</time>
      </trkpt>
      <trkpt lat="45.18573" lon="5.68026">
        <ele>356</ele>
        <time>2015-04-09T17:24:09.000Z</time>
      </trkpt>
      <trkpt lat="45.18573" lon="5.68026">
        <ele>356</ele>
        <time>2015-04-09T17:24:11.000Z</time>
      </trkpt>
      <trkpt lat="45.18573" lon="5.68026">
        <ele>356</ele>
        <time>2015-04-09T17:24:13.000Z</time>
      </trkpt>
      <trkpt lat="45.18573" lon="5.68026">
        <ele>356</ele>
        <time>2015-04-09T17:24:15.000Z</time>
      </trkpt>
      <trkpt lat="45.18573" lon="5.68026">
        <ele>356</ele>
        <time>2015-04-09T17:24:17.000Z</time>
      </trkpt>
      <trkpt lat="45.18573" lon="5.68026">
        <ele>356</ele>
        <time>2015-04-09T17:24:19.000Z</time>
      </trkpt>
      <trkpt lat="45.18573" lon="5.68026">
        <ele>356</ele>
        <time>2015-04-09T17:24:21.000Z</time>
      </trkpt>
      <trkpt lat="45.18573" lon="5.68026">
        <ele>356</ele>
        <time>2015-04-09T17:24:23.000Z</time>
      </trkpt>
      <trkpt lat="45.18573" lon="5.68026">
        <ele>356</ele>
        <time>2015-04-09T17:24:25.000Z</time>
      </trkpt>
      <trkpt lat="45.18573" lon="5.68026">
        <ele>356</ele>
        <time>2015-04-09T17:24:27.000Z</time>
      </trkpt>
      <trkpt lat="45.18573" lon="5.68026">
        <ele>356</ele>
        <time>2015-04-09T17:24:29.000Z</time>
      </trkpt>
      <trkpt lat="45.18573" lon="5.68026">
        <ele>356</ele>
        <time>2015-04-09T17:24:31.000Z</time>
      </trkpt>
      <trkpt lat="45.18573" lon="5.68026">
        <ele>356</ele>
        <time>2015-04-09T17:24:33.000Z</time>
      </trkpt>
      <trkpt lat="45.18573" lon="5.68026">
        <ele>356</ele>
        <time>2015-04-09T17:24:35.000Z</time>
      </trkpt>
      <trkpt lat="45.18573" lon="5.68026">
        <ele>356</ele>
        <time>2015-04-09T17:24:37.000Z</time>
      </trkpt>
      <trkpt lat="45.18573" lon="5.68026">
        <ele>356</ele>
        <time>2015-04-09T17:24:39.000Z</time>
      </trkpt>
      <trkpt lat="45.18573" lon="5.68026">
        <ele>356</ele>
        <time>2015-04-09T17:24:41.000Z</time>
      </trkpt>
      <trkpt lat="45.18573" lon="5.68026">
        <ele>356</ele>
        <time>2015-04-09T17:24:43.000Z</time>
      </trkpt>
      <trkpt lat="45.18573" lon="5.68026">
        <ele>356</ele>
        <time>2015-04-09T17:24:45.000Z</time>
      </trkpt>
      <trkpt lat="45.18573" lon="5.68026">
        <ele>356</ele>
        <time>2015-04-09T17:24:47.000Z</time>
      </trkpt>
      <trkpt lat="45.18573" lon="5.68026">
        <ele>356</ele>
        <time>2015-04-09T17:24:49.000Z</time>
      </trkpt>
      <trkpt lat="45.18573" lon="5.68026">
        <ele>356</ele>
        <time>2015-04-09T17:24:51.000Z</time>
      </trkpt>
      <trkpt lat="45.18573" lon="5.68026">
        <ele>356</ele>
        <time>2015-04-09T17:24:53.000Z</time>
      </trkpt>
      <trkpt lat="45.18573" lon="5.68026">
        <ele>356</ele>
        <time>2015-04-09T17:24:55.000Z</time>
      </trkpt>
      <trkpt lat="45.18573" lon="5.68026">
        <ele>356</ele>
        <time>2015-04-09T17:24:57.000Z</time>
      </trkpt>
      <trkpt lat="45.18573" lon="5.68026">
        <ele>356</ele>
        <time>2015-04-09T17:24:59.000Z</time>
      </trkpt>
      <trkpt lat="45.18573" lon="5.68026">
        <ele>356</ele>
        <time>2015-04-09T17:25:01.000Z</time>
      </trkpt>
      <trkpt lat="45.18641" lon="5.67927">
        <ele>374</ele>
        <time>2015-04-09T17:25:07.000Z</time>
      </trkpt>
      <trkpt lat="45.18677" lon="5.67875">
        <ele>376</ele>
        <time>2015-04-09T17:25:09.000Z</time>
      </trkpt>
      <trkpt lat="45.18696" lon="5.67847">
        <ele>376</ele>
        <time>2015-04-09T17:25:11.000Z</time>
      </trkpt>
      <trkpt lat="45.18707" lon="5.67831">
        <ele>376</ele>
        <time>2015-04-09T17:25:13.000Z</time>
      </trkpt>
      <trkpt lat="45.18707" lon="5.67831">
        <ele>376</ele>
        <time>2015-04-09T17:25:15.000Z</time>
      </trkpt>
      <trkpt lat="45.18707" lon="5.67831">
        <ele>376</ele>
        <time>2015-04-09T17:25:17.000Z</time>
      </trkpt>
      <trkpt lat="45.18707" lon="5.67831">
        <ele>376</ele>
        <time>2015-04-09T17:25:19.000Z</time>
      </trkpt>
      <trkpt lat="45.18719" lon="5.67811">
        <ele>376</ele>
        <time>2015-04-09T17:25:23.000Z</time>
      </trkpt>
      <trkpt lat="45.18727" lon="5.678">
        <ele>376</ele>
        <time>2015-04-09T17:25:25.000Z</time>
      </trkpt>
      <trkpt lat="45.18732" lon="5.67791">
        <ele>377</ele>
        <time>2015-04-09T17:25:27.000Z</time>
      </trkpt>
      <trkpt lat="45.18737" lon="5.67785">
        <ele>376</ele>
        <time>2015-04-09T17:25:29.000Z</time>
      </trkpt>
      <trkpt lat="45.1874" lon="5.67779">
        <ele>376</ele>
        <time>2015-04-09T17:25:31.000Z</time>
      </trkpt>
      <trkpt lat="45.18747" lon="5.67769">
        <ele>378</ele>
        <time>2015-04-09T17:25:33.000Z</time>
      </trkpt>
      <trkpt lat="45.18755" lon="5.67759">
        <ele>376</ele>
        <time>2015-04-09T17:25:37.000Z</time>
      </trkpt>
      <trkpt lat="45.18762" lon="5.67748">
        <ele>373</ele>
        <time>2015-04-09T17:25:41.000Z</time>
      </trkpt>
      <trkpt lat="45.18774" lon="5.67741">
        <ele>373</ele>
        <time>2015-04-09T17:25:47.000Z</time>
      </trkpt>
      <trkpt lat="45.18782" lon="5.67736">
        <ele>371</ele>
        <time>2015-04-09T17:25:51.000Z</time>
      </trkpt>
      <trkpt lat="45.18793" lon="5.67727">
        <ele>372</ele>
        <time>2015-04-09T17:25:55.000Z</time>
      </trkpt>
      <trkpt lat="45.18803" lon="5.67719">
        <ele>373</ele>
        <time>2015-04-09T17:25:59.000Z</time>
      </trkpt>
      <trkpt lat="45.18814" lon="5.67711">
        <ele>372</ele>
        <time>2015-04-09T17:26:03.000Z</time>
      </trkpt>
      <trkpt lat="45.18825" lon="5.67704">
        <ele>372</ele>
        <time>2015-04-09T17:26:07.000Z</time>
      </trkpt>
      <trkpt lat="45.18834" lon="5.67697">
        <ele>372</ele>
        <time>2015-04-09T17:26:11.000Z</time>
      </trkpt>
      <trkpt lat="45.18834" lon="5.67697">
        <ele>372</ele>
        <time>2015-04-09T17:26:13.000Z</time>
      </trkpt>
      <trkpt lat="45.18834" lon="5.67697">
        <ele>372</ele>
        <time>2015-04-09T17:26:15.000Z</time>
      </trkpt>
      <trkpt lat="45.18834" lon="5.67697">
        <ele>372</ele>
        <time>2015-04-09T17:26:17.000Z</time>
      </trkpt>
      <trkpt lat="45.18834" lon="5.67697">
        <ele>372</ele>
        <time>2015-04-09T17:26:19.000Z</time>
      </trkpt>
      <trkpt lat="45.18834" lon="5.67697">
        <ele>372</ele>
        <time>2015-04-09T17:26:21.000Z</time>
      </trkpt>
      <trkpt lat="45.18834" lon="5.67697">
        <ele>372</ele>
        <time>2015-04-09T17:26:23.000Z</time>
      </trkpt>
      <trkpt lat="45.18834" lon="5.67697">
        <ele>372</ele>
        <time>2015-04-09T17:26:25.000Z</time>
      </trkpt>
      <trkpt lat="45.18834" lon="5.67697">
        <ele>372</ele>
        <time>2015-04-09T17:26:27.000Z</time>
      </trkpt>
      <trkpt lat="45.18834" lon="5.67697">
        <ele>372</ele>
        <time>2015-04-09T17:26:29.000Z</time>
      </trkpt>
      <trkpt lat="45.18834" lon="5.67697">
        <ele>372</ele>
        <time>2015-04-09T17:26:31.000Z</time>
      </trkpt>
      <trkpt lat="45.18834" lon="5.67697">
        <ele>372</ele>
        <time>2015-04-09T17:26:33.000Z</time>
      </trkpt>
      <trkpt lat="45.18885" lon="5.67695">
        <ele>373</ele>
        <time>2015-04-09T17:26:37.000Z</time>
      </trkpt>
      <trkpt lat="45.18895" lon="5.67689">
        <ele>374</ele>
        <time>2015-04-09T17:26:41.000Z</time>
      </trkpt>
      <trkpt lat="45.18906" lon="5.67681">
        <ele>370</ele>
        <time>2015-04-09T17:26:46.000Z</time>
      </trkpt>
      <trkpt lat="45.18918" lon="5.67674">
        <ele>367</ele>
        <time>2015-04-09T17:26:49.000Z</time>
      </trkpt>
      <trkpt lat="45.18931" lon="5.6767">
        <ele>364</ele>
        <time>2015-04-09T17:26:53.000Z</time>
      </trkpt>
      <trkpt lat="45.18942" lon="5.67662">
        <ele>363</ele>
        <time>2015-04-09T17:26:57.000Z</time>
      </trkpt>
      <trkpt lat="45.18952" lon="5.67654">
        <ele>364</ele>
        <time>2015-04-09T17:27:01.000Z</time>
      </trkpt>
      <trkpt lat="45.18952" lon="5.67654">
        <ele>364</ele>
        <time>2015-04-09T17:27:03.000Z</time>
      </trkpt>
      <trkpt lat="45.18952" lon="5.67654">
        <ele>364</ele>
        <time>2015-04-09T17:27:05.000Z</time>
      </trkpt>
      <trkpt lat="45.18952" lon="5.67654">
        <ele>364</ele>
        <time>2015-04-09T17:27:07.000Z</time>
      </trkpt>
      <trkpt lat="45.18952" lon="5.67654">
        <ele>364</ele>
        <time>2015-04-09T17:27:09.000Z</time>
      </trkpt>
      <trkpt lat="45.18952" lon="5.67654">
        <ele>364</ele>
        <time>2015-04-09T17:27:11.000Z</time>
      </trkpt>
      <trkpt lat="45.18952" lon="5.67654">
        <ele>364</ele>
        <time>2015-04-09T17:27:13.000Z</time>
      </trkpt>
      <trkpt lat="45.18952" lon="5.67654">
        <ele>364</ele>
        <time>2015-04-09T17:27:15.000Z</time>
      </trkpt>
      <trkpt lat="45.18952" lon="5.67654">
        <ele>364</ele>
        <time>2015-04-09T17:27:17.000Z</time>
      </trkpt>
      <trkpt lat="45.18952" lon="5.67654">
        <ele>364</ele>
        <time>2015-04-09T17:27:19.000Z</time>
      </trkpt>
      <trkpt lat="45.18952" lon="5.67654">
        <ele>364</ele>
        <time>2015-04-09T17:27:21.000Z</time>
      </trkpt>
      <trkpt lat="45.18952" lon="5.67654">
        <ele>364</ele>
        <time>2015-04-09T17:27:23.000Z</time>
      </trkpt>
      <trkpt lat="45.18952" lon="5.67654">
        <ele>364</ele>
        <time>2015-04-09T17:27:25.000Z</time>
      </trkpt>
      <trkpt lat="45.18952" lon="5.67654">
        <ele>364</ele>
        <time>2015-04-09T17:27:27.000Z</time>
      </trkpt>
      <trkpt lat="45.18952" lon="5.67654">
        <ele>364</ele>
        <time>2015-04-09T17:27:29.000Z</time>
      </trkpt>
      <trkpt lat="45.18952" lon="5.67654">
        <ele>364</ele>
        <time>2015-04-09T17:27:31.000Z</time>
      </trkpt>
      <trkpt lat="45.18952" lon="5.67654">
        <ele>364</ele>
        <time>2015-04-09T17:27:33.000Z</time>
      </trkpt>
      <trkpt lat="45.18952" lon="5.67654">
        <ele>364</ele>
        <time>2015-04-09T17:27:35.000Z</time>
      </trkpt>
      <trkpt lat="45.18952" lon="5.67654">
        <ele>364</ele>
        <time>2015-04-09T17:27:37.000Z</time>
      </trkpt>
      <trkpt lat="45.18974" lon="5.67618">
        <ele>367</ele>
        <time>2015-04-09T17:27:41.000Z</time>
      </trkpt>
      <trkpt lat="45.18985" lon="5.67598">
        <ele>361</ele>
        <time>2015-04-09T17:27:43.000Z</time>
      </trkpt>
      <trkpt lat="45.18989" lon="5.67586">
        <ele>363</ele>
        <time>2015-04-09T17:27:45.000Z</time>
      </trkpt>
      <trkpt lat="45.18989" lon="5.67586">
        <ele>363</ele>
        <time>2015-04-09T17:27:47.000Z</time>
      </trkpt>
      <trkpt lat="45.18989" lon="5.67586">
        <ele>363</ele>
        <time>2015-04-09T17:27:49.000Z</time>
      </trkpt>
      <trkpt lat="45.18989" lon="5.67586">
        <ele>363</ele>
        <time>2015-04-09T17:27:51.000Z</time>
      </trkpt>
      <trkpt lat="45.18989" lon="5.67586">
        <ele>363</ele>
        <time>2015-04-09T17:27:53.000Z</time>
      </trkpt>
      <trkpt lat="45.18989" lon="5.67586">
        <ele>363</ele>
        <time>2015-04-09T17:27:55.000Z</time>
      </trkpt>
      <trkpt lat="45.18989" lon="5.67586">
        <ele>363</ele>
        <time>2015-04-09T17:27:57.000Z</time>
      </trkpt>
      <trkpt lat="45.18992" lon="5.67566">
        <ele>375</ele>
        <time>2015-04-09T17:28:01.000Z</time>
      </trkpt>
      <trkpt lat="45.18994" lon="5.67554">
        <ele>374</ele>
        <time>2015-04-09T17:28:03.000Z</time>
      </trkpt>
      <trkpt lat="45.18994" lon="5.67546">
        <ele>376</ele>
        <time>2015-04-09T17:28:05.000Z</time>
      </trkpt>
      <trkpt lat="45.18995" lon="5.6754">
        <ele>376</ele>
        <time>2015-04-09T17:28:07.000Z</time>
      </trkpt>
      <trkpt lat="45.18996" lon="5.67532">
        <ele>378</ele>
        <time>2015-04-09T17:28:12.000Z</time>
      </trkpt>
      <trkpt lat="45.18997" lon="5.67525">
        <ele>379</ele>
        <time>2015-04-09T17:28:15.000Z</time>
      </trkpt>
      <trkpt lat="45.18998" lon="5.67517">
        <ele>379</ele>
        <time>2015-04-09T17:28:19.000Z</time>
      </trkpt>
      <trkpt lat="45.18998" lon="5.67517">
        <ele>379</ele>
        <time>2015-04-09T17:28:21.000Z</time>
      </trkpt>
      <trkpt lat="45.18998" lon="5.67517">
        <ele>379</ele>
        <time>2015-04-09T17:28:23.000Z</time>
      </trkpt>
      <trkpt lat="45.18998" lon="5.67517">
        <ele>379</ele>
        <time>2015-04-09T17:28:25.000Z</time>
      </trkpt>
      <trkpt lat="45.18998" lon="5.67517">
        <ele>379</ele>
        <time>2015-04-09T17:28:27.000Z</time>
      </trkpt>
      <trkpt lat="45.18998" lon="5.67517">
        <ele>379</ele>
        <time>2015-04-09T17:28:29.000Z</time>
      </trkpt>
      <trkpt lat="45.18998" lon="5.67517">
        <ele>379</ele>
        <time>2015-04-09T17:28:31.000Z</time>
      </trkpt>
      <trkpt lat="45.18998" lon="5.67517">
        <ele>379</ele>
        <time>2015-04-09T17:28:33.000Z</time>
      </trkpt>
      <trkpt lat="45.18998" lon="5.67517">
        <ele>379</ele>
        <time>2015-04-09T17:28:35.000Z</time>
      </trkpt>
      <trkpt lat="45.18998" lon="5.67517">
        <ele>379</ele>
        <time>2015-04-09T17:28:37.000Z</time>
      </trkpt>
      <trkpt lat="45.18992" lon="5.67505">
        <ele>385</ele>
        <time>2015-04-09T17:28:41.000Z</time>
      </trkpt>
      <trkpt lat="45.18988" lon="5.67499">
        <ele>386</ele>
        <time>2015-04-09T17:28:43.000Z</time>
      </trkpt>
      <trkpt lat="45.18983" lon="5.67496">
        <ele>387</ele>
        <time>2015-04-09T17:28:47.000Z</time>
      </trkpt>
      <trkpt lat="45.18977" lon="5.67493">
        <ele>388</ele>
        <time>2015-04-09T17:28:51.000Z</time>
      </trkpt>
      <trkpt lat="45.18972" lon="5.67491">
        <ele>390</ele>
        <time>2015-04-09T17:28:53.000Z</time>
      </trkpt>
      <trkpt lat="45.18969" lon="5.67486">
        <ele>389</ele>
        <time>2015-04-09T17:28:57.000Z</time>
      </trkpt>
      <trkpt lat="45.18969" lon="5.67486">
        <ele>389</ele>
        <time>2015-04-09T17:28:59.000Z</time>
      </trkpt>
      <trkpt lat="45.18969" lon="5.67486">
        <ele>389</ele>
        <time>2015-04-09T17:29:01.000Z</time>
      </trkpt>
      <trkpt lat="45.18969" lon="5.67486">
        <ele>389</ele>
        <time>2015-04-09T17:29:03.000Z</time>
      </trkpt>
      <trkpt lat="45.18969" lon="5.67486">
        <ele>389</ele>
        <time>2015-04-09T17:29:05.000Z</time>
      </trkpt>
      <trkpt lat="45.18969" lon="5.67486">
        <ele>389</ele>
        <time>2015-04-09T17:29:07.000Z</time>
      </trkpt>
      <trkpt lat="45.18963" lon="5.67485">
        <ele>394</ele>
        <time>2015-04-09T17:29:11.000Z</time>
      </trkpt>
      <trkpt lat="45.18958" lon="5.67484">
        <ele>394</ele>
        <time>2015-04-09T17:29:13.000Z</time>
      </trkpt>
      <trkpt lat="45.18953" lon="5.67485">
        <ele>391</ele>
        <time>2015-04-09T17:29:15.000Z</time>
      </trkpt>
      <trkpt lat="45.18953" lon="5.67485">
        <ele>391</ele>
        <time>2015-04-09T17:29:17.000Z</time>
      </trkpt>
      <trkpt lat="45.18948" lon="5.67485">
        <ele>393</ele>
        <time>2015-04-09T17:29:19.000Z</time>
      </trkpt>
      <trkpt lat="45.18948" lon="5.67485">
        <ele>393</ele>
        <time>2015-04-09T17:29:21.000Z</time>
      </trkpt>
      <trkpt lat="45.18948" lon="5.67485">
        <ele>393</ele>
        <time>2015-04-09T17:29:25.000Z</time>
      </trkpt>
      <trkpt lat="45.18948" lon="5.67485">
        <ele>393</ele>
        <time>2015-04-09T17:29:27.000Z</time>
      </trkpt>
      <trkpt lat="45.18936" lon="5.67492">
        <ele>395</ele>
        <time>2015-04-09T17:29:29.000Z</time>
      </trkpt>
      <trkpt lat="45.18927" lon="5.67495">
        <ele>395</ele>
        <time>2015-04-09T17:29:31.000Z</time>
      </trkpt>
      <trkpt lat="45.1892" lon="5.67498">
        <ele>395</ele>
        <time>2015-04-09T17:29:33.000Z</time>
      </trkpt>
      <trkpt lat="45.18915" lon="5.67501">
        <ele>395</ele>
        <time>2015-04-09T17:29:35.000Z</time>
      </trkpt>
      <trkpt lat="45.18915" lon="5.67501">
        <ele>395</ele>
        <time>2015-04-09T17:29:37.000Z</time>
      </trkpt>
      <trkpt lat="45.18915" lon="5.67501">
        <ele>395</ele>
        <time>2015-04-09T17:29:39.000Z</time>
      </trkpt>
      <trkpt lat="45.18915" lon="5.67501">
        <ele>395</ele>
        <time>2015-04-09T17:29:41.000Z</time>
      </trkpt>
      <trkpt lat="45.18903" lon="5.6751">
        <ele>400</ele>
        <time>2015-04-09T17:29:45.000Z</time>
      </trkpt>
      <trkpt lat="45.18893" lon="5.67515">
        <ele>399</ele>
        <time>2015-04-09T17:29:47.000Z</time>
      </trkpt>
      <trkpt lat="45.18887" lon="5.67519">
        <ele>399</ele>
        <time>2015-04-09T17:29:49.000Z</time>
      </trkpt>
      <trkpt lat="45.18881" lon="5.67521">
        <ele>399</ele>
        <time>2015-04-09T17:29:51.000Z</time>
      </trkpt>
      <trkpt lat="45.18876" lon="5.67523">
        <ele>399</ele>
        <time>2015-04-09T17:29:53.000Z</time>
      </trkpt>
      <trkpt lat="45.18865" lon="5.67529">
        <ele>398</ele>
        <time>2015-04-09T17:29:55.000Z</time>
      </trkpt>
      <trkpt lat="45.18865" lon="5.67529">
        <ele>398</ele>
        <time>2015-04-09T17:29:57.000Z</time>
      </trkpt>
      <trkpt lat="45.18865" lon="5.67529">
        <ele>398</ele>
        <time>2015-04-09T17:29:59.000Z</time>
      </trkpt>
      <trkpt lat="45.18841" lon="5.6754">
        <ele>397</ele>
        <time>2015-04-09T17:30:05.000Z</time>
      </trkpt>
      <trkpt lat="45.1883" lon="5.6754">
        <ele>395</ele>
        <time>2015-04-09T17:30:09.000Z</time>
      </trkpt>
      <trkpt lat="45.1883" lon="5.6754">
        <ele>395</ele>
        <time>2015-04-09T17:30:13.000Z</time>
      </trkpt>
      <trkpt lat="45.1883" lon="5.6754">
        <ele>395</ele>
        <time>2015-04-09T17:30:15.000Z</time>
      </trkpt>
      <trkpt lat="45.1883" lon="5.6754">
        <ele>395</ele>
        <time>2015-04-09T17:30:17.000Z</time>
      </trkpt>
      <trkpt lat="45.1883" lon="5.6754">
        <ele>395</ele>
        <time>2015-04-09T17:30:19.000Z</time>
      </trkpt>
      <trkpt lat="45.1883" lon="5.6754">
        <ele>395</ele>
        <time>2015-04-09T17:30:21.000Z</time>
      </trkpt>
      <trkpt lat="45.1883" lon="5.6754">
        <ele>395</ele>
        <time>2015-04-09T17:30:23.000Z</time>
      </trkpt>
      <trkpt lat="45.1883" lon="5.6754">
        <ele>395</ele>
        <time>2015-04-09T17:30:25.000Z</time>
      </trkpt>
      <trkpt lat="45.1883" lon="5.6754">
        <ele>395</ele>
        <time>2015-04-09T17:30:27.000Z</time>
      </trkpt>
      <trkpt lat="45.1883" lon="5.6754">
        <ele>395</ele>
        <time>2015-04-09T17:30:29.000Z</time>
      </trkpt>
      <trkpt lat="45.1883" lon="5.6754">
        <ele>395</ele>
        <time>2015-04-09T17:30:31.000Z</time>
      </trkpt>
      <trkpt lat="45.1883" lon="5.6754">
        <ele>395</ele>
        <time>2015-04-09T17:30:33.000Z</time>
      </trkpt>
      <trkpt lat="45.1883" lon="5.6754">
        <ele>395</ele>
        <time>2015-04-09T17:30:35.000Z</time>
      </trkpt>
      <trkpt lat="45.1883" lon="5.6754">
        <ele>395</ele>
        <time>2015-04-09T17:30:37.000Z</time>
      </trkpt>
      <trkpt lat="45.1883" lon="5.6754">
        <ele>395</ele>
        <time>2015-04-09T17:30:39.000Z</time>
      </trkpt>
      <trkpt lat="45.18776" lon="5.67513">
        <ele>401</ele>
        <time>2015-04-09T17:30:41.000Z</time>
      </trkpt>
      <trkpt lat="45.18768" lon="5.675">
        <ele>401</ele>
        <time>2015-04-09T17:30:47.000Z</time>
      </trkpt>
      <trkpt lat="45.18762" lon="5.67486">
        <ele>400</ele>
        <time>2015-04-09T17:30:53.000Z</time>
      </trkpt>
      <trkpt lat="45.18762" lon="5.67486">
        <ele>400</ele>
        <time>2015-04-09T17:30:55.000Z</time>
      </trkpt>
      <trkpt lat="45.18762" lon="5.67486">
        <ele>400</ele>
        <time>2015-04-09T17:30:57.000Z</time>
      </trkpt>
      <trkpt lat="45.18762" lon="5.67486">
        <ele>400</ele>
        <time>2015-04-09T17:30:59.000Z</time>
      </trkpt>
      <trkpt lat="45.18762" lon="5.67486">
        <ele>400</ele>
        <time>2015-04-09T17:31:01.000Z</time>
      </trkpt>
      <trkpt lat="45.18762" lon="5.67486">
        <ele>400</ele>
        <time>2015-04-09T17:31:03.000Z</time>
      </trkpt>
      <trkpt lat="45.18762" lon="5.67486">
        <ele>400</ele>
        <time>2015-04-09T17:31:05.000Z</time>
      </trkpt>
      <trkpt lat="45.18762" lon="5.67486">
        <ele>400</ele>
        <time>2015-04-09T17:31:07.000Z</time>
      </trkpt>
      <trkpt lat="45.18762" lon="5.67486">
        <ele>400</ele>
        <time>2015-04-09T17:31:09.000Z</time>
      </trkpt>
      <trkpt lat="45.18763" lon="5.67472">
        <ele>405</ele>
        <time>2015-04-09T17:31:13.000Z</time>
      </trkpt>
      <trkpt lat="45.18765" lon="5.67463">
        <ele>405</ele>
        <time>2015-04-09T17:31:15.000Z</time>
      </trkpt>
      <trkpt lat="45.18766" lon="5.67457">
        <ele>406</ele>
        <time>2015-04-09T17:31:17.000Z</time>
      </trkpt>
      <trkpt lat="45.18766" lon="5.67457">
        <ele>406</ele>
        <time>2015-04-09T17:31:19.000Z</time>
      </trkpt>
      <trkpt lat="45.18766" lon="5.67457">
        <ele>406</ele>
        <time>2015-04-09T17:31:21.000Z</time>
      </trkpt>
      <trkpt lat="45.18766" lon="5.67457">
        <ele>406</ele>
        <time>2015-04-09T17:31:23.000Z</time>
      </trkpt>
      <trkpt lat="45.18772" lon="5.67444">
        <ele>407</ele>
        <time>2015-04-09T17:31:27.000Z</time>
      </trkpt>
      <trkpt lat="45.18775" lon="5.67435">
        <ele>407</ele>
        <time>2015-04-09T17:31:29.000Z</time>
      </trkpt>
      <trkpt lat="45.18777" lon="5.67428">
        <ele>407</ele>
        <time>2015-04-09T17:31:31.000Z</time>
      </trkpt>
      <trkpt lat="45.18779" lon="5.67422">
        <ele>406</ele>
        <time>2015-04-09T17:31:33.000Z</time>
      </trkpt>
      <trkpt lat="45.18781" lon="5.67416">
        <ele>404</ele>
        <time>2015-04-09T17:31:35.000Z</time>
      </trkpt>
      <trkpt lat="45.18787" lon="5.674">
        <ele>405</ele>
        <time>2015-04-09T17:31:39.000Z</time>
      </trkpt>
      <trkpt lat="45.18793" lon="5.67387">
        <ele>405</ele>
        <time>2015-04-09T17:31:45.000Z</time>
      </trkpt>
      <trkpt lat="45.18793" lon="5.67387">
        <ele>405</ele>
        <time>2015-04-09T17:31:51.000Z</time>
      </trkpt>
      <trkpt lat="45.18793" lon="5.67387">
        <ele>405</ele>
        <time>2015-04-09T17:31:53.000Z</time>
      </trkpt>
      <trkpt lat="45.18793" lon="5.67387">
        <ele>405</ele>
        <time>2015-04-09T17:31:55.000Z</time>
      </trkpt>
      <trkpt lat="45.18793" lon="5.67387">
        <ele>405</ele>
        <time>2015-04-09T17:31:57.000Z</time>
      </trkpt>
      <trkpt lat="45.18793" lon="5.67387">
        <ele>405</ele>
        <time>2015-04-09T17:31:59.000Z</time>
      </trkpt>
      <trkpt lat="45.18793" lon="5.67387">
        <ele>405</ele>
        <time>2015-04-09T17:32:01.000Z</time>
      </trkpt>
      <trkpt lat="45.18793" lon="5.67387">
        <ele>405</ele>
        <time>2015-04-09T17:32:03.000Z</time>
      </trkpt>
      <trkpt lat="45.18793" lon="5.67387">
        <ele>405</ele>
        <time>2015-04-09T17:32:05.000Z</time>
      </trkpt>
      <trkpt lat="45.18793" lon="5.67387">
        <ele>405</ele>
        <time>2015-04-09T17:32:07.000Z</time>
      </trkpt>
      <trkpt lat="45.18793" lon="5.67387">
        <ele>405</ele>
        <time>2015-04-09T17:32:09.000Z</time>
      </trkpt>
      <trkpt lat="45.18793" lon="5.67387">
        <ele>405</ele>
        <time>2015-04-09T17:32:11.000Z</time>
      </trkpt>
      <trkpt lat="45.18793" lon="5.67387">
        <ele>405</ele>
        <time>2015-04-09T17:32:14.000Z</time>
      </trkpt>
      <trkpt lat="45.18845" lon="5.67347">
        <ele>416</ele>
        <time>2015-04-09T17:32:17.000Z</time>
      </trkpt>
      <trkpt lat="45.18853" lon="5.67339">
        <ele>417</ele>
        <time>2015-04-09T17:32:21.000Z</time>
      </trkpt>
      <trkpt lat="45.18865" lon="5.67329">
        <ele>416</ele>
        <time>2015-04-09T17:32:27.000Z</time>
      </trkpt>
      <trkpt lat="45.18865" lon="5.67329">
        <ele>416</ele>
        <time>2015-04-09T17:32:29.000Z</time>
      </trkpt>
      <trkpt lat="45.18865" lon="5.67329">
        <ele>416</ele>
        <time>2015-04-09T17:32:31.000Z</time>
      </trkpt>
      <trkpt lat="45.18865" lon="5.67329">
        <ele>416</ele>
        <time>2015-04-09T17:32:33.000Z</time>
      </trkpt>
      <trkpt lat="45.18882" lon="5.67318">
        <ele>415</ele>
        <time>2015-04-09T17:32:35.000Z</time>
      </trkpt>
      <trkpt lat="45.1889" lon="5.67311">
        <ele>416</ele>
        <time>2015-04-09T17:32:39.000Z</time>
      </trkpt>
      <trkpt lat="45.1889" lon="5.67311">
        <ele>416</ele>
        <time>2015-04-09T17:32:41.000Z</time>
      </trkpt>
      <trkpt lat="45.1889" lon="5.67311">
        <ele>416</ele>
        <time>2015-04-09T17:32:43.000Z</time>
      </trkpt>
      <trkpt lat="45.1889" lon="5.67311">
        <ele>416</ele>
        <time>2015-04-09T17:32:45.000Z</time>
      </trkpt>
      <trkpt lat="45.1889" lon="5.67311">
        <ele>416</ele>
        <time>2015-04-09T17:32:47.000Z</time>
      </trkpt>
      <trkpt lat="45.1889" lon="5.67311">
        <ele>416</ele>
        <time>2015-04-09T17:32:49.000Z</time>
      </trkpt>
      <trkpt lat="45.189" lon="5.673">
        <ele>420</ele>
        <time>2015-04-09T17:32:55.000Z</time>
      </trkpt>
      <trkpt lat="45.18906" lon="5.67293">
        <ele>423</ele>
        <time>2015-04-09T17:32:57.000Z</time>
      </trkpt>
      <trkpt lat="45.1891" lon="5.67289">
        <ele>428</ele>
        <time>2015-04-09T17:32:59.000Z</time>
      </trkpt>
      <trkpt lat="45.18914" lon="5.67285">
        <ele>428</ele>
        <time>2015-04-09T17:33:01.000Z</time>
      </trkpt>
      <trkpt lat="45.18919" lon="5.6728">
        <ele>431</ele>
        <time>2015-04-09T17:33:05.000Z</time>
      </trkpt>
      <trkpt lat="45.18922" lon="5.67276">
        <ele>430</ele>
        <time>2015-04-09T17:33:07.000Z</time>
      </trkpt>
      <trkpt lat="45.18922" lon="5.67276">
        <ele>430</ele>
        <time>2015-04-09T17:33:11.000Z</time>
      </trkpt>
      <trkpt lat="45.18922" lon="5.67276">
        <ele>430</ele>
        <time>2015-04-09T17:33:13.000Z</time>
      </trkpt>
      <trkpt lat="45.18922" lon="5.67276">
        <ele>430</ele>
        <time>2015-04-09T17:33:15.000Z</time>
      </trkpt>
      <trkpt lat="45.18922" lon="5.67276">
        <ele>430</ele>
        <time>2015-04-09T17:33:17.000Z</time>
      </trkpt>
      <trkpt lat="45.18922" lon="5.67276">
        <ele>430</ele>
        <time>2015-04-09T17:33:19.000Z</time>
      </trkpt>
      <trkpt lat="45.18922" lon="5.67276">
        <ele>430</ele>
        <time>2015-04-09T17:33:21.000Z</time>
      </trkpt>
      <trkpt lat="45.18935" lon="5.67265">
        <ele>429</ele>
        <time>2015-04-09T17:33:25.000Z</time>
      </trkpt>
      <trkpt lat="45.18944" lon="5.67256">
        <ele>427</ele>
        <time>2015-04-09T17:33:27.000Z</time>
      </trkpt>
      <trkpt lat="45.1895" lon="5.6725">
        <ele>428</ele>
        <time>2015-04-09T17:33:29.000Z</time>
      </trkpt>
      <trkpt lat="45.18954" lon="5.67244">
        <ele>427</ele>
        <time>2015-04-09T17:33:31.000Z</time>
      </trkpt>
      <trkpt lat="45.18956" lon="5.67238">
        <ele>428</ele>
        <time>2015-04-09T17:33:33.000Z</time>
      </trkpt>
      <trkpt lat="45.18956" lon="5.67238">
        <ele>428</ele>
        <time>2015-04-09T17:33:35.000Z</time>
      </trkpt>
      <trkpt lat="45.18956" lon="5.67238">
        <ele>428</ele>
        <time>2015-04-09T17:33:37.000Z</time>
      </trkpt>
      <trkpt lat="45.18956" lon="5.67238">
        <ele>428</ele>
        <time>2015-04-09T17:33:39.000Z</time>
      </trkpt>
      <trkpt lat="45.18956" lon="5.67238">
        <ele>428</ele>
        <time>2015-04-09T17:33:41.000Z</time>
      </trkpt>
      <trkpt lat="45.18965" lon="5.6722">
        <ele>426</ele>
        <time>2015-04-09T17:33:45.000Z</time>
      </trkpt>
      <trkpt lat="45.18969" lon="5.67209">
        <ele>426</ele>
        <time>2015-04-09T17:33:49.000Z</time>
      </trkpt>
      <trkpt lat="45.18975" lon="5.67192">
        <ele>424</ele>
        <time>2015-04-09T17:33:55.000Z</time>
      </trkpt>
      <trkpt lat="45.18977" lon="5.6718">
        <ele>425</ele>
        <time>2015-04-09T17:33:59.000Z</time>
      </trkpt>
      <trkpt lat="45.18977" lon="5.6718">
        <ele>425</ele>
        <time>2015-04-09T17:34:01.000Z</time>
      </trkpt>
      <trkpt lat="45.18979" lon="5.67166">
        <ele>423</ele>
        <time>2015-04-09T17:34:03.000Z</time>
      </trkpt>
      <trkpt lat="45.18979" lon="5.67166">
        <ele>423</ele>
        <time>2015-04-09T17:34:05.000Z</time>
      </trkpt>
      <trkpt lat="45.18979" lon="5.67166">
        <ele>423</ele>
        <time>2015-04-09T17:34:07.000Z</time>
      </trkpt>
      <trkpt lat="45.18979" lon="5.67166">
        <ele>423</ele>
        <time>2015-04-09T17:34:09.000Z</time>
      </trkpt>
      <trkpt lat="45.18979" lon="5.67166">
        <ele>423</ele>
        <time>2015-04-09T17:34:11.000Z</time>
      </trkpt>
      <trkpt lat="45.18979" lon="5.67166">
        <ele>423</ele>
        <time>2015-04-09T17:34:13.000Z</time>
      </trkpt>
      <trkpt lat="45.18979" lon="5.67166">
        <ele>423</ele>
        <time>2015-04-09T17:34:15.000Z</time>
      </trkpt>
      <trkpt lat="45.18979" lon="5.67166">
        <ele>423</ele>
        <time>2015-04-09T17:34:17.000Z</time>
      </trkpt>
      <trkpt lat="45.18979" lon="5.67166">
        <ele>423</ele>
        <time>2015-04-09T17:34:19.000Z</time>
      </trkpt>
      <trkpt lat="45.19011" lon="5.67113">
        <ele>433</ele>
        <time>2015-04-09T17:34:25.000Z</time>
      </trkpt>
      <trkpt lat="45.19015" lon="5.671">
        <ele>429</ele>
        <time>2015-04-09T17:34:29.000Z</time>
      </trkpt>
      <trkpt lat="45.19021" lon="5.67084">
        <ele>426</ele>
        <time>2015-04-09T17:34:33.000Z</time>
      </trkpt>
      <trkpt lat="45.19028" lon="5.6707">
        <ele>426</ele>
        <time>2015-04-09T17:34:37.000Z</time>
      </trkpt>
      <trkpt lat="45.19028" lon="5.6707">
        <ele>426</ele>
        <time>2015-04-09T17:34:39.000Z</time>
      </trkpt>
      <trkpt lat="45.19028" lon="5.6707">
        <ele>426</ele>
        <time>2015-04-09T17:34:41.000Z</time>
      </trkpt>
      <trkpt lat="45.19028" lon="5.6707">
        <ele>426</ele>
        <time>2015-04-09T17:34:43.000Z</time>
      </trkpt>
      <trkpt lat="45.19028" lon="5.6707">
        <ele>426</ele>
        <time>2015-04-09T17:34:45.000Z</time>
      </trkpt>
      <trkpt lat="45.19028" lon="5.6707">
        <ele>426</ele>
        <time>2015-04-09T17:34:47.000Z</time>
      </trkpt>
      <trkpt lat="45.19028" lon="5.6707">
        <ele>426</ele>
        <time>2015-04-09T17:34:49.000Z</time>
      </trkpt>
      <trkpt lat="45.19028" lon="5.6707">
        <ele>426</ele>
        <time>2015-04-09T17:34:51.000Z</time>
      </trkpt>
      <trkpt lat="45.19028" lon="5.6707">
        <ele>426</ele>
        <time>2015-04-09T17:34:53.000Z</time>
      </trkpt>
      <trkpt lat="45.19028" lon="5.6707">
        <ele>426</ele>
        <time>2015-04-09T17:34:55.000Z</time>
      </trkpt>
      <trkpt lat="45.19034" lon="5.67052">
        <ele>417</ele>
        <time>2015-04-09T17:35:03.000Z</time>
      </trkpt>
      <trkpt lat="45.19038" lon="5.67039">
        <ele>415</ele>
        <time>2015-04-09T17:35:05.000Z</time>
      </trkpt>
      <trkpt lat="45.1904" lon="5.6703">
        <ele>415</ele>
        <time>2015-04-09T17:35:07.000Z</time>
      </trkpt>
      <trkpt lat="45.19041" lon="5.67022">
        <ele>415</ele>
        <time>2015-04-09T17:35:09.000Z</time>
      </trkpt>
      <trkpt lat="45.19041" lon="5.67022">
        <ele>415</ele>
        <time>2015-04-09T17:35:11.000Z</time>
      </trkpt>
      <trkpt lat="45.19043" lon="5.67014">
        <ele>418</ele>
        <time>2015-04-09T17:35:13.000Z</time>
      </trkpt>
      <trkpt lat="45.19043" lon="5.67014">
        <ele>418</ele>
        <time>2015-04-09T17:35:15.000Z</time>
      </trkpt>
      <trkpt lat="45.19043" lon="5.67014">
        <ele>418</ele>
        <time>2015-04-09T17:35:17.000Z</time>
      </trkpt>
      <trkpt lat="45.19043" lon="5.67014">
        <ele>418</ele>
        <time>2015-04-09T17:35:19.000Z</time>
      </trkpt>
      <trkpt lat="45.19043" lon="5.67014">
        <ele>418</ele>
        <time>2015-04-09T17:35:21.000Z</time>
      </trkpt>
      <trkpt lat="45.19043" lon="5.67014">
        <ele>418</ele>
        <time>2015-04-09T17:35:24.000Z</time>
      </trkpt>
      <trkpt lat="45.19043" lon="5.67014">
        <ele>418</ele>
        <time>2015-04-09T17:35:25.000Z</time>
      </trkpt>
      <trkpt lat="45.19043" lon="5.67014">
        <ele>418</ele>
        <time>2015-04-09T17:35:27.000Z</time>
      </trkpt>
      <trkpt lat="45.19043" lon="5.67014">
        <ele>418</ele>
        <time>2015-04-09T17:35:29.000Z</time>
      </trkpt>
      <trkpt lat="45.19043" lon="5.67014">
        <ele>418</ele>
        <time>2015-04-09T17:35:31.000Z</time>
      </trkpt>
      <trkpt lat="45.19043" lon="5.67014">
        <ele>418</ele>
        <time>2015-04-09T17:35:33.000Z</time>
      </trkpt>
      <trkpt lat="45.19043" lon="5.67014">
        <ele>418</ele>
        <time>2015-04-09T17:35:35.000Z</time>
      </trkpt>
      <trkpt lat="45.19038" lon="5.66997">
        <ele>429</ele>
        <time>2015-04-09T17:35:39.000Z</time>
      </trkpt>
      <trkpt lat="45.19033" lon="5.6699">
        <ele>430</ele>
        <time>2015-04-09T17:35:41.000Z</time>
      </trkpt>
      <trkpt lat="45.19029" lon="5.66987">
        <ele>431</ele>
        <time>2015-04-09T17:35:45.000Z</time>
      </trkpt>
      <trkpt lat="45.19024" lon="5.66986">
        <ele>433</ele>
        <time>2015-04-09T17:35:49.000Z</time>
      </trkpt>
      <trkpt lat="45.19019" lon="5.66986">
        <ele>433</ele>
        <time>2015-04-09T17:35:53.000Z</time>
      </trkpt>
      <trkpt lat="45.19014" lon="5.66987">
        <ele>433</ele>
        <time>2015-04-09T17:35:57.000Z</time>
      </trkpt>
      <trkpt lat="45.19014" lon="5.66987">
        <ele>433</ele>
        <time>2015-04-09T17:35:59.000Z</time>
      </trkpt>
      <trkpt lat="45.19014" lon="5.66987">
        <ele>433</ele>
        <time>2015-04-09T17:36:01.000Z</time>
      </trkpt>
      <trkpt lat="45.19014" lon="5.66987">
        <ele>433</ele>
        <time>2015-04-09T17:36:03.000Z</time>
      </trkpt>
      <trkpt lat="45.19014" lon="5.66987">
        <ele>433</ele>
        <time>2015-04-09T17:36:05.000Z</time>
      </trkpt>
      <trkpt lat="45.19014" lon="5.66987">
        <ele>433</ele>
        <time>2015-04-09T17:36:07.000Z</time>
      </trkpt>
      <trkpt lat="45.19003" lon="5.66991">
        <ele>438</ele>
        <time>2015-04-09T17:36:11.000Z</time>
      </trkpt>
      <trkpt lat="45.18995" lon="5.66994">
        <ele>439</ele>
        <time>2015-04-09T17:36:13.000Z</time>
      </trkpt>
      <trkpt lat="45.1899" lon="5.66996">
        <ele>439</ele>
        <time>2015-04-09T17:36:15.000Z</time>
      </trkpt>
      <trkpt lat="45.18985" lon="5.66998">
        <ele>439</ele>
        <time>2015-04-09T17:36:17.000Z</time>
      </trkpt>
      <trkpt lat="45.1898" lon="5.67">
        <ele>440</ele>
        <time>2015-04-09T17:36:19.000Z</time>
      </trkpt>
      <trkpt lat="45.1897" lon="5.67008">
        <ele>445</ele>
        <time>2015-04-09T17:36:23.000Z</time>
      </trkpt>
      <trkpt lat="45.1897" lon="5.67008">
        <ele>445</ele>
        <time>2015-04-09T17:36:25.000Z</time>
      </trkpt>
      <trkpt lat="45.1897" lon="5.67008">
        <ele>445</ele>
        <time>2015-04-09T17:36:27.000Z</time>
      </trkpt>
      <trkpt lat="45.1897" lon="5.67008">
        <ele>445</ele>
        <time>2015-04-09T17:36:29.000Z</time>
      </trkpt>
      <trkpt lat="45.1897" lon="5.67008">
        <ele>445</ele>
        <time>2015-04-09T17:36:31.000Z</time>
      </trkpt>
      <trkpt lat="45.1897" lon="5.67008">
        <ele>445</ele>
        <time>2015-04-09T17:36:33.000Z</time>
      </trkpt>
      <trkpt lat="45.1897" lon="5.67008">
        <ele>445</ele>
        <time>2015-04-09T17:36:35.000Z</time>
      </trkpt>
      <trkpt lat="45.1897" lon="5.67008">
        <ele>445</ele>
        <time>2015-04-09T17:36:37.000Z</time>
      </trkpt>
      <trkpt lat="45.1897" lon="5.67008">
        <ele>445</ele>
        <time>2015-04-09T17:36:39.000Z</time>
      </trkpt>
      <trkpt lat="45.1897" lon="5.67008">
        <ele>445</ele>
        <time>2015-04-09T17:36:41.000Z</time>
      </trkpt>
      <trkpt lat="45.1897" lon="5.67008">
        <ele>445</ele>
        <time>2015-04-09T17:36:43.000Z</time>
      </trkpt>
      <trkpt lat="45.1897" lon="5.67008">
        <ele>445</ele>
        <time>2015-04-09T17:36:45.000Z</time>
      </trkpt>
      <trkpt lat="45.1897" lon="5.67008">
        <ele>445</ele>
        <time>2015-04-09T17:36:47.000Z</time>
      </trkpt>
      <trkpt lat="45.18936" lon="5.67066">
        <ele>453</ele>
        <time>2015-04-09T17:36:55.000Z</time>
      </trkpt>
      <trkpt lat="45.18936" lon="5.67066">
        <ele>453</ele>
        <time>2015-04-09T17:36:57.000Z</time>
      </trkpt>
      <trkpt lat="45.18936" lon="5.67066">
        <ele>453</ele>
        <time>2015-04-09T17:36:59.000Z</time>
      </trkpt>
      <trkpt lat="45.18936" lon="5.67066">
        <ele>453</ele>
        <time>2015-04-09T17:37:01.000Z</time>
      </trkpt>
      <trkpt lat="45.18918" lon="5.67087">
        <ele>451</ele>
        <time>2015-04-09T17:37:11.000Z</time>
      </trkpt>
      <trkpt lat="45.18907" lon="5.67093">
        <ele>452</ele>
        <time>2015-04-09T17:37:17.000Z</time>
      </trkpt>
      <trkpt lat="45.18898" lon="5.67099">
        <ele>456</ele>
        <time>2015-04-09T17:37:23.000Z</time>
      </trkpt>
      <trkpt lat="45.18898" lon="5.67099">
        <ele>456</ele>
        <time>2015-04-09T17:37:25.000Z</time>
      </trkpt>
      <trkpt lat="45.18898" lon="5.67099">
        <ele>456</ele>
        <time>2015-04-09T17:37:27.000Z</time>
      </trkpt>
      <trkpt lat="45.18898" lon="5.67099">
        <ele>456</ele>
        <time>2015-04-09T17:37:35.000Z</time>
      </trkpt>
      <trkpt lat="45.18898" lon="5.67099">
        <ele>456</ele>
        <time>2015-04-09T17:37:37.000Z</time>
      </trkpt>
      <trkpt lat="45.18886" lon="5.67101">
        <ele>460</ele>
        <time>2015-04-09T17:37:43.000Z</time>
      </trkpt>
      <trkpt lat="45.18879" lon="5.67103">
        <ele>460</ele>
        <time>2015-04-09T17:37:45.000Z</time>
      </trkpt>
      <trkpt lat="45.18874" lon="5.67104">
        <ele>461</ele>
        <time>2015-04-09T17:37:47.000Z</time>
      </trkpt>
      <trkpt lat="45.18868" lon="5.67104">
        <ele>460</ele>
        <time>2015-04-09T17:37:49.000Z</time>
      </trkpt>
      <trkpt lat="45.18863" lon="5.67104">
        <ele>460</ele>
        <time>2015-04-09T17:37:51.000Z</time>
      </trkpt>
      <trkpt lat="45.18852" lon="5.67102">
        <ele>458</ele>
        <time>2015-04-09T17:37:53.000Z</time>
      </trkpt>
      <trkpt lat="45.18841" lon="5.671">
        <ele>460</ele>
        <time>2015-04-09T17:37:59.000Z</time>
      </trkpt>
      <trkpt lat="45.18841" lon="5.671">
        <ele>460</ele>
        <time>2015-04-09T17:38:01.000Z</time>
      </trkpt>
      <trkpt lat="45.18832" lon="5.67101">
        <ele>461</ele>
        <time>2015-04-09T17:38:03.000Z</time>
      </trkpt>
      <trkpt lat="45.18821" lon="5.67098">
        <ele>462</ele>
        <time>2015-04-09T17:38:09.000Z</time>
      </trkpt>
      <trkpt lat="45.18808" lon="5.67097">
        <ele>460</ele>
        <time>2015-04-09T17:38:15.000Z</time>
      </trkpt>
      <trkpt lat="45.18808" lon="5.67097">
        <ele>460</ele>
        <time>2015-04-09T17:38:19.000Z</time>
      </trkpt>
      <trkpt lat="45.18808" lon="5.67097">
        <ele>460</ele>
        <time>2015-04-09T17:38:21.000Z</time>
      </trkpt>
      <trkpt lat="45.18808" lon="5.67097">
        <ele>460</ele>
        <time>2015-04-09T17:38:23.000Z</time>
      </trkpt>
      <trkpt lat="45.18808" lon="5.67097">
        <ele>460</ele>
        <time>2015-04-09T17:38:25.000Z</time>
      </trkpt>
      <trkpt lat="45.18808" lon="5.67097">
        <ele>460</ele>
        <time>2015-04-09T17:38:27.000Z</time>
      </trkpt>
      <trkpt lat="45.18779" lon="5.67079">
        <ele>469</ele>
        <time>2015-04-09T17:38:33.000Z</time>
      </trkpt>
      <trkpt lat="45.1877" lon="5.67081">
        <ele>466</ele>
        <time>2015-04-09T17:38:37.000Z</time>
      </trkpt>
      <trkpt lat="45.18758" lon="5.6708">
        <ele>465</ele>
        <time>2015-04-09T17:38:43.000Z</time>
      </trkpt>
      <trkpt lat="45.18758" lon="5.6708">
        <ele>465</ele>
        <time>2015-04-09T17:38:45.000Z</time>
      </trkpt>
      <trkpt lat="45.18758" lon="5.6708">
        <ele>465</ele>
        <time>2015-04-09T17:38:47.000Z</time>
      </trkpt>
      <trkpt lat="45.18758" lon="5.6708">
        <ele>465</ele>
        <time>2015-04-09T17:38:49.000Z</time>
      </trkpt>
      <trkpt lat="45.18737" lon="5.6707">
        <ele>471</ele>
        <time>2015-04-09T17:38:55.000Z</time>
      </trkpt>
      <trkpt lat="45.18733" lon="5.67056">
        <ele>470</ele>
        <time>2015-04-09T17:39:01.000Z</time>
      </trkpt>
      <trkpt lat="45.18729" lon="5.67044">
        <ele>461</ele>
        <time>2015-04-09T17:39:05.000Z</time>
      </trkpt>
      <trkpt lat="45.18724" lon="5.67027">
        <ele>462</ele>
        <time>2015-04-09T17:39:11.000Z</time>
      </trkpt>
      <trkpt lat="45.18724" lon="5.67027">
        <ele>462</ele>
        <time>2015-04-09T17:39:15.000Z</time>
      </trkpt>
      <trkpt lat="45.18724" lon="5.67027">
        <ele>462</ele>
        <time>2015-04-09T17:39:17.000Z</time>
      </trkpt>
      <trkpt lat="45.18724" lon="5.67027">
        <ele>462</ele>
        <time>2015-04-09T17:39:19.000Z</time>
      </trkpt>
      <trkpt lat="45.18725" lon="5.67007">
        <ele>461</ele>
        <time>2015-04-09T17:39:25.000Z</time>
      </trkpt>
      <trkpt lat="45.18726" lon="5.66995">
        <ele>460</ele>
        <time>2015-04-09T17:39:27.000Z</time>
      </trkpt>
      <trkpt lat="45.18727" lon="5.66986">
        <ele>459</ele>
        <time>2015-04-09T17:39:29.000Z</time>
      </trkpt>
      <trkpt lat="45.18727" lon="5.66978">
        <ele>457</ele>
        <time>2015-04-09T17:39:31.000Z</time>
      </trkpt>
      <trkpt lat="45.18728" lon="5.6697">
        <ele>458</ele>
        <time>2015-04-09T17:39:33.000Z</time>
      </trkpt>
      <trkpt lat="45.18734" lon="5.66957">
        <ele>457</ele>
        <time>2015-04-09T17:39:37.000Z</time>
      </trkpt>
      <trkpt lat="45.18734" lon="5.66957">
        <ele>457</ele>
        <time>2015-04-09T17:39:39.000Z</time>
      </trkpt>
      <trkpt lat="45.18734" lon="5.66957">
        <ele>457</ele>
        <time>2015-04-09T17:39:41.000Z</time>
      </trkpt>
      <trkpt lat="45.18734" lon="5.66957">
        <ele>457</ele>
        <time>2015-04-09T17:39:43.000Z</time>
      </trkpt>
      <trkpt lat="45.18754" lon="5.66957">
        <ele>455</ele>
        <time>2015-04-09T17:39:47.000Z</time>
      </trkpt>
      <trkpt lat="45.18754" lon="5.66957">
        <ele>455</ele>
        <time>2015-04-09T17:39:51.000Z</time>
      </trkpt>
      <trkpt lat="45.18754" lon="5.66957">
        <ele>455</ele>
        <time>2015-04-09T17:39:53.000Z</time>
      </trkpt>
      <trkpt lat="45.18754" lon="5.66957">
        <ele>455</ele>
        <time>2015-04-09T17:39:55.000Z</time>
      </trkpt>
      <trkpt lat="45.18754" lon="5.66957">
        <ele>455</ele>
        <time>2015-04-09T17:39:57.000Z</time>
      </trkpt>
      <trkpt lat="45.18754" lon="5.66957">
        <ele>455</ele>
        <time>2015-04-09T17:39:59.000Z</time>
      </trkpt>
      <trkpt lat="45.18754" lon="5.66957">
        <ele>455</ele>
        <time>2015-04-09T17:40:01.000Z</time>
      </trkpt>
      <trkpt lat="45.18754" lon="5.66957">
        <ele>455</ele>
        <time>2015-04-09T17:40:09.000Z</time>
      </trkpt>
      <trkpt lat="45.18756" lon="5.6692">
        <ele>453</ele>
        <time>2015-04-09T17:40:27.000Z</time>
      </trkpt>
      <trkpt lat="45.18756" lon="5.66907">
        <ele>454</ele>
        <time>2015-04-09T17:40:31.000Z</time>
      </trkpt>
      <trkpt lat="45.18756" lon="5.66907">
        <ele>454</ele>
        <time>2015-04-09T17:40:35.000Z</time>
      </trkpt>
      <trkpt lat="45.18756" lon="5.66907">
        <ele>454</ele>
        <time>2015-04-09T17:40:37.000Z</time>
      </trkpt>
      <trkpt lat="45.18756" lon="5.66907">
        <ele>454</ele>
        <time>2015-04-09T17:40:39.000Z</time>
      </trkpt>
      <trkpt lat="45.18757" lon="5.6689">
        <ele>453</ele>
        <time>2015-04-09T17:40:45.000Z</time>
      </trkpt>
      <trkpt lat="45.18757" lon="5.66877">
        <ele>451</ele>
        <time>2015-04-09T17:40:47.000Z</time>
      </trkpt>
      <trkpt lat="45.18758" lon="5.66868">
        <ele>450</ele>
        <time>2015-04-09T17:40:49.000Z</time>
      </trkpt>
      <trkpt lat="45.1876" lon="5.6686">
        <ele>450</ele>
        <time>2015-04-09T17:40:51.000Z</time>
      </trkpt>
      <trkpt lat="45.18762" lon="5.66853">
        <ele>449</ele>
        <time>2015-04-09T17:40:53.000Z</time>
      </trkpt>
      <trkpt lat="45.18765" lon="5.66839">
        <ele>449</ele>
        <time>2015-04-09T17:40:55.000Z</time>
      </trkpt>
      <trkpt lat="45.18765" lon="5.66839">
        <ele>449</ele>
        <time>2015-04-09T17:41:01.000Z</time>
      </trkpt>
      <trkpt lat="45.18765" lon="5.66839">
        <ele>449</ele>
        <time>2015-04-09T17:41:03.000Z</time>
      </trkpt>
      <trkpt lat="45.18765" lon="5.66839">
        <ele>449</ele>
        <time>2015-04-09T17:41:05.000Z</time>
      </trkpt>
      <trkpt lat="45.18765" lon="5.66839">
        <ele>449</ele>
        <time>2015-04-09T17:41:08.000Z</time>
      </trkpt>
      <trkpt lat="45.18765" lon="5.66839">
        <ele>449</ele>
        <time>2015-04-09T17:41:09.000Z</time>
      </trkpt>
      <trkpt lat="45.18765" lon="5.66839">
        <ele>449</ele>
        <time>2015-04-09T17:41:11.000Z</time>
      </trkpt>
      <trkpt lat="45.18765" lon="5.66839">
        <ele>449</ele>
        <time>2015-04-09T17:41:13.000Z</time>
      </trkpt>
      <trkpt lat="45.18765" lon="5.66839">
        <ele>449</ele>
        <time>2015-04-09T17:41:15.000Z</time>
      </trkpt>
      <trkpt lat="45.18765" lon="5.66839">
        <ele>449</ele>
        <time>2015-04-09T17:41:17.000Z</time>
      </trkpt>
      <trkpt lat="45.18765" lon="5.66839">
        <ele>449</ele>
        <time>2015-04-09T17:41:19.000Z</time>
      </trkpt>
      <trkpt lat="45.18765" lon="5.66839">
        <ele>449</ele>
        <time>2015-04-09T17:41:21.000Z</time>
      </trkpt>
      <trkpt lat="45.18765" lon="5.66839">
        <ele>449</ele>
        <time>2015-04-09T17:41:23.000Z</time>
      </trkpt>
      <trkpt lat="45.18789" lon="5.66811">
        <ele>450</ele>
        <time>2015-04-09T17:41:25.000Z</time>
      </trkpt>
      <trkpt lat="45.188" lon="5.66807">
        <ele>454</ele>
        <time>2015-04-09T17:41:31.000Z</time>
      </trkpt>
      <trkpt lat="45.18811" lon="5.66811">
        <ele>454</ele>
        <time>2015-04-09T17:41:37.000Z</time>
      </trkpt>
      <trkpt lat="45.18821" lon="5.66802">
        <ele>453</ele>
        <time>2015-04-09T17:41:43.000Z</time>
      </trkpt>
      <trkpt lat="45.18827" lon="5.6679">
        <ele>452</ele>
        <time>2015-04-09T17:41:47.000Z</time>
      </trkpt>
      <trkpt lat="45.18833" lon="5.66778">
        <ele>451</ele>
        <time>2015-04-09T17:41:51.000Z</time>
      </trkpt>
      <trkpt lat="45.18839" lon="5.66767">
        <ele>449</ele>
        <time>2015-04-09T17:41:55.000Z</time>
      </trkpt>
      <trkpt lat="45.18839" lon="5.66767">
        <ele>449</ele>
        <time>2015-04-09T17:41:57.000Z</time>
      </trkpt>
      <trkpt lat="45.18845" lon="5.66757">
        <ele>451</ele>
        <time>2015-04-09T17:41:59.000Z</time>
      </trkpt>
      <trkpt lat="45.18845" lon="5.66757">
        <ele>451</ele>
        <time>2015-04-09T17:42:01.000Z</time>
      </trkpt>
      <trkpt lat="45.18845" lon="5.66757">
        <ele>451</ele>
        <time>2015-04-09T17:42:03.000Z</time>
      </trkpt>
      <trkpt lat="45.18845" lon="5.66757">
        <ele>451</ele>
        <time>2015-04-09T17:42:05.000Z</time>
      </trkpt>
      <trkpt lat="45.18845" lon="5.66757">
        <ele>451</ele>
        <time>2015-04-09T17:42:07.000Z</time>
      </trkpt>
      <trkpt lat="45.18845" lon="5.66757">
        <ele>451</ele>
        <time>2015-04-09T17:42:09.000Z</time>
      </trkpt>
      <trkpt lat="45.18845" lon="5.66757">
        <ele>451</ele>
        <time>2015-04-09T17:42:11.000Z</time>
      </trkpt>
      <trkpt lat="45.18845" lon="5.66757">
        <ele>451</ele>
        <time>2015-04-09T17:42:13.000Z</time>
      </trkpt>
      <trkpt lat="45.18845" lon="5.66757">
        <ele>451</ele>
        <time>2015-04-09T17:42:15.000Z</time>
      </trkpt>
      <trkpt lat="45.18845" lon="5.66757">
        <ele>451</ele>
        <time>2015-04-09T17:42:17.000Z</time>
      </trkpt>
      <trkpt lat="45.18845" lon="5.66757">
        <ele>451</ele>
        <time>2015-04-09T17:42:19.000Z</time>
      </trkpt>
      <trkpt lat="45.18845" lon="5.66757">
        <ele>451</ele>
        <time>2015-04-09T17:42:21.000Z</time>
      </trkpt>
      <trkpt lat="45.18845" lon="5.66757">
        <ele>451</ele>
        <time>2015-04-09T17:42:23.000Z</time>
      </trkpt>
      <trkpt lat="45.18845" lon="5.66757">
        <ele>451</ele>
        <time>2015-04-09T17:42:25.000Z</time>
      </trkpt>
      <trkpt lat="45.18845" lon="5.66757">
        <ele>451</ele>
        <time>2015-04-09T17:42:27.000Z</time>
      </trkpt>
      <trkpt lat="45.18845" lon="5.66757">
        <ele>451</ele>
        <time>2015-04-09T17:42:29.000Z</time>
      </trkpt>
      <trkpt lat="45.18845" lon="5.66757">
        <ele>451</ele>
        <time>2015-04-09T17:42:31.000Z</time>
      </trkpt>
      <trkpt lat="45.18845" lon="5.66757">
        <ele>451</ele>
        <time>2015-04-09T17:42:33.000Z</time>
      </trkpt>
      <trkpt lat="45.18845" lon="5.66757">
        <ele>451</ele>
        <time>2015-04-09T17:42:35.000Z</time>
      </trkpt>
      <trkpt lat="45.18845" lon="5.66757">
        <ele>451</ele>
        <time>2015-04-09T17:42:37.000Z</time>
      </trkpt>
      <trkpt lat="45.18845" lon="5.66757">
        <ele>451</ele>
        <time>2015-04-09T17:42:39.000Z</time>
      </trkpt>
      <trkpt lat="45.18885" lon="5.66729">
        <ele>466</ele>
        <time>2015-04-09T17:42:45.000Z</time>
      </trkpt>
      <trkpt lat="45.18907" lon="5.66714">
        <ele>466</ele>
        <time>2015-04-09T17:42:48.000Z</time>
      </trkpt>
      <trkpt lat="45.1892" lon="5.66705">
        <ele>464</ele>
        <time>2015-04-09T17:42:49.000Z</time>
      </trkpt>
      <trkpt lat="45.18929" lon="5.66699">
        <ele>463</ele>
        <time>2015-04-09T17:42:51.000Z</time>
      </trkpt>
      <trkpt lat="45.18929" lon="5.66699">
        <ele>463</ele>
        <time>2015-04-09T17:42:53.000Z</time>
      </trkpt>
      <trkpt lat="45.18929" lon="5.66699">
        <ele>463</ele>
        <time>2015-04-09T17:42:55.000Z</time>
      </trkpt>
      <trkpt lat="45.18929" lon="5.66699">
        <ele>463</ele>
        <time>2015-04-09T17:42:57.000Z</time>
      </trkpt>
      <trkpt lat="45.18941" lon="5.66689">
        <ele>469</ele>
        <time>2015-04-09T17:43:03.000Z</time>
      </trkpt>
      <trkpt lat="45.18949" lon="5.66682">
        <ele>468</ele>
        <time>2015-04-09T17:43:05.000Z</time>
      </trkpt>
      <trkpt lat="45.18954" lon="5.66678">
        <ele>469</ele>
        <time>2015-04-09T17:43:07.000Z</time>
      </trkpt>
      <trkpt lat="45.18959" lon="5.66675">
        <ele>468</ele>
        <time>2015-04-09T17:43:09.000Z</time>
      </trkpt>
      <trkpt lat="45.18964" lon="5.66672">
        <ele>467</ele>
        <time>2015-04-09T17:43:11.000Z</time>
      </trkpt>
      <trkpt lat="45.18974" lon="5.66667">
        <ele>466</ele>
        <time>2015-04-09T17:43:13.000Z</time>
      </trkpt>
      <trkpt lat="45.18985" lon="5.66668">
        <ele>462</ele>
        <time>2015-04-09T17:43:17.000Z</time>
      </trkpt>
      <trkpt lat="45.18985" lon="5.66668">
        <ele>462</ele>
        <time>2015-04-09T17:43:19.000Z</time>
      </trkpt>
      <trkpt lat="45.18985" lon="5.66668">
        <ele>462</ele>
        <time>2015-04-09T17:43:21.000Z</time>
      </trkpt>
      <trkpt lat="45.18997" lon="5.66673">
        <ele>459</ele>
        <time>2015-04-09T17:43:23.000Z</time>
      </trkpt>
      <trkpt lat="45.19007" lon="5.66674">
        <ele>461</ele>
        <time>2015-04-09T17:43:27.000Z</time>
      </trkpt>
      <trkpt lat="45.19007" lon="5.66674">
        <ele>461</ele>
        <time>2015-04-09T17:43:29.000Z</time>
      </trkpt>
      <trkpt lat="45.19007" lon="5.66674">
        <ele>461</ele>
        <time>2015-04-09T17:43:31.000Z</time>
      </trkpt>
      <trkpt lat="45.19026" lon="5.66663">
        <ele>461</ele>
        <time>2015-04-09T17:43:35.000Z</time>
      </trkpt>
      <trkpt lat="45.19032" lon="5.66649">
        <ele>457</ele>
        <time>2015-04-09T17:43:39.000Z</time>
      </trkpt>
      <trkpt lat="45.19035" lon="5.66634">
        <ele>454</ele>
        <time>2015-04-09T17:43:43.000Z</time>
      </trkpt>
      <trkpt lat="45.19037" lon="5.6662">
        <ele>453</ele>
        <time>2015-04-09T17:43:47.000Z</time>
      </trkpt>
      <trkpt lat="45.19041" lon="5.66607">
        <ele>453</ele>
        <time>2015-04-09T17:43:51.000Z</time>
      </trkpt>
      <trkpt lat="45.19041" lon="5.66607">
        <ele>453</ele>
        <time>2015-04-09T17:43:53.000Z</time>
      </trkpt>
      <trkpt lat="45.19041" lon="5.66607">
        <ele>453</ele>
        <time>2015-04-09T17:43:55.000Z</time>
      </trkpt>
      <trkpt lat="45.19041" lon="5.66607">
        <ele>453</ele>
        <time>2015-04-09T17:43:57.000Z</time>
      </trkpt>
      <trkpt lat="45.19041" lon="5.66607">
        <ele>453</ele>
        <time>2015-04-09T17:43:59.000Z</time>
      </trkpt>
      <trkpt lat="45.19041" lon="5.66607">
        <ele>453</ele>
        <time>2015-04-09T17:44:01.000Z</time>
      </trkpt>
      <trkpt lat="45.19041" lon="5.66607">
        <ele>453</ele>
        <time>2015-04-09T17:44:03.000Z</time>
      </trkpt>
      <trkpt lat="45.19041" lon="5.66607">
        <ele>453</ele>
        <time>2015-04-09T17:44:05.000Z</time>
      </trkpt>
      <trkpt lat="45.19061" lon="5.66554">
        <ele>445</ele>
        <time>2015-04-09T17:44:09.000Z</time>
      </trkpt>
      <trkpt lat="45.19065" lon="5.6654">
        <ele>444</ele>
        <time>2015-04-09T17:44:13.000Z</time>
      </trkpt>
      <trkpt lat="45.19071" lon="5.66528">
        <ele>447</ele>
        <time>2015-04-09T17:44:17.000Z</time>
      </trkpt>
      <trkpt lat="45.19072" lon="5.66514">
        <ele>442</ele>
        <time>2015-04-09T17:44:21.000Z</time>
      </trkpt>
      <trkpt lat="45.19072" lon="5.66514">
        <ele>442</ele>
        <time>2015-04-09T17:44:25.000Z</time>
      </trkpt>
      <trkpt lat="45.19072" lon="5.66514">
        <ele>442</ele>
        <time>2015-04-09T17:44:27.000Z</time>
      </trkpt>
      <trkpt lat="45.19072" lon="5.66514">
        <ele>442</ele>
        <time>2015-04-09T17:44:29.000Z</time>
      </trkpt>
      <trkpt lat="45.19072" lon="5.66514">
        <ele>442</ele>
        <time>2015-04-09T17:44:31.000Z</time>
      </trkpt>
      <trkpt lat="45.19072" lon="5.66514">
        <ele>442</ele>
        <time>2015-04-09T17:44:33.000Z</time>
      </trkpt>
      <trkpt lat="45.19072" lon="5.66514">
        <ele>442</ele>
        <time>2015-04-09T17:44:35.000Z</time>
      </trkpt>
      <trkpt lat="45.19072" lon="5.66514">
        <ele>442</ele>
        <time>2015-04-09T17:44:37.000Z</time>
      </trkpt>
      <trkpt lat="45.19072" lon="5.66514">
        <ele>442</ele>
        <time>2015-04-09T17:44:39.000Z</time>
      </trkpt>
      <trkpt lat="45.19072" lon="5.66514">
        <ele>442</ele>
        <time>2015-04-09T17:44:41.000Z</time>
      </trkpt>
      <trkpt lat="45.19072" lon="5.66514">
        <ele>442</ele>
        <time>2015-04-09T17:44:43.000Z</time>
      </trkpt>
      <trkpt lat="45.19072" lon="5.66514">
        <ele>442</ele>
        <time>2015-04-09T17:44:45.000Z</time>
      </trkpt>
      <trkpt lat="45.19072" lon="5.66514">
        <ele>442</ele>
        <time>2015-04-09T17:44:47.000Z</time>
      </trkpt>
      <trkpt lat="45.19072" lon="5.66514">
        <ele>442</ele>
        <time>2015-04-09T17:44:49.000Z</time>
      </trkpt>
      <trkpt lat="45.19072" lon="5.66514">
        <ele>442</ele>
        <time>2015-04-09T17:44:51.000Z</time>
      </trkpt>
      <trkpt lat="45.19072" lon="5.66514">
        <ele>442</ele>
        <time>2015-04-09T17:44:53.000Z</time>
      </trkpt>
      <trkpt lat="45.19072" lon="5.66514">
        <ele>442</ele>
        <time>2015-04-09T17:44:55.000Z</time>
      </trkpt>
      <trkpt lat="45.19072" lon="5.66514">
        <ele>442</ele>
        <time>2015-04-09T17:44:57.000Z</time>
      </trkpt>
      <trkpt lat="45.19072" lon="5.66514">
        <ele>442</ele>
        <time>2015-04-09T17:44:59.000Z</time>
      </trkpt>
      <trkpt lat="45.19072" lon="5.66514">
        <ele>442</ele>
        <time>2015-04-09T17:45:01.000Z</time>
      </trkpt>
      <trkpt lat="45.19072" lon="5.66514">
        <ele>442</ele>
        <time>2015-04-09T17:45:03.000Z</time>
      </trkpt>
      <trkpt lat="45.19072" lon="5.66514">
        <ele>442</ele>
        <time>2015-04-09T17:45:05.000Z</time>
      </trkpt>
      <trkpt lat="45.19072" lon="5.66514">
        <ele>442</ele>
        <time>2015-04-09T17:45:07.000Z</time>
      </trkpt>
      <trkpt lat="45.19072" lon="5.66514">
        <ele>442</ele>
        <time>2015-04-09T17:45:09.000Z</time>
      </trkpt>
      <trkpt lat="45.19072" lon="5.66514">
        <ele>442</ele>
        <time>2015-04-09T17:45:11.000Z</time>
      </trkpt>
      <trkpt lat="45.19072" lon="5.66514">
        <ele>442</ele>
        <time>2015-04-09T17:45:15.000Z</time>
      </trkpt>
      <trkpt lat="45.19072" lon="5.66514">
        <ele>442</ele>
        <time>2015-04-09T17:45:17.000Z</time>
      </trkpt>
      <trkpt lat="45.19072" lon="5.66514">
        <ele>442</ele>
        <time>2015-04-09T17:45:19.000Z</time>
      </trkpt>
      <trkpt lat="45.19072" lon="5.66514">
        <ele>442</ele>
        <time>2015-04-09T17:45:21.000Z</time>
      </trkpt>
      <trkpt lat="45.19072" lon="5.66514">
        <ele>442</ele>
        <time>2015-04-09T17:45:23.000Z</time>
      </trkpt>
      <trkpt lat="45.19072" lon="5.66514">
        <ele>442</ele>
        <time>2015-04-09T17:45:25.000Z</time>
      </trkpt>
      <trkpt lat="45.19072" lon="5.66514">
        <ele>442</ele>
        <time>2015-04-09T17:45:27.000Z</time>
      </trkpt>
      <trkpt lat="45.19072" lon="5.66514">
        <ele>442</ele>
        <time>2015-04-09T17:45:29.000Z</time>
      </trkpt>
      <trkpt lat="45.19072" lon="5.66514">
        <ele>442</ele>
        <time>2015-04-09T17:45:31.000Z</time>
      </trkpt>
      <trkpt lat="45.19072" lon="5.66514">
        <ele>442</ele>
        <time>2015-04-09T17:45:33.000Z</time>
      </trkpt>
      <trkpt lat="45.19072" lon="5.66514">
        <ele>442</ele>
        <time>2015-04-09T17:45:35.000Z</time>
      </trkpt>
      <trkpt lat="45.19072" lon="5.66514">
        <ele>442</ele>
        <time>2015-04-09T17:45:37.000Z</time>
      </trkpt>
      <trkpt lat="45.19072" lon="5.66514">
        <ele>442</ele>
        <time>2015-04-09T17:45:39.000Z</time>
      </trkpt>
      <trkpt lat="45.19072" lon="5.66514">
        <ele>442</ele>
        <time>2015-04-09T17:45:41.000Z</time>
      </trkpt>
      <trkpt lat="45.19072" lon="5.66514">
        <ele>442</ele>
        <time>2015-04-09T17:45:43.000Z</time>
      </trkpt>
      <trkpt lat="45.19072" lon="5.66514">
        <ele>442</ele>
        <time>2015-04-09T17:45:45.000Z</time>
      </trkpt>
      <trkpt lat="45.19072" lon="5.66514">
        <ele>442</ele>
        <time>2015-04-09T17:45:47.000Z</time>
      </trkpt>
      <trkpt lat="45.19072" lon="5.66514">
        <ele>442</ele>
        <time>2015-04-09T17:45:49.000Z</time>
      </trkpt>
      <trkpt lat="45.19072" lon="5.66514">
        <ele>442</ele>
        <time>2015-04-09T17:45:51.000Z</time>
      </trkpt>
      <trkpt lat="45.19072" lon="5.66514">
        <ele>442</ele>
        <time>2015-04-09T17:45:53.000Z</time>
      </trkpt>
      <trkpt lat="45.19072" lon="5.66514">
        <ele>442</ele>
        <time>2015-04-09T17:45:55.000Z</time>
      </trkpt>
      <trkpt lat="45.19072" lon="5.66514">
        <ele>442</ele>
        <time>2015-04-09T17:45:57.000Z</time>
      </trkpt>
      <trkpt lat="45.19072" lon="5.66514">
        <ele>442</ele>
        <time>2015-04-09T17:45:59.000Z</time>
      </trkpt>
      <trkpt lat="45.19072" lon="5.66514">
        <ele>442</ele>
        <time>2015-04-09T17:46:01.000Z</time>
      </trkpt>
      <trkpt lat="45.19072" lon="5.66514">
        <ele>442</ele>
        <time>2015-04-09T17:46:03.000Z</time>
      </trkpt>
      <trkpt lat="45.19072" lon="5.66514">
        <ele>442</ele>
        <time>2015-04-09T17:46:05.000Z</time>
      </trkpt>
      <trkpt lat="45.19072" lon="5.66514">
        <ele>442</ele>
        <time>2015-04-09T17:46:07.000Z</time>
      </trkpt>
      <trkpt lat="45.19072" lon="5.66514">
        <ele>442</ele>
        <time>2015-04-09T17:46:09.000Z</time>
      </trkpt>
      <trkpt lat="45.19072" lon="5.66514">
        <ele>442</ele>
        <time>2015-04-09T17:46:11.000Z</time>
      </trkpt>
      <trkpt lat="45.19072" lon="5.66514">
        <ele>442</ele>
        <time>2015-04-09T17:46:13.000Z</time>
      </trkpt>
      <trkpt lat="45.19072" lon="5.66514">
        <ele>442</ele>
        <time>2015-04-09T17:46:15.000Z</time>
      </trkpt>
      <trkpt lat="45.19072" lon="5.66514">
        <ele>442</ele>
        <time>2015-04-09T17:46:17.000Z</time>
      </trkpt>
      <trkpt lat="45.19072" lon="5.66514">
        <ele>442</ele>
        <time>2015-04-09T17:46:19.000Z</time>
      </trkpt>
      <trkpt lat="45.19072" lon="5.66514">
        <ele>442</ele>
        <time>2015-04-09T17:46:21.000Z</time>
      </trkpt>
      <trkpt lat="45.19072" lon="5.66514">
        <ele>442</ele>
        <time>2015-04-09T17:46:23.000Z</time>
      </trkpt>
      <trkpt lat="45.19072" lon="5.66514">
        <ele>442</ele>
        <time>2015-04-09T17:46:25.000Z</time>
      </trkpt>
      <trkpt lat="45.19072" lon="5.66514">
        <ele>442</ele>
        <time>2015-04-09T17:46:27.000Z</time>
      </trkpt>
      <trkpt lat="45.19072" lon="5.66514">
        <ele>442</ele>
        <time>2015-04-09T17:46:29.000Z</time>
      </trkpt>
      <trkpt lat="45.19072" lon="5.66514">
        <ele>442</ele>
        <time>2015-04-09T17:46:31.000Z</time>
      </trkpt>
      <trkpt lat="45.19072" lon="5.66514">
        <ele>442</ele>
        <time>2015-04-09T17:46:33.000Z</time>
      </trkpt>
      <trkpt lat="45.19072" lon="5.66514">
        <ele>442</ele>
        <time>2015-04-09T17:46:35.000Z</time>
      </trkpt>
      <trkpt lat="45.19072" lon="5.66514">
        <ele>442</ele>
        <time>2015-04-09T17:46:37.000Z</time>
      </trkpt>
      <trkpt lat="45.19072" lon="5.66514">
        <ele>442</ele>
        <time>2015-04-09T17:46:39.000Z</time>
      </trkpt>
      <trkpt lat="45.19072" lon="5.66514">
        <ele>442</ele>
        <time>2015-04-09T17:46:41.000Z</time>
      </trkpt>
      <trkpt lat="45.19072" lon="5.66514">
        <ele>442</ele>
        <time>2015-04-09T17:46:43.000Z</time>
      </trkpt>
      <trkpt lat="45.19072" lon="5.66514">
        <ele>442</ele>
        <time>2015-04-09T17:46:45.000Z</time>
      </trkpt>
      <trkpt lat="45.19072" lon="5.66514">
        <ele>442</ele>
        <time>2015-04-09T17:46:47.000Z</time>
      </trkpt>
      <trkpt lat="45.19072" lon="5.66514">
        <ele>442</ele>
        <time>2015-04-09T17:46:49.000Z</time>
      </trkpt>
      <trkpt lat="45.19072" lon="5.66514">
        <ele>442</ele>
        <time>2015-04-09T17:46:51.000Z</time>
      </trkpt>
      <trkpt lat="45.19072" lon="5.66514">
        <ele>442</ele>
        <time>2015-04-09T17:46:53.000Z</time>
      </trkpt>
      <trkpt lat="45.19116" lon="5.66386">
        <ele>478</ele>
        <time>2015-04-09T17:46:55.000Z</time>
      </trkpt>
      <trkpt lat="45.19138" lon="5.6632">
        <ele>479</ele>
        <time>2015-04-09T17:46:57.000Z</time>
      </trkpt>
      <trkpt lat="45.19151" lon="5.66285">
        <ele>479</ele>
        <time>2015-04-09T17:46:59.000Z</time>
      </trkpt>
      <trkpt lat="45.19157" lon="5.66266">
        <ele>480</ele>
        <time>2015-04-09T17:47:01.000Z</time>
      </trkpt>
      <trkpt lat="45.19161" lon="5.66255">
        <ele>479</ele>
        <time>2015-04-09T17:47:03.000Z</time>
      </trkpt>
      <trkpt lat="45.19167" lon="5.66241">
        <ele>479</ele>
        <time>2015-04-09T17:47:05.000Z</time>
      </trkpt>
      <trkpt lat="45.19167" lon="5.66241">
        <ele>479</ele>
        <time>2015-04-09T17:47:07.000Z</time>
      </trkpt>
      <trkpt lat="45.19167" lon="5.66241">
        <ele>479</ele>
        <time>2015-04-09T17:47:09.000Z</time>
      </trkpt>
      <trkpt lat="45.19167" lon="5.66241">
        <ele>479</ele>
        <time>2015-04-09T17:47:11.000Z</time>
      </trkpt>
      <trkpt lat="45.19167" lon="5.66241">
        <ele>479</ele>
        <time>2015-04-09T17:47:13.000Z</time>
      </trkpt>
      <trkpt lat="45.19177" lon="5.6623">
        <ele>479</ele>
        <time>2015-04-09T17:48:35.000Z</time>
      </trkpt>
      <trkpt lat="45.19183" lon="5.66222">
        <ele>479</ele>
        <time>2015-04-09T17:48:37.000Z</time>
      </trkpt>
      <trkpt lat="45.19188" lon="5.66217">
        <ele>484</ele>
        <time>2015-04-09T17:48:39.000Z</time>
      </trkpt>
      <trkpt lat="45.19192" lon="5.66214">
        <ele>482</ele>
        <time>2015-04-09T17:48:41.000Z</time>
      </trkpt>
      <trkpt lat="45.19192" lon="5.66214">
        <ele>482</ele>
        <time>2015-04-09T17:48:43.000Z</time>
      </trkpt>
      <trkpt lat="45.19192" lon="5.66214">
        <ele>482</ele>
        <time>2015-04-09T17:48:45.000Z</time>
      </trkpt>
      <trkpt lat="45.19192" lon="5.66214">
        <ele>482</ele>
        <time>2015-04-09T17:48:47.000Z</time>
      </trkpt>
      <trkpt lat="45.19192" lon="5.66214">
        <ele>482</ele>
        <time>2015-04-09T17:48:49.000Z</time>
      </trkpt>
      <trkpt lat="45.19192" lon="5.66214">
        <ele>482</ele>
        <time>2015-04-09T17:48:51.000Z</time>
      </trkpt>
      <trkpt lat="45.19192" lon="5.66214">
        <ele>482</ele>
        <time>2015-04-09T17:48:53.000Z</time>
      </trkpt>
      <trkpt lat="45.19192" lon="5.66214">
        <ele>482</ele>
        <time>2015-04-09T17:48:55.000Z</time>
      </trkpt>
      <trkpt lat="45.19192" lon="5.66214">
        <ele>482</ele>
        <time>2015-04-09T17:48:57.000Z</time>
      </trkpt>
      <trkpt lat="45.19192" lon="5.66214">
        <ele>482</ele>
        <time>2015-04-09T17:48:59.000Z</time>
      </trkpt>
      <trkpt lat="45.19192" lon="5.66214">
        <ele>482</ele>
        <time>2015-04-09T17:49:01.000Z</time>
      </trkpt>
      <trkpt lat="45.19192" lon="5.66214">
        <ele>482</ele>
        <time>2015-04-09T17:49:03.000Z</time>
      </trkpt>
      <trkpt lat="45.19192" lon="5.66214">
        <ele>482</ele>
        <time>2015-04-09T17:49:05.000Z</time>
      </trkpt>
      <trkpt lat="45.19192" lon="5.66214">
        <ele>482</ele>
        <time>2015-04-09T17:49:07.000Z</time>
      </trkpt>
      <trkpt lat="45.19192" lon="5.66214">
        <ele>482</ele>
        <time>2015-04-09T17:49:09.000Z</time>
      </trkpt>
      <trkpt lat="45.19192" lon="5.66214">
        <ele>482</ele>
        <time>2015-04-09T17:49:11.000Z</time>
      </trkpt>
      <trkpt lat="45.19224" lon="5.66192">
        <ele>485</ele>
        <time>2015-04-09T17:49:17.000Z</time>
      </trkpt>
      <trkpt lat="45.19241" lon="5.66179">
        <ele>482</ele>
        <time>2015-04-09T17:49:19.000Z</time>
      </trkpt>
      <trkpt lat="45.19251" lon="5.6617">
        <ele>479</ele>
        <time>2015-04-09T17:49:21.000Z</time>
      </trkpt>
      <trkpt lat="45.19257" lon="5.66164">
        <ele>477</ele>
        <time>2015-04-09T17:49:23.000Z</time>
      </trkpt>
      <trkpt lat="45.19262" lon="5.6616">
        <ele>480</ele>
        <time>2015-04-09T17:49:25.000Z</time>
      </trkpt>
      <trkpt lat="45.19271" lon="5.66153">
        <ele>477</ele>
        <time>2015-04-09T17:49:27.000Z</time>
      </trkpt>
      <trkpt lat="45.19282" lon="5.66146">
        <ele>477</ele>
        <time>2015-04-09T17:49:31.000Z</time>
      </trkpt>
      <trkpt lat="45.19291" lon="5.66138">
        <ele>477</ele>
        <time>2015-04-09T17:49:35.000Z</time>
      </trkpt>
      <trkpt lat="45.19291" lon="5.66138">
        <ele>477</ele>
        <time>2015-04-09T17:49:37.000Z</time>
      </trkpt>
      <trkpt lat="45.19291" lon="5.66138">
        <ele>477</ele>
        <time>2015-04-09T17:49:39.000Z</time>
      </trkpt>
      <trkpt lat="45.19291" lon="5.66138">
        <ele>477</ele>
        <time>2015-04-09T17:49:41.000Z</time>
      </trkpt>
      <trkpt lat="45.19291" lon="5.66138">
        <ele>477</ele>
        <time>2015-04-09T17:49:43.000Z</time>
      </trkpt>
      <trkpt lat="45.19291" lon="5.66138">
        <ele>477</ele>
        <time>2015-04-09T17:49:45.000Z</time>
      </trkpt>
      <trkpt lat="45.19291" lon="5.66138">
        <ele>477</ele>
        <time>2015-04-09T17:49:47.000Z</time>
      </trkpt>
      <trkpt lat="45.19291" lon="5.66138">
        <ele>477</ele>
        <time>2015-04-09T17:49:51.000Z</time>
      </trkpt>
      <trkpt lat="45.19291" lon="5.66138">
        <ele>477</ele>
        <time>2015-04-09T17:49:53.000Z</time>
      </trkpt>
      <trkpt lat="45.19291" lon="5.66138">
        <ele>477</ele>
        <time>2015-04-09T17:49:55.000Z</time>
      </trkpt>
      <trkpt lat="45.19342" lon="5.66111">
        <ele>479</ele>
        <time>2015-04-09T17:50:07.000Z</time>
      </trkpt>
      <trkpt lat="45.19342" lon="5.66111">
        <ele>479</ele>
        <time>2015-04-09T17:50:09.000Z</time>
      </trkpt>
      <trkpt lat="45.19342" lon="5.66111">
        <ele>479</ele>
        <time>2015-04-09T17:50:11.000Z</time>
      </trkpt>
      <trkpt lat="45.19342" lon="5.66111">
        <ele>479</ele>
        <time>2015-04-09T17:50:13.000Z</time>
      </trkpt>
      <trkpt lat="45.19342" lon="5.66111">
        <ele>479</ele>
        <time>2015-04-09T17:50:31.000Z</time>
      </trkpt>
      <trkpt lat="45.19342" lon="5.66111">
        <ele>479</ele>
        <time>2015-04-09T17:50:33.000Z</time>
      </trkpt>
      <trkpt lat="45.19342" lon="5.66111">
        <ele>479</ele>
        <time>2015-04-09T17:50:35.000Z</time>
      </trkpt>
      <trkpt lat="45.19342" lon="5.66111">
        <ele>479</ele>
        <time>2015-04-09T17:50:37.000Z</time>
      </trkpt>
      <trkpt lat="45.19342" lon="5.66111">
        <ele>479</ele>
        <time>2015-04-09T17:50:39.000Z</time>
      </trkpt>
      <trkpt lat="45.19342" lon="5.66111">
        <ele>479</ele>
        <time>2015-04-09T17:50:41.000Z</time>
      </trkpt>
      <trkpt lat="45.19342" lon="5.66111">
        <ele>479</ele>
        <time>2015-04-09T17:50:43.000Z</time>
      </trkpt>
      <trkpt lat="45.19342" lon="5.66111">
        <ele>479</ele>
        <time>2015-04-09T17:50:45.000Z</time>
      </trkpt>
      <trkpt lat="45.19342" lon="5.66111">
        <ele>479</ele>
        <time>2015-04-09T17:50:49.000Z</time>
      </trkpt>
      <trkpt lat="45.19342" lon="5.66111">
        <ele>479</ele>
        <time>2015-04-09T17:50:51.000Z</time>
      </trkpt>
      <trkpt lat="45.19456" lon="5.65956">
        <ele>564</ele>
        <time>2015-04-09T18:02:19.000Z</time>
      </trkpt>
      <trkpt lat="45.19512" lon="5.6588">
        <ele>565</ele>
        <time>2015-04-09T18:02:21.000Z</time>
      </trkpt>
      <trkpt lat="45.19512" lon="5.6588">
        <ele>565</ele>
        <time>2015-04-09T18:02:23.000Z</time>
      </trkpt>
      <trkpt lat="45.19512" lon="5.6588">
        <ele>565</ele>
        <time>2015-04-09T18:02:25.000Z</time>
      </trkpt>
      <trkpt lat="45.19512" lon="5.6588">
        <ele>565</ele>
        <time>2015-04-09T18:02:27.000Z</time>
      </trkpt>
      <trkpt lat="45.19532" lon="5.65848">
        <ele>565</ele>
        <time>2015-04-09T18:02:31.000Z</time>
      </trkpt>
      <trkpt lat="45.19541" lon="5.65834">
        <ele>564</ele>
        <time>2015-04-09T18:02:33.000Z</time>
      </trkpt>
      <trkpt lat="45.19543" lon="5.65828">
        <ele>561</ele>
        <time>2015-04-09T18:02:35.000Z</time>
      </trkpt>
      <trkpt lat="45.19543" lon="5.65828">
        <ele>561</ele>
        <time>2015-04-09T18:02:37.000Z</time>
      </trkpt>
      <trkpt lat="45.19543" lon="5.65828">
        <ele>561</ele>
        <time>2015-04-09T18:02:39.000Z</time>
      </trkpt>
      <trkpt lat="45.19543" lon="5.65828">
        <ele>561</ele>
        <time>2015-04-09T18:02:41.000Z</time>
      </trkpt>
      <trkpt lat="45.19543" lon="5.65828">
        <ele>561</ele>
        <time>2015-04-09T18:02:43.000Z</time>
      </trkpt>
      <trkpt lat="45.19543" lon="5.65828">
        <ele>561</ele>
        <time>2015-04-09T18:02:45.000Z</time>
      </trkpt>
      <trkpt lat="45.19543" lon="5.65828">
        <ele>561</ele>
        <time>2015-04-09T18:02:47.000Z</time>
      </trkpt>
      <trkpt lat="45.19543" lon="5.65828">
        <ele>561</ele>
        <time>2015-04-09T18:02:49.000Z</time>
      </trkpt>
      <trkpt lat="45.19543" lon="5.65828">
        <ele>561</ele>
        <time>2015-04-09T18:02:51.000Z</time>
      </trkpt>
      <trkpt lat="45.19543" lon="5.65828">
        <ele>561</ele>
        <time>2015-04-09T18:02:53.000Z</time>
      </trkpt>
      <trkpt lat="45.19543" lon="5.65828">
        <ele>561</ele>
        <time>2015-04-09T18:02:55.000Z</time>
      </trkpt>
      <trkpt lat="45.19543" lon="5.65828">
        <ele>561</ele>
        <time>2015-04-09T18:02:57.000Z</time>
      </trkpt>
      <trkpt lat="45.19543" lon="5.65828">
        <ele>561</ele>
        <time>2015-04-09T18:02:59.000Z</time>
      </trkpt>
      <trkpt lat="45.19543" lon="5.65828">
        <ele>561</ele>
        <time>2015-04-09T18:03:01.000Z</time>
      </trkpt>
      <trkpt lat="45.19543" lon="5.65828">
        <ele>561</ele>
        <time>2015-04-09T18:03:03.000Z</time>
      </trkpt>
      <trkpt lat="45.19543" lon="5.65828">
        <ele>561</ele>
        <time>2015-04-09T18:03:05.000Z</time>
      </trkpt>
      <trkpt lat="45.19543" lon="5.65828">
        <ele>561</ele>
        <time>2015-04-09T18:03:07.000Z</time>
      </trkpt>
      <trkpt lat="45.19543" lon="5.65828">
        <ele>561</ele>
        <time>2015-04-09T18:03:09.000Z</time>
      </trkpt>
      <trkpt lat="45.19543" lon="5.65828">
        <ele>561</ele>
        <time>2015-04-09T18:03:11.000Z</time>
      </trkpt>
      <trkpt lat="45.19507" lon="5.6586">
        <ele>533</ele>
        <time>2015-04-09T18:04:07.000Z</time>
      </trkpt>
      <trkpt lat="45.19488" lon="5.65877">
        <ele>531</ele>
        <time>2015-04-09T18:04:09.000Z</time>
      </trkpt>
      <trkpt lat="45.19488" lon="5.65877">
        <ele>531</ele>
        <time>2015-04-09T18:04:11.000Z</time>
      </trkpt>
      <trkpt lat="45.19488" lon="5.65877">
        <ele>531</ele>
        <time>2015-04-09T18:04:13.000Z</time>
      </trkpt>
      <trkpt lat="45.19488" lon="5.65877">
        <ele>531</ele>
        <time>2015-04-09T18:04:15.000Z</time>
      </trkpt>
      <trkpt lat="45.19488" lon="5.65877">
        <ele>531</ele>
        <time>2015-04-09T18:04:17.000Z</time>
      </trkpt>
      <trkpt lat="45.19488" lon="5.65877">
        <ele>531</ele>
        <time>2015-04-09T18:04:19.000Z</time>
      </trkpt>
      <trkpt lat="45.19488" lon="5.65877">
        <ele>531</ele>
        <time>2015-04-09T18:04:21.000Z</time>
      </trkpt>
      <trkpt lat="45.19488" lon="5.65877">
        <ele>531</ele>
        <time>2015-04-09T18:04:23.000Z</time>
      </trkpt>
      <trkpt lat="45.19488" lon="5.65877">
        <ele>531</ele>
        <time>2015-04-09T18:04:55.000Z</time>
      </trkpt>
      <trkpt lat="45.19488" lon="5.65877">
        <ele>531</ele>
        <time>2015-04-09T18:04:57.000Z</time>
      </trkpt>
      <trkpt lat="45.19488" lon="5.65877">
        <ele>531</ele>
        <time>2015-04-09T18:04:59.000Z</time>
      </trkpt>
      <trkpt lat="45.19488" lon="5.65877">
        <ele>531</ele>
        <time>2015-04-09T18:05:01.000Z</time>
      </trkpt>
      <trkpt lat="45.19488" lon="5.65877">
        <ele>531</ele>
        <time>2015-04-09T18:05:03.000Z</time>
      </trkpt>
      <trkpt lat="45.1946" lon="5.65955">
        <ele>505</ele>
        <time>2015-04-09T18:05:33.000Z</time>
      </trkpt>
      <trkpt lat="45.19444" lon="5.65997">
        <ele>485</ele>
        <time>2015-04-09T18:05:35.000Z</time>
      </trkpt>
      <trkpt lat="45.19436" lon="5.6602">
        <ele>484</ele>
        <time>2015-04-09T18:05:37.000Z</time>
      </trkpt>
      <trkpt lat="45.1943" lon="5.66033">
        <ele>485</ele>
        <time>2015-04-09T18:05:39.000Z</time>
      </trkpt>
      <trkpt lat="45.1943" lon="5.66033">
        <ele>485</ele>
        <time>2015-04-09T18:05:41.000Z</time>
      </trkpt>
      <trkpt lat="45.1943" lon="5.66033">
        <ele>485</ele>
        <time>2015-04-09T18:05:43.000Z</time>
      </trkpt>
      <trkpt lat="45.1943" lon="5.66033">
        <ele>485</ele>
        <time>2015-04-09T18:05:45.000Z</time>
      </trkpt>
      <trkpt lat="45.19421" lon="5.66046">
        <ele>481</ele>
        <time>2015-04-09T18:05:55.000Z</time>
      </trkpt>
      <trkpt lat="45.19421" lon="5.66046">
        <ele>481</ele>
        <time>2015-04-09T18:05:57.000Z</time>
      </trkpt>
      <trkpt lat="45.19421" lon="5.66046">
        <ele>481</ele>
        <time>2015-04-09T18:05:59.000Z</time>
      </trkpt>
      <trkpt lat="45.19415" lon="5.66057">
        <ele>480</ele>
        <time>2015-04-09T18:06:05.000Z</time>
      </trkpt>
      <trkpt lat="45.19409" lon="5.66066">
        <ele>476</ele>
        <time>2015-04-09T18:06:09.000Z</time>
      </trkpt>
      <trkpt lat="45.19405" lon="5.66072">
        <ele>477</ele>
        <time>2015-04-09T18:06:11.000Z</time>
      </trkpt>
      <trkpt lat="45.19402" lon="5.66078">
        <ele>477</ele>
        <time>2015-04-09T18:06:13.000Z</time>
      </trkpt>
      <trkpt lat="45.19399" lon="5.66083">
        <ele>476</ele>
        <time>2015-04-09T18:06:15.000Z</time>
      </trkpt>
      <trkpt lat="45.19397" lon="5.66089">
        <ele>475</ele>
        <time>2015-04-09T18:06:17.000Z</time>
      </trkpt>
      <trkpt lat="45.1939" lon="5.66103">
        <ele>473</ele>
        <time>2015-04-09T18:06:21.000Z</time>
      </trkpt>
      <trkpt lat="45.1939" lon="5.66103">
        <ele>473</ele>
        <time>2015-04-09T18:06:23.000Z</time>
      </trkpt>
      <trkpt lat="45.1939" lon="5.66103">
        <ele>473</ele>
        <time>2015-04-09T18:06:25.000Z</time>
      </trkpt>
      <trkpt lat="45.1939" lon="5.66103">
        <ele>473</ele>
        <time>2015-04-09T18:06:27.000Z</time>
      </trkpt>
      <trkpt lat="45.1939" lon="5.66103">
        <ele>473</ele>
        <time>2015-04-09T18:06:29.000Z</time>
      </trkpt>
      <trkpt lat="45.1939" lon="5.66103">
        <ele>473</ele>
        <time>2015-04-09T18:06:35.000Z</time>
      </trkpt>
      <trkpt lat="45.1939" lon="5.66103">
        <ele>473</ele>
        <time>2015-04-09T18:06:37.000Z</time>
      </trkpt>
      <trkpt lat="45.1939" lon="5.66103">
        <ele>473</ele>
        <time>2015-04-09T18:06:39.000Z</time>
      </trkpt>
      <trkpt lat="45.1939" lon="5.66103">
        <ele>473</ele>
        <time>2015-04-09T18:06:47.000Z</time>
      </trkpt>
      <trkpt lat="45.1939" lon="5.66103">
        <ele>473</ele>
        <time>2015-04-09T18:06:49.000Z</time>
      </trkpt>
      <trkpt lat="45.1939" lon="5.66103">
        <ele>473</ele>
        <time>2015-04-09T18:06:51.000Z</time>
      </trkpt>
      <trkpt lat="45.1939" lon="5.66103">
        <ele>473</ele>
        <time>2015-04-09T18:06:53.000Z</time>
      </trkpt>
      <trkpt lat="45.1939" lon="5.66103">
        <ele>473</ele>
        <time>2015-04-09T18:06:55.000Z</time>
      </trkpt>
      <trkpt lat="45.1939" lon="5.66103">
        <ele>473</ele>
        <time>2015-04-09T18:06:57.000Z</time>
      </trkpt>
      <trkpt lat="45.1939" lon="5.66103">
        <ele>473</ele>
        <time>2015-04-09T18:06:59.000Z</time>
      </trkpt>
      <trkpt lat="45.1939" lon="5.66103">
        <ele>473</ele>
        <time>2015-04-09T18:07:01.000Z</time>
      </trkpt>
      <trkpt lat="45.1939" lon="5.66103">
        <ele>473</ele>
        <time>2015-04-09T18:07:03.000Z</time>
      </trkpt>
      <trkpt lat="45.1939" lon="5.66103">
        <ele>473</ele>
        <time>2015-04-09T18:07:05.000Z</time>
      </trkpt>
      <trkpt lat="45.1939" lon="5.66103">
        <ele>473</ele>
        <time>2015-04-09T18:07:07.000Z</time>
      </trkpt>
      <trkpt lat="45.1939" lon="5.66103">
        <ele>473</ele>
        <time>2015-04-09T18:07:09.000Z</time>
      </trkpt>
      <trkpt lat="45.1939" lon="5.66103">
        <ele>473</ele>
        <time>2015-04-09T18:07:11.000Z</time>
      </trkpt>
      <trkpt lat="45.1939" lon="5.66103">
        <ele>473</ele>
        <time>2015-04-09T18:07:13.000Z</time>
      </trkpt>
      <trkpt lat="45.1939" lon="5.66103">
        <ele>473</ele>
        <time>2015-04-09T18:07:15.000Z</time>
      </trkpt>
      <trkpt lat="45.19367" lon="5.66197">
        <ele>446</ele>
        <time>2015-04-09T18:07:17.000Z</time>
      </trkpt>
      <trkpt lat="45.19364" lon="5.66209">
        <ele>441</ele>
        <time>2015-04-09T18:07:21.000Z</time>
      </trkpt>
      <trkpt lat="45.19364" lon="5.66209">
        <ele>441</ele>
        <time>2015-04-09T18:07:23.000Z</time>
      </trkpt>
      <trkpt lat="45.19359" lon="5.66213">
        <ele>444</ele>
        <time>2015-04-09T18:07:27.000Z</time>
      </trkpt>
      <trkpt lat="45.19354" lon="5.66216">
        <ele>444</ele>
        <time>2015-04-09T18:07:29.000Z</time>
      </trkpt>
      <trkpt lat="45.1935" lon="5.66219">
        <ele>443</ele>
        <time>2015-04-09T18:07:31.000Z</time>
      </trkpt>
      <trkpt lat="45.19345" lon="5.66224">
        <ele>443</ele>
        <time>2015-04-09T18:07:33.000Z</time>
      </trkpt>
      <trkpt lat="45.1934" lon="5.6623">
        <ele>442</ele>
        <time>2015-04-09T18:07:35.000Z</time>
      </trkpt>
      <trkpt lat="45.19332" lon="5.66242">
        <ele>441</ele>
        <time>2015-04-09T18:07:37.000Z</time>
      </trkpt>
      <trkpt lat="45.19327" lon="5.66257">
        <ele>442</ele>
        <time>2015-04-09T18:07:41.000Z</time>
      </trkpt>
      <trkpt lat="45.19323" lon="5.6627">
        <ele>442</ele>
        <time>2015-04-09T18:07:45.000Z</time>
      </trkpt>
      <trkpt lat="45.19323" lon="5.6627">
        <ele>442</ele>
        <time>2015-04-09T18:07:47.000Z</time>
      </trkpt>
      <trkpt lat="45.19323" lon="5.6627">
        <ele>442</ele>
        <time>2015-04-09T18:07:49.000Z</time>
      </trkpt>
      <trkpt lat="45.19323" lon="5.6627">
        <ele>442</ele>
        <time>2015-04-09T18:07:51.000Z</time>
      </trkpt>
      <trkpt lat="45.19323" lon="5.6627">
        <ele>442</ele>
        <time>2015-04-09T18:07:53.000Z</time>
      </trkpt>
      <trkpt lat="45.19323" lon="5.6627">
        <ele>442</ele>
        <time>2015-04-09T18:07:55.000Z</time>
      </trkpt>
      <trkpt lat="45.19323" lon="5.6627">
        <ele>442</ele>
        <time>2015-04-09T18:07:57.000Z</time>
      </trkpt>
      <trkpt lat="45.19323" lon="5.6627">
        <ele>442</ele>
        <time>2015-04-09T18:07:59.000Z</time>
      </trkpt>
      <trkpt lat="45.19323" lon="5.6627">
        <ele>442</ele>
        <time>2015-04-09T18:08:01.000Z</time>
      </trkpt>
      <trkpt lat="45.19323" lon="5.6627">
        <ele>442</ele>
        <time>2015-04-09T18:08:03.000Z</time>
      </trkpt>
      <trkpt lat="45.19323" lon="5.6627">
        <ele>442</ele>
        <time>2015-04-09T18:08:05.000Z</time>
      </trkpt>
      <trkpt lat="45.19323" lon="5.6627">
        <ele>442</ele>
        <time>2015-04-09T18:08:07.000Z</time>
      </trkpt>
      <trkpt lat="45.19323" lon="5.6627">
        <ele>442</ele>
        <time>2015-04-09T18:08:09.000Z</time>
      </trkpt>
      <trkpt lat="45.19323" lon="5.6627">
        <ele>442</ele>
        <time>2015-04-09T18:08:11.000Z</time>
      </trkpt>
      <trkpt lat="45.19323" lon="5.6627">
        <ele>442</ele>
        <time>2015-04-09T18:08:13.000Z</time>
      </trkpt>
      <trkpt lat="45.19323" lon="5.6627">
        <ele>442</ele>
        <time>2015-04-09T18:08:15.000Z</time>
      </trkpt>
      <trkpt lat="45.19323" lon="5.6627">
        <ele>442</ele>
        <time>2015-04-09T18:08:17.000Z</time>
      </trkpt>
      <trkpt lat="45.19252" lon="5.66351">
        <ele>430</ele>
        <time>2015-04-09T18:08:19.000Z</time>
      </trkpt>
      <trkpt lat="45.19245" lon="5.66364">
        <ele>433</ele>
        <time>2015-04-09T18:08:23.000Z</time>
      </trkpt>
      <trkpt lat="45.19245" lon="5.66364">
        <ele>433</ele>
        <time>2015-04-09T18:08:25.000Z</time>
      </trkpt>
      <trkpt lat="45.19245" lon="5.66364">
        <ele>433</ele>
        <time>2015-04-09T18:08:27.000Z</time>
      </trkpt>
      <trkpt lat="45.19245" lon="5.66364">
        <ele>433</ele>
        <time>2015-04-09T18:08:29.000Z</time>
      </trkpt>
      <trkpt lat="45.19245" lon="5.66364">
        <ele>433</ele>
        <time>2015-04-09T18:08:31.000Z</time>
      </trkpt>
      <trkpt lat="45.19245" lon="5.66364">
        <ele>433</ele>
        <time>2015-04-09T18:08:33.000Z</time>
      </trkpt>
      <trkpt lat="45.19245" lon="5.66364">
        <ele>433</ele>
        <time>2015-04-09T18:08:35.000Z</time>
      </trkpt>
      <trkpt lat="45.19245" lon="5.66364">
        <ele>433</ele>
        <time>2015-04-09T18:08:37.000Z</time>
      </trkpt>
      <trkpt lat="45.19245" lon="5.66364">
        <ele>433</ele>
        <time>2015-04-09T18:08:39.000Z</time>
      </trkpt>
      <trkpt lat="45.19245" lon="5.66364">
        <ele>433</ele>
        <time>2015-04-09T18:08:41.000Z</time>
      </trkpt>
      <trkpt lat="45.19245" lon="5.66364">
        <ele>433</ele>
        <time>2015-04-09T18:08:43.000Z</time>
      </trkpt>
      <trkpt lat="45.19245" lon="5.66364">
        <ele>433</ele>
        <time>2015-04-09T18:08:45.000Z</time>
      </trkpt>
      <trkpt lat="45.19245" lon="5.66364">
        <ele>433</ele>
        <time>2015-04-09T18:08:47.000Z</time>
      </trkpt>
      <trkpt lat="45.19245" lon="5.66364">
        <ele>433</ele>
        <time>2015-04-09T18:08:49.000Z</time>
      </trkpt>
      <trkpt lat="45.19245" lon="5.66364">
        <ele>433</ele>
        <time>2015-04-09T18:08:51.000Z</time>
      </trkpt>
      <trkpt lat="45.19245" lon="5.66364">
        <ele>433</ele>
        <time>2015-04-09T18:08:53.000Z</time>
      </trkpt>
      <trkpt lat="45.19245" lon="5.66364">
        <ele>433</ele>
        <time>2015-04-09T18:08:55.000Z</time>
      </trkpt>
      <trkpt lat="45.19245" lon="5.66364">
        <ele>433</ele>
        <time>2015-04-09T18:08:57.000Z</time>
      </trkpt>
      <trkpt lat="45.19245" lon="5.66364">
        <ele>433</ele>
        <time>2015-04-09T18:08:59.000Z</time>
      </trkpt>
      <trkpt lat="45.19245" lon="5.66364">
        <ele>433</ele>
        <time>2015-04-09T18:09:01.000Z</time>
      </trkpt>
      <trkpt lat="45.19245" lon="5.66364">
        <ele>433</ele>
        <time>2015-04-09T18:09:03.000Z</time>
      </trkpt>
      <trkpt lat="45.19245" lon="5.66364">
        <ele>433</ele>
        <time>2015-04-09T18:09:05.000Z</time>
      </trkpt>
      <trkpt lat="45.19245" lon="5.66364">
        <ele>433</ele>
        <time>2015-04-09T18:09:07.000Z</time>
      </trkpt>
      <trkpt lat="45.19245" lon="5.66364">
        <ele>433</ele>
        <time>2015-04-09T18:09:09.000Z</time>
      </trkpt>
      <trkpt lat="45.19245" lon="5.66364">
        <ele>433</ele>
        <time>2015-04-09T18:09:11.000Z</time>
      </trkpt>
      <trkpt lat="45.19245" lon="5.66364">
        <ele>433</ele>
        <time>2015-04-09T18:09:13.000Z</time>
      </trkpt>
      <trkpt lat="45.19245" lon="5.66364">
        <ele>433</ele>
        <time>2015-04-09T18:09:15.000Z</time>
      </trkpt>
      <trkpt lat="45.19245" lon="5.66364">
        <ele>433</ele>
        <time>2015-04-09T18:09:17.000Z</time>
      </trkpt>
      <trkpt lat="45.19245" lon="5.66364">
        <ele>433</ele>
        <time>2015-04-09T18:09:19.000Z</time>
      </trkpt>
      <trkpt lat="45.19245" lon="5.66364">
        <ele>433</ele>
        <time>2015-04-09T18:09:21.000Z</time>
      </trkpt>
      <trkpt lat="45.19245" lon="5.66364">
        <ele>433</ele>
        <time>2015-04-09T18:09:23.000Z</time>
      </trkpt>
      <trkpt lat="45.19189" lon="5.66424">
        <ele>435</ele>
        <time>2015-04-09T18:09:25.000Z</time>
      </trkpt>
      <trkpt lat="45.1916" lon="5.66454">
        <ele>435</ele>
        <time>2015-04-09T18:09:27.000Z</time>
      </trkpt>
      <trkpt lat="45.19143" lon="5.66469">
        <ele>436</ele>
        <time>2015-04-09T18:09:29.000Z</time>
      </trkpt>
      <trkpt lat="45.19132" lon="5.66475">
        <ele>436</ele>
        <time>2015-04-09T18:09:31.000Z</time>
      </trkpt>
      <trkpt lat="45.19125" lon="5.66478">
        <ele>437</ele>
        <time>2015-04-09T18:09:33.000Z</time>
      </trkpt>
      <trkpt lat="45.19125" lon="5.66478">
        <ele>437</ele>
        <time>2015-04-09T18:09:35.000Z</time>
      </trkpt>
      <trkpt lat="45.19125" lon="5.66478">
        <ele>437</ele>
        <time>2015-04-09T18:09:37.000Z</time>
      </trkpt>
      <trkpt lat="45.19125" lon="5.66478">
        <ele>437</ele>
        <time>2015-04-09T18:09:39.000Z</time>
      </trkpt>
      <trkpt lat="45.19125" lon="5.66478">
        <ele>437</ele>
        <time>2015-04-09T18:09:41.000Z</time>
      </trkpt>
      <trkpt lat="45.19096" lon="5.66467">
        <ele>445</ele>
        <time>2015-04-09T18:09:49.000Z</time>
      </trkpt>
      <trkpt lat="45.19096" lon="5.66467">
        <ele>445</ele>
        <time>2015-04-09T18:09:55.000Z</time>
      </trkpt>
      <trkpt lat="45.19096" lon="5.66467">
        <ele>445</ele>
        <time>2015-04-09T18:09:57.000Z</time>
      </trkpt>
      <trkpt lat="45.19096" lon="5.66467">
        <ele>445</ele>
        <time>2015-04-09T18:09:59.000Z</time>
      </trkpt>
      <trkpt lat="45.19096" lon="5.66467">
        <ele>445</ele>
        <time>2015-04-09T18:10:01.000Z</time>
      </trkpt>
      <trkpt lat="45.19096" lon="5.66467">
        <ele>445</ele>
        <time>2015-04-09T18:10:03.000Z</time>
      </trkpt>
      <trkpt lat="45.19096" lon="5.66467">
        <ele>445</ele>
        <time>2015-04-09T18:10:05.000Z</time>
      </trkpt>
      <trkpt lat="45.19096" lon="5.66467">
        <ele>445</ele>
        <time>2015-04-09T18:10:07.000Z</time>
      </trkpt>
      <trkpt lat="45.19096" lon="5.66467">
        <ele>445</ele>
        <time>2015-04-09T18:10:09.000Z</time>
      </trkpt>
      <trkpt lat="45.19096" lon="5.66467">
        <ele>445</ele>
        <time>2015-04-09T18:10:11.000Z</time>
      </trkpt>
      <trkpt lat="45.19096" lon="5.66467">
        <ele>445</ele>
        <time>2015-04-09T18:10:13.000Z</time>
      </trkpt>
      <trkpt lat="45.19096" lon="5.66467">
        <ele>445</ele>
        <time>2015-04-09T18:10:15.000Z</time>
      </trkpt>
      <trkpt lat="45.19096" lon="5.66467">
        <ele>445</ele>
        <time>2015-04-09T18:10:17.000Z</time>
      </trkpt>
      <trkpt lat="45.19096" lon="5.66467">
        <ele>445</ele>
        <time>2015-04-09T18:10:19.000Z</time>
      </trkpt>
      <trkpt lat="45.19096" lon="5.66467">
        <ele>445</ele>
        <time>2015-04-09T18:10:21.000Z</time>
      </trkpt>
      <trkpt lat="45.19096" lon="5.66467">
        <ele>445</ele>
        <time>2015-04-09T18:10:23.000Z</time>
      </trkpt>
      <trkpt lat="45.19096" lon="5.66467">
        <ele>445</ele>
        <time>2015-04-09T18:10:25.000Z</time>
      </trkpt>
      <trkpt lat="45.19096" lon="5.66467">
        <ele>445</ele>
        <time>2015-04-09T18:10:27.000Z</time>
      </trkpt>
      <trkpt lat="45.19076" lon="5.66504">
        <ele>436</ele>
        <time>2015-04-09T18:11:11.000Z</time>
      </trkpt>
      <trkpt lat="45.19066" lon="5.66526">
        <ele>435</ele>
        <time>2015-04-09T18:11:13.000Z</time>
      </trkpt>
      <trkpt lat="45.1906" lon="5.66539">
        <ele>438</ele>
        <time>2015-04-09T18:11:15.000Z</time>
      </trkpt>
      <trkpt lat="45.19057" lon="5.66549">
        <ele>438</ele>
        <time>2015-04-09T18:11:17.000Z</time>
      </trkpt>
      <trkpt lat="45.19055" lon="5.66556">
        <ele>438</ele>
        <time>2015-04-09T18:11:19.000Z</time>
      </trkpt>
      <trkpt lat="45.19051" lon="5.66569">
        <ele>438</ele>
        <time>2015-04-09T18:11:21.000Z</time>
      </trkpt>
      <trkpt lat="45.19047" lon="5.66585">
        <ele>445</ele>
        <time>2015-04-09T18:11:27.000Z</time>
      </trkpt>
      <trkpt lat="45.19044" lon="5.66602">
        <ele>452</ele>
        <time>2015-04-09T18:11:33.000Z</time>
      </trkpt>
      <trkpt lat="45.19044" lon="5.66602">
        <ele>452</ele>
        <time>2015-04-09T18:11:37.000Z</time>
      </trkpt>
      <trkpt lat="45.19044" lon="5.66602">
        <ele>452</ele>
        <time>2015-04-09T18:11:39.000Z</time>
      </trkpt>
      <trkpt lat="45.19044" lon="5.66602">
        <ele>452</ele>
        <time>2015-04-09T18:11:41.000Z</time>
      </trkpt>
      <trkpt lat="45.19041" lon="5.66634">
        <ele>459</ele>
        <time>2015-04-09T18:11:45.000Z</time>
      </trkpt>
      <trkpt lat="45.19035" lon="5.6665">
        <ele>457</ele>
        <time>2015-04-09T18:11:51.000Z</time>
      </trkpt>
      <trkpt lat="45.19025" lon="5.66664">
        <ele>408</ele>
        <time>2015-04-09T18:11:57.000Z</time>
      </trkpt>
      <trkpt lat="45.19015" lon="5.66664">
        <ele>449</ele>
        <time>2015-04-09T18:12:03.000Z</time>
      </trkpt>
      <trkpt lat="45.19015" lon="5.66664">
        <ele>449</ele>
        <time>2015-04-09T18:12:05.000Z</time>
      </trkpt>
      <trkpt lat="45.19015" lon="5.66664">
        <ele>449</ele>
        <time>2015-04-09T18:12:07.000Z</time>
      </trkpt>
      <trkpt lat="45.19015" lon="5.66664">
        <ele>449</ele>
        <time>2015-04-09T18:12:09.000Z</time>
      </trkpt>
      <trkpt lat="45.19015" lon="5.66664">
        <ele>449</ele>
        <time>2015-04-09T18:12:11.000Z</time>
      </trkpt>
      <trkpt lat="45.19015" lon="5.66664">
        <ele>449</ele>
        <time>2015-04-09T18:12:13.000Z</time>
      </trkpt>
      <trkpt lat="45.18987" lon="5.66658">
        <ele>470</ele>
        <time>2015-04-09T18:12:17.000Z</time>
      </trkpt>
      <trkpt lat="45.18979" lon="5.66663">
        <ele>470</ele>
        <time>2015-04-09T18:12:21.000Z</time>
      </trkpt>
      <trkpt lat="45.1897" lon="5.6667">
        <ele>467</ele>
        <time>2015-04-09T18:12:25.000Z</time>
      </trkpt>
      <trkpt lat="45.18961" lon="5.66678">
        <ele>466</ele>
        <time>2015-04-09T18:12:29.000Z</time>
      </trkpt>
      <trkpt lat="45.18952" lon="5.66685">
        <ele>467</ele>
        <time>2015-04-09T18:12:33.000Z</time>
      </trkpt>
      <trkpt lat="45.18943" lon="5.66689">
        <ele>470</ele>
        <time>2015-04-09T18:12:37.000Z</time>
      </trkpt>
      <trkpt lat="45.18932" lon="5.66692">
        <ele>473</ele>
        <time>2015-04-09T18:12:43.000Z</time>
      </trkpt>
      <trkpt lat="45.18926" lon="5.66694">
        <ele>470</ele>
        <time>2015-04-09T18:12:49.000Z</time>
      </trkpt>
      <trkpt lat="45.18921" lon="5.66696">
        <ele>471</ele>
        <time>2015-04-09T18:12:51.000Z</time>
      </trkpt>
      <trkpt lat="45.18917" lon="5.66698">
        <ele>473</ele>
        <time>2015-04-09T18:12:53.000Z</time>
      </trkpt>
      <trkpt lat="45.18912" lon="5.667">
        <ele>473</ele>
        <time>2015-04-09T18:12:55.000Z</time>
      </trkpt>
      <trkpt lat="45.18907" lon="5.66703">
        <ele>474</ele>
        <time>2015-04-09T18:12:57.000Z</time>
      </trkpt>
      <trkpt lat="45.18898" lon="5.6671">
        <ele>476</ele>
        <time>2015-04-09T18:12:59.000Z</time>
      </trkpt>
      <trkpt lat="45.18888" lon="5.6672">
        <ele>473</ele>
        <time>2015-04-09T18:13:03.000Z</time>
      </trkpt>
      <trkpt lat="45.18879" lon="5.66728">
        <ele>470</ele>
        <time>2015-04-09T18:13:07.000Z</time>
      </trkpt>
      <trkpt lat="45.18869" lon="5.66734">
        <ele>473</ele>
        <time>2015-04-09T18:13:11.000Z</time>
      </trkpt>
      <trkpt lat="45.18858" lon="5.6674">
        <ele>466</ele>
        <time>2015-04-09T18:13:15.000Z</time>
      </trkpt>
      <trkpt lat="45.18849" lon="5.66751">
        <ele>468</ele>
        <time>2015-04-09T18:13:19.000Z</time>
      </trkpt>
      <trkpt lat="45.18842" lon="5.66764">
        <ele>466</ele>
        <time>2015-04-09T18:13:23.000Z</time>
      </trkpt>
      <trkpt lat="45.18838" lon="5.66778">
        <ele>470</ele>
        <time>2015-04-09T18:13:27.000Z</time>
      </trkpt>
      <trkpt lat="45.18838" lon="5.66778">
        <ele>470</ele>
        <time>2015-04-09T18:13:29.000Z</time>
      </trkpt>
      <trkpt lat="45.18838" lon="5.66778">
        <ele>470</ele>
        <time>2015-04-09T18:13:31.000Z</time>
      </trkpt>
      <trkpt lat="45.18838" lon="5.66778">
        <ele>470</ele>
        <time>2015-04-09T18:13:33.000Z</time>
      </trkpt>
      <trkpt lat="45.18838" lon="5.66778">
        <ele>470</ele>
        <time>2015-04-09T18:13:35.000Z</time>
      </trkpt>
      <trkpt lat="45.18838" lon="5.66778">
        <ele>470</ele>
        <time>2015-04-09T18:13:37.000Z</time>
      </trkpt>
      <trkpt lat="45.18838" lon="5.66778">
        <ele>470</ele>
        <time>2015-04-09T18:13:39.000Z</time>
      </trkpt>
      <trkpt lat="45.18838" lon="5.66778">
        <ele>470</ele>
        <time>2015-04-09T18:13:41.000Z</time>
      </trkpt>
      <trkpt lat="45.18838" lon="5.66778">
        <ele>470</ele>
        <time>2015-04-09T18:13:43.000Z</time>
      </trkpt>
      <trkpt lat="45.18838" lon="5.66778">
        <ele>470</ele>
        <time>2015-04-09T18:13:45.000Z</time>
      </trkpt>
      <trkpt lat="45.18838" lon="5.66778">
        <ele>470</ele>
        <time>2015-04-09T18:13:47.000Z</time>
      </trkpt>
      <trkpt lat="45.18838" lon="5.66778">
        <ele>470</ele>
        <time>2015-04-09T18:13:49.000Z</time>
      </trkpt>
      <trkpt lat="45.18838" lon="5.66778">
        <ele>470</ele>
        <time>2015-04-09T18:13:51.000Z</time>
      </trkpt>
      <trkpt lat="45.18838" lon="5.66778">
        <ele>470</ele>
        <time>2015-04-09T18:13:53.000Z</time>
      </trkpt>
      <trkpt lat="45.18838" lon="5.66778">
        <ele>470</ele>
        <time>2015-04-09T18:13:55.000Z</time>
      </trkpt>
      <trkpt lat="45.18838" lon="5.66778">
        <ele>470</ele>
        <time>2015-04-09T18:13:57.000Z</time>
      </trkpt>
      <trkpt lat="45.18838" lon="5.66778">
        <ele>470</ele>
        <time>2015-04-09T18:13:59.000Z</time>
      </trkpt>
      <trkpt lat="45.18838" lon="5.66778">
        <ele>470</ele>
        <time>2015-04-09T18:14:01.000Z</time>
      </trkpt>
      <trkpt lat="45.18838" lon="5.66778">
        <ele>470</ele>
        <time>2015-04-09T18:14:03.000Z</time>
      </trkpt>
      <trkpt lat="45.18838" lon="5.66778">
        <ele>470</ele>
        <time>2015-04-09T18:14:05.000Z</time>
      </trkpt>
      <trkpt lat="45.18838" lon="5.66778">
        <ele>470</ele>
        <time>2015-04-09T18:14:07.000Z</time>
      </trkpt>
      <trkpt lat="45.18838" lon="5.66778">
        <ele>470</ele>
        <time>2015-04-09T18:14:09.000Z</time>
      </trkpt>
      <trkpt lat="45.18838" lon="5.66778">
        <ele>470</ele>
        <time>2015-04-09T18:14:11.000Z</time>
      </trkpt>
      <trkpt lat="45.18838" lon="5.66778">
        <ele>470</ele>
        <time>2015-04-09T18:14:13.000Z</time>
      </trkpt>
      <trkpt lat="45.18838" lon="5.66778">
        <ele>470</ele>
        <time>2015-04-09T18:14:15.000Z</time>
      </trkpt>
      <trkpt lat="45.18838" lon="5.66778">
        <ele>470</ele>
        <time>2015-04-09T18:14:17.000Z</time>
      </trkpt>
      <trkpt lat="45.18838" lon="5.66778">
        <ele>470</ele>
        <time>2015-04-09T18:14:19.000Z</time>
      </trkpt>
      <trkpt lat="45.18838" lon="5.66778">
        <ele>470</ele>
        <time>2015-04-09T18:14:21.000Z</time>
      </trkpt>
      <trkpt lat="45.18838" lon="5.66778">
        <ele>470</ele>
        <time>2015-04-09T18:14:23.000Z</time>
      </trkpt>
      <trkpt lat="45.18838" lon="5.66778">
        <ele>470</ele>
        <time>2015-04-09T18:14:25.000Z</time>
      </trkpt>
      <trkpt lat="45.18884" lon="5.66824">
        <ele>469</ele>
        <time>2015-04-09T18:14:33.000Z</time>
      </trkpt>
      <trkpt lat="45.18909" lon="5.66846">
        <ele>468</ele>
        <time>2015-04-09T18:14:35.000Z</time>
      </trkpt>
      <trkpt lat="45.18923" lon="5.66857">
        <ele>467</ele>
        <time>2015-04-09T18:14:37.000Z</time>
      </trkpt>
      <trkpt lat="45.18931" lon="5.66862">
        <ele>464</ele>
        <time>2015-04-09T18:14:39.000Z</time>
      </trkpt>
      <trkpt lat="45.18936" lon="5.66865">
        <ele>463</ele>
        <time>2015-04-09T18:14:41.000Z</time>
      </trkpt>
      <trkpt lat="45.18936" lon="5.66865">
        <ele>463</ele>
        <time>2015-04-09T18:14:43.000Z</time>
      </trkpt>
      <trkpt lat="45.18936" lon="5.66865">
        <ele>463</ele>
        <time>2015-04-09T18:14:45.000Z</time>
      </trkpt>
      <trkpt lat="45.18936" lon="5.66865">
        <ele>463</ele>
        <time>2015-04-09T18:14:47.000Z</time>
      </trkpt>
      <trkpt lat="45.18942" lon="5.66879">
        <ele>467</ele>
        <time>2015-04-09T18:14:55.000Z</time>
      </trkpt>
      <trkpt lat="45.1894" lon="5.66893">
        <ele>470</ele>
        <time>2015-04-09T18:15:01.000Z</time>
      </trkpt>
      <trkpt lat="45.18934" lon="5.66906">
        <ele>478</ele>
        <time>2015-04-09T18:15:09.000Z</time>
      </trkpt>
      <trkpt lat="45.18934" lon="5.66906">
        <ele>478</ele>
        <time>2015-04-09T18:15:11.000Z</time>
      </trkpt>
      <trkpt lat="45.18934" lon="5.66906">
        <ele>478</ele>
        <time>2015-04-09T18:15:13.000Z</time>
      </trkpt>
      <trkpt lat="45.18934" lon="5.66906">
        <ele>478</ele>
        <time>2015-04-09T18:15:15.000Z</time>
      </trkpt>
      <trkpt lat="45.18934" lon="5.66906">
        <ele>478</ele>
        <time>2015-04-09T18:15:17.000Z</time>
      </trkpt>
      <trkpt lat="45.18934" lon="5.66906">
        <ele>478</ele>
        <time>2015-04-09T18:15:19.000Z</time>
      </trkpt>
      <trkpt lat="45.18934" lon="5.66906">
        <ele>478</ele>
        <time>2015-04-09T18:15:21.000Z</time>
      </trkpt>
      <trkpt lat="45.18934" lon="5.66906">
        <ele>478</ele>
        <time>2015-04-09T18:15:23.000Z</time>
      </trkpt>
      <trkpt lat="45.18934" lon="5.66906">
        <ele>478</ele>
        <time>2015-04-09T18:15:25.000Z</time>
      </trkpt>
      <trkpt lat="45.18922" lon="5.66947">
        <ele>482</ele>
        <time>2015-04-09T18:15:31.000Z</time>
      </trkpt>
      <trkpt lat="45.18921" lon="5.66961">
        <ele>484</ele>
        <time>2015-04-09T18:15:37.000Z</time>
      </trkpt>
      <trkpt lat="45.18921" lon="5.66961">
        <ele>484</ele>
        <time>2015-04-09T18:15:39.000Z</time>
      </trkpt>
      <trkpt lat="45.18921" lon="5.66961">
        <ele>484</ele>
        <time>2015-04-09T18:15:41.000Z</time>
      </trkpt>
      <trkpt lat="45.18914" lon="5.66971">
        <ele>481</ele>
        <time>2015-04-09T18:15:43.000Z</time>
      </trkpt>
      <trkpt lat="45.18914" lon="5.66971">
        <ele>481</ele>
        <time>2015-04-09T18:15:45.000Z</time>
      </trkpt>
      <trkpt lat="45.18914" lon="5.66971">
        <ele>481</ele>
        <time>2015-04-09T18:15:47.000Z</time>
      </trkpt>
      <trkpt lat="45.18914" lon="5.66971">
        <ele>481</ele>
        <time>2015-04-09T18:15:49.000Z</time>
      </trkpt>
      <trkpt lat="45.18914" lon="5.66971">
        <ele>481</ele>
        <time>2015-04-09T18:15:51.000Z</time>
      </trkpt>
      <trkpt lat="45.18914" lon="5.66971">
        <ele>481</ele>
        <time>2015-04-09T18:15:53.000Z</time>
      </trkpt>
      <trkpt lat="45.18914" lon="5.66971">
        <ele>481</ele>
        <time>2015-04-09T18:15:55.000Z</time>
      </trkpt>
      <trkpt lat="45.18914" lon="5.66971">
        <ele>481</ele>
        <time>2015-04-09T18:15:57.000Z</time>
      </trkpt>
      <trkpt lat="45.18914" lon="5.66971">
        <ele>481</ele>
        <time>2015-04-09T18:15:59.000Z</time>
      </trkpt>
      <trkpt lat="45.18914" lon="5.66971">
        <ele>481</ele>
        <time>2015-04-09T18:16:01.000Z</time>
      </trkpt>
      <trkpt lat="45.18914" lon="5.66971">
        <ele>481</ele>
        <time>2015-04-09T18:16:03.000Z</time>
      </trkpt>
      <trkpt lat="45.18914" lon="5.66971">
        <ele>481</ele>
        <time>2015-04-09T18:16:05.000Z</time>
      </trkpt>
      <trkpt lat="45.18914" lon="5.66971">
        <ele>481</ele>
        <time>2015-04-09T18:16:07.000Z</time>
      </trkpt>
      <trkpt lat="45.18902" lon="5.66995">
        <ele>482</ele>
        <time>2015-04-09T18:16:11.000Z</time>
      </trkpt>
      <trkpt lat="45.18895" lon="5.67008">
        <ele>481</ele>
        <time>2015-04-09T18:16:13.000Z</time>
      </trkpt>
      <trkpt lat="45.18889" lon="5.67016">
        <ele>482</ele>
        <time>2015-04-09T18:16:15.000Z</time>
      </trkpt>
      <trkpt lat="45.18885" lon="5.67022">
        <ele>485</ele>
        <time>2015-04-09T18:16:17.000Z</time>
      </trkpt>
      <trkpt lat="45.18882" lon="5.67027">
        <ele>475</ele>
        <time>2015-04-09T18:16:19.000Z</time>
      </trkpt>
      <trkpt lat="45.18882" lon="5.67027">
        <ele>475</ele>
        <time>2015-04-09T18:16:21.000Z</time>
      </trkpt>
      <trkpt lat="45.18882" lon="5.67027">
        <ele>475</ele>
        <time>2015-04-09T18:16:23.000Z</time>
      </trkpt>
      <trkpt lat="45.18882" lon="5.67027">
        <ele>475</ele>
        <time>2015-04-09T18:16:25.000Z</time>
      </trkpt>
      <trkpt lat="45.18869" lon="5.67045">
        <ele>481</ele>
        <time>2015-04-09T18:16:31.000Z</time>
      </trkpt>
      <trkpt lat="45.18859" lon="5.67048">
        <ele>477</ele>
        <time>2015-04-09T18:16:39.000Z</time>
      </trkpt>
      <trkpt lat="45.18859" lon="5.67048">
        <ele>477</ele>
        <time>2015-04-09T18:16:41.000Z</time>
      </trkpt>
      <trkpt lat="45.18859" lon="5.67048">
        <ele>477</ele>
        <time>2015-04-09T18:16:43.000Z</time>
      </trkpt>
      <trkpt lat="45.18859" lon="5.67048">
        <ele>477</ele>
        <time>2015-04-09T18:16:45.000Z</time>
      </trkpt>
      <trkpt lat="45.18859" lon="5.67048">
        <ele>477</ele>
        <time>2015-04-09T18:16:47.000Z</time>
      </trkpt>
      <trkpt lat="45.18843" lon="5.67052">
        <ele>477</ele>
        <time>2015-04-09T18:16:49.000Z</time>
      </trkpt>
      <trkpt lat="45.18832" lon="5.67053">
        <ele>474</ele>
        <time>2015-04-09T18:16:55.000Z</time>
      </trkpt>
      <trkpt lat="45.18832" lon="5.67053">
        <ele>474</ele>
        <time>2015-04-09T18:16:57.000Z</time>
      </trkpt>
      <trkpt lat="45.18832" lon="5.67053">
        <ele>474</ele>
        <time>2015-04-09T18:16:59.000Z</time>
      </trkpt>
      <trkpt lat="45.18821" lon="5.67064">
        <ele>474</ele>
        <time>2015-04-09T18:17:03.000Z</time>
      </trkpt>
      <trkpt lat="45.18809" lon="5.67071">
        <ele>481</ele>
        <time>2015-04-09T18:17:09.000Z</time>
      </trkpt>
      <trkpt lat="45.18809" lon="5.67071">
        <ele>481</ele>
        <time>2015-04-09T18:17:13.000Z</time>
      </trkpt>
      <trkpt lat="45.18809" lon="5.67071">
        <ele>481</ele>
        <time>2015-04-09T18:17:15.000Z</time>
      </trkpt>
      <trkpt lat="45.18809" lon="5.67071">
        <ele>481</ele>
        <time>2015-04-09T18:17:17.000Z</time>
      </trkpt>
      <trkpt lat="45.18809" lon="5.67071">
        <ele>481</ele>
        <time>2015-04-09T18:17:19.000Z</time>
      </trkpt>
      <trkpt lat="45.18809" lon="5.67071">
        <ele>481</ele>
        <time>2015-04-09T18:17:21.000Z</time>
      </trkpt>
      <trkpt lat="45.18809" lon="5.67071">
        <ele>481</ele>
        <time>2015-04-09T18:17:23.000Z</time>
      </trkpt>
      <trkpt lat="45.18809" lon="5.67071">
        <ele>481</ele>
        <time>2015-04-09T18:17:25.000Z</time>
      </trkpt>
      <trkpt lat="45.18811" lon="5.67085">
        <ele>471</ele>
        <time>2015-04-09T18:17:35.000Z</time>
      </trkpt>
      <trkpt lat="45.18814" lon="5.67093">
        <ele>473</ele>
        <time>2015-04-09T18:17:37.000Z</time>
      </trkpt>
      <trkpt lat="45.18814" lon="5.67093">
        <ele>473</ele>
        <time>2015-04-09T18:17:39.000Z</time>
      </trkpt>
      <trkpt lat="45.18814" lon="5.67093">
        <ele>473</ele>
        <time>2015-04-09T18:17:41.000Z</time>
      </trkpt>
      <trkpt lat="45.18824" lon="5.671">
        <ele>470</ele>
        <time>2015-04-09T18:17:47.000Z</time>
      </trkpt>
      <trkpt lat="45.18831" lon="5.67105">
        <ele>468</ele>
        <time>2015-04-09T18:17:49.000Z</time>
      </trkpt>
      <trkpt lat="45.18837" lon="5.67107">
        <ele>466</ele>
        <time>2015-04-09T18:17:51.000Z</time>
      </trkpt>
      <trkpt lat="45.18837" lon="5.67107">
        <ele>466</ele>
        <time>2015-04-09T18:17:53.000Z</time>
      </trkpt>
      <trkpt lat="45.18837" lon="5.67107">
        <ele>466</ele>
        <time>2015-04-09T18:17:55.000Z</time>
      </trkpt>
      <trkpt lat="45.18837" lon="5.67107">
        <ele>466</ele>
        <time>2015-04-09T18:17:57.000Z</time>
      </trkpt>
      <trkpt lat="45.18853" lon="5.67116">
        <ele>460</ele>
        <time>2015-04-09T18:18:27.000Z</time>
      </trkpt>
      <trkpt lat="45.18863" lon="5.6712">
        <ele>463</ele>
        <time>2015-04-09T18:18:29.000Z</time>
      </trkpt>
      <trkpt lat="45.1887" lon="5.67123">
        <ele>465</ele>
        <time>2015-04-09T18:18:31.000Z</time>
      </trkpt>
      <trkpt lat="45.18876" lon="5.67125">
        <ele>465</ele>
        <time>2015-04-09T18:18:33.000Z</time>
      </trkpt>
      <trkpt lat="45.18881" lon="5.67129">
        <ele>460</ele>
        <time>2015-04-09T18:18:37.000Z</time>
      </trkpt>
      <trkpt lat="45.18881" lon="5.67129">
        <ele>460</ele>
        <time>2015-04-09T18:18:39.000Z</time>
      </trkpt>
      <trkpt lat="45.1889" lon="5.67134">
        <ele>463</ele>
        <time>2015-04-09T18:18:43.000Z</time>
      </trkpt>
      <trkpt lat="45.18897" lon="5.67137">
        <ele>467</ele>
        <time>2015-04-09T18:18:45.000Z</time>
      </trkpt>
      <trkpt lat="45.18902" lon="5.67139">
        <ele>469</ele>
        <time>2015-04-09T18:18:47.000Z</time>
      </trkpt>
      <trkpt lat="45.18902" lon="5.67139">
        <ele>469</ele>
        <time>2015-04-09T18:18:49.000Z</time>
      </trkpt>
      <trkpt lat="45.18902" lon="5.67139">
        <ele>469</ele>
        <time>2015-04-09T18:18:51.000Z</time>
      </trkpt>
      <trkpt lat="45.18902" lon="5.67139">
        <ele>469</ele>
        <time>2015-04-09T18:18:53.000Z</time>
      </trkpt>
      <trkpt lat="45.18902" lon="5.67139">
        <ele>469</ele>
        <time>2015-04-09T18:18:55.000Z</time>
      </trkpt>
      <trkpt lat="45.18917" lon="5.67151">
        <ele>456</ele>
        <time>2015-04-09T18:19:05.000Z</time>
      </trkpt>
      <trkpt lat="45.18927" lon="5.67161">
        <ele>452</ele>
        <time>2015-04-09T18:19:07.000Z</time>
      </trkpt>
      <trkpt lat="45.18932" lon="5.67168">
        <ele>455</ele>
        <time>2015-04-09T18:19:09.000Z</time>
      </trkpt>
      <trkpt lat="45.18937" lon="5.67172">
        <ele>455</ele>
        <time>2015-04-09T18:19:11.000Z</time>
      </trkpt>
      <trkpt lat="45.18937" lon="5.67172">
        <ele>455</ele>
        <time>2015-04-09T18:19:13.000Z</time>
      </trkpt>
      <trkpt lat="45.18937" lon="5.67172">
        <ele>455</ele>
        <time>2015-04-09T18:19:15.000Z</time>
      </trkpt>
      <trkpt lat="45.18942" lon="5.67189">
        <ele>444</ele>
        <time>2015-04-09T18:19:21.000Z</time>
      </trkpt>
      <trkpt lat="45.18946" lon="5.67197">
        <ele>438</ele>
        <time>2015-04-09T18:19:23.000Z</time>
      </trkpt>
      <trkpt lat="45.18951" lon="5.67202">
        <ele>440</ele>
        <time>2015-04-09T18:19:25.000Z</time>
      </trkpt>
      <trkpt lat="45.18955" lon="5.67206">
        <ele>443</ele>
        <time>2015-04-09T18:19:27.000Z</time>
      </trkpt>
      <trkpt lat="45.18959" lon="5.67213">
        <ele>440</ele>
        <time>2015-04-09T18:19:31.000Z</time>
      </trkpt>
      <trkpt lat="45.18958" lon="5.6722">
        <ele>439</ele>
        <time>2015-04-09T18:19:35.000Z</time>
      </trkpt>
      <trkpt lat="45.18954" lon="5.67227">
        <ele>435</ele>
        <time>2015-04-09T18:19:39.000Z</time>
      </trkpt>
      <trkpt lat="45.18952" lon="5.67231">
        <ele>437</ele>
        <time>2015-04-09T18:19:41.000Z</time>
      </trkpt>
      <trkpt lat="45.18948" lon="5.67237">
        <ele>440</ele>
        <time>2015-04-09T18:19:45.000Z</time>
      </trkpt>
      <trkpt lat="45.18944" lon="5.67243">
        <ele>433</ele>
        <time>2015-04-09T18:19:47.000Z</time>
      </trkpt>
      <trkpt lat="45.18941" lon="5.67249">
        <ele>435</ele>
        <time>2015-04-09T18:19:49.000Z</time>
      </trkpt>
      <trkpt lat="45.1894" lon="5.67255">
        <ele>429</ele>
        <time>2015-04-09T18:19:51.000Z</time>
      </trkpt>
      <trkpt lat="45.18937" lon="5.67261">
        <ele>427</ele>
        <time>2015-04-09T18:19:53.000Z</time>
      </trkpt>
      <trkpt lat="45.18937" lon="5.67261">
        <ele>427</ele>
        <time>2015-04-09T18:19:55.000Z</time>
      </trkpt>
      <trkpt lat="45.18937" lon="5.67261">
        <ele>427</ele>
        <time>2015-04-09T18:19:57.000Z</time>
      </trkpt>
      <trkpt lat="45.18937" lon="5.67261">
        <ele>427</ele>
        <time>2015-04-09T18:19:59.000Z</time>
      </trkpt>
      <trkpt lat="45.18937" lon="5.67261">
        <ele>427</ele>
        <time>2015-04-09T18:20:01.000Z</time>
      </trkpt>
      <trkpt lat="45.18937" lon="5.67261">
        <ele>427</ele>
        <time>2015-04-09T18:20:03.000Z</time>
      </trkpt>
      <trkpt lat="45.18937" lon="5.67261">
        <ele>427</ele>
        <time>2015-04-09T18:20:05.000Z</time>
      </trkpt>
      <trkpt lat="45.18933" lon="5.67297">
        <ele>435</ele>
        <time>2015-04-09T18:20:11.000Z</time>
      </trkpt>
      <trkpt lat="45.18929" lon="5.67309">
        <ele>430</ele>
        <time>2015-04-09T18:20:17.000Z</time>
      </trkpt>
      <trkpt lat="45.18929" lon="5.67309">
        <ele>430</ele>
        <time>2015-04-09T18:20:19.000Z</time>
      </trkpt>
      <trkpt lat="45.18929" lon="5.67309">
        <ele>430</ele>
        <time>2015-04-09T18:20:21.000Z</time>
      </trkpt>
      <trkpt lat="45.18929" lon="5.67309">
        <ele>430</ele>
        <time>2015-04-09T18:20:23.000Z</time>
      </trkpt>
      <trkpt lat="45.1893" lon="5.67329">
        <ele>422</ele>
        <time>2015-04-09T18:20:25.000Z</time>
      </trkpt>
      <trkpt lat="45.18934" lon="5.67343">
        <ele>427</ele>
        <time>2015-04-09T18:20:29.000Z</time>
      </trkpt>
      <trkpt lat="45.18934" lon="5.67343">
        <ele>427</ele>
        <time>2015-04-09T18:20:33.000Z</time>
      </trkpt>
      <trkpt lat="45.18934" lon="5.67343">
        <ele>427</ele>
        <time>2015-04-09T18:20:35.000Z</time>
      </trkpt>
      <trkpt lat="45.18946" lon="5.67371">
        <ele>411</ele>
        <time>2015-04-09T18:20:37.000Z</time>
      </trkpt>
      <trkpt lat="45.18951" lon="5.67393">
        <ele>410</ele>
        <time>2015-04-09T18:20:41.000Z</time>
      </trkpt>
      <trkpt lat="45.1895" lon="5.67409">
        <ele>414</ele>
        <time>2015-04-09T18:20:45.000Z</time>
      </trkpt>
      <trkpt lat="45.1895" lon="5.67409">
        <ele>414</ele>
        <time>2015-04-09T18:20:47.000Z</time>
      </trkpt>
      <trkpt lat="45.1895" lon="5.67409">
        <ele>414</ele>
        <time>2015-04-09T18:20:49.000Z</time>
      </trkpt>
      <trkpt lat="45.1895" lon="5.67409">
        <ele>414</ele>
        <time>2015-04-09T18:20:51.000Z</time>
      </trkpt>
      <trkpt lat="45.1895" lon="5.67409">
        <ele>414</ele>
        <time>2015-04-09T18:20:55.000Z</time>
      </trkpt>
      <trkpt lat="45.1895" lon="5.67409">
        <ele>414</ele>
        <time>2015-04-09T18:20:57.000Z</time>
      </trkpt>
      <trkpt lat="45.1895" lon="5.67409">
        <ele>414</ele>
        <time>2015-04-09T18:20:59.000Z</time>
      </trkpt>
      <trkpt lat="45.1895" lon="5.67409">
        <ele>414</ele>
        <time>2015-04-09T18:21:01.000Z</time>
      </trkpt>
      <trkpt lat="45.1895" lon="5.67409">
        <ele>414</ele>
        <time>2015-04-09T18:21:03.000Z</time>
      </trkpt>
      <trkpt lat="45.1895" lon="5.67409">
        <ele>414</ele>
        <time>2015-04-09T18:21:05.000Z</time>
      </trkpt>
      <trkpt lat="45.1895" lon="5.67409">
        <ele>414</ele>
        <time>2015-04-09T18:21:07.000Z</time>
      </trkpt>
      <trkpt lat="45.1895" lon="5.67409">
        <ele>414</ele>
        <time>2015-04-09T18:21:09.000Z</time>
      </trkpt>
      <trkpt lat="45.1895" lon="5.67409">
        <ele>414</ele>
        <time>2015-04-09T18:21:11.000Z</time>
      </trkpt>
      <trkpt lat="45.1895" lon="5.67409">
        <ele>414</ele>
        <time>2015-04-09T18:21:13.000Z</time>
      </trkpt>
      <trkpt lat="45.1895" lon="5.67409">
        <ele>414</ele>
        <time>2015-04-09T18:21:15.000Z</time>
      </trkpt>
      <trkpt lat="45.18969" lon="5.67452">
        <ele>393</ele>
        <time>2015-04-09T18:21:17.000Z</time>
      </trkpt>
      <trkpt lat="45.18979" lon="5.67478">
        <ele>391</ele>
        <time>2015-04-09T18:21:19.000Z</time>
      </trkpt>
      <trkpt lat="45.18983" lon="5.67494">
        <ele>392</ele>
        <time>2015-04-09T18:21:21.000Z</time>
      </trkpt>
      <trkpt lat="45.18987" lon="5.67505">
        <ele>393</ele>
        <time>2015-04-09T18:21:23.000Z</time>
      </trkpt>
      <trkpt lat="45.18988" lon="5.67514">
        <ele>392</ele>
        <time>2015-04-09T18:21:25.000Z</time>
      </trkpt>
      <trkpt lat="45.1899" lon="5.67528">
        <ele>392</ele>
        <time>2015-04-09T18:21:27.000Z</time>
      </trkpt>
      <trkpt lat="45.1899" lon="5.67528">
        <ele>392</ele>
        <time>2015-04-09T18:21:29.000Z</time>
      </trkpt>
      <trkpt lat="45.1899" lon="5.67528">
        <ele>392</ele>
        <time>2015-04-09T18:21:31.000Z</time>
      </trkpt>
      <trkpt lat="45.1899" lon="5.67528">
        <ele>392</ele>
        <time>2015-04-09T18:21:33.000Z</time>
      </trkpt>
      <trkpt lat="45.1899" lon="5.67528">
        <ele>392</ele>
        <time>2015-04-09T18:21:35.000Z</time>
      </trkpt>
      <trkpt lat="45.1899" lon="5.67528">
        <ele>392</ele>
        <time>2015-04-09T18:21:37.000Z</time>
      </trkpt>
      <trkpt lat="45.1899" lon="5.67528">
        <ele>392</ele>
        <time>2015-04-09T18:21:39.000Z</time>
      </trkpt>
      <trkpt lat="45.1899" lon="5.67528">
        <ele>392</ele>
        <time>2015-04-09T18:21:41.000Z</time>
      </trkpt>
      <trkpt lat="45.1899" lon="5.67528">
        <ele>392</ele>
        <time>2015-04-09T18:21:43.000Z</time>
      </trkpt>
      <trkpt lat="45.18987" lon="5.67587">
        <ele>384</ele>
        <time>2015-04-09T18:21:47.000Z</time>
      </trkpt>
      <trkpt lat="45.18983" lon="5.67601">
        <ele>377</ele>
        <time>2015-04-09T18:21:51.000Z</time>
      </trkpt>
      <trkpt lat="45.18978" lon="5.67615">
        <ele>375</ele>
        <time>2015-04-09T18:21:55.000Z</time>
      </trkpt>
      <trkpt lat="45.1897" lon="5.67625">
        <ele>369</ele>
        <time>2015-04-09T18:21:59.000Z</time>
      </trkpt>
      <trkpt lat="45.18962" lon="5.67635">
        <ele>367</ele>
        <time>2015-04-09T18:22:03.000Z</time>
      </trkpt>
      <trkpt lat="45.18953" lon="5.67643">
        <ele>364</ele>
        <time>2015-04-09T18:22:07.000Z</time>
      </trkpt>
      <trkpt lat="45.18946" lon="5.67654">
        <ele>366</ele>
        <time>2015-04-09T18:22:11.000Z</time>
      </trkpt>
      <trkpt lat="45.18946" lon="5.67654">
        <ele>366</ele>
        <time>2015-04-09T18:22:17.000Z</time>
      </trkpt>
      <trkpt lat="45.18946" lon="5.67654">
        <ele>366</ele>
        <time>2015-04-09T18:22:19.000Z</time>
      </trkpt>
      <trkpt lat="45.18946" lon="5.67654">
        <ele>366</ele>
        <time>2015-04-09T18:22:22.000Z</time>
      </trkpt>
      <trkpt lat="45.18946" lon="5.67654">
        <ele>366</ele>
        <time>2015-04-09T18:22:23.000Z</time>
      </trkpt>
      <trkpt lat="45.18946" lon="5.67654">
        <ele>366</ele>
        <time>2015-04-09T18:22:25.000Z</time>
      </trkpt>
      <trkpt lat="45.18946" lon="5.67654">
        <ele>366</ele>
        <time>2015-04-09T18:22:27.000Z</time>
      </trkpt>
      <trkpt lat="45.18905" lon="5.6768">
        <ele>375</ele>
        <time>2015-04-09T18:22:31.000Z</time>
      </trkpt>
      <trkpt lat="45.18905" lon="5.6768">
        <ele>375</ele>
        <time>2015-04-09T18:22:33.000Z</time>
      </trkpt>
      <trkpt lat="45.18905" lon="5.6768">
        <ele>375</ele>
        <time>2015-04-09T18:22:35.000Z</time>
      </trkpt>
      <trkpt lat="45.18905" lon="5.6768">
        <ele>375</ele>
        <time>2015-04-09T18:22:37.000Z</time>
      </trkpt>
      <trkpt lat="45.18905" lon="5.6768">
        <ele>375</ele>
        <time>2015-04-09T18:22:39.000Z</time>
      </trkpt>
      <trkpt lat="45.1888" lon="5.6769">
        <ele>368</ele>
        <time>2015-04-09T18:22:43.000Z</time>
      </trkpt>
      <trkpt lat="45.18874" lon="5.67689">
        <ele>367</ele>
        <time>2015-04-09T18:22:47.000Z</time>
      </trkpt>
      <trkpt lat="45.18869" lon="5.67688">
        <ele>368</ele>
        <time>2015-04-09T18:22:49.000Z</time>
      </trkpt>
      <trkpt lat="45.18864" lon="5.67688">
        <ele>370</ele>
        <time>2015-04-09T18:22:51.000Z</time>
      </trkpt>
      <trkpt lat="45.18859" lon="5.67686">
        <ele>372</ele>
        <time>2015-04-09T18:22:53.000Z</time>
      </trkpt>
      <trkpt lat="45.18852" lon="5.67685">
        <ele>374</ele>
        <time>2015-04-09T18:22:57.000Z</time>
      </trkpt>
      <trkpt lat="45.18846" lon="5.67686">
        <ele>373</ele>
        <time>2015-04-09T18:22:59.000Z</time>
      </trkpt>
      <trkpt lat="45.18842" lon="5.67689">
        <ele>377</ele>
        <time>2015-04-09T18:23:01.000Z</time>
      </trkpt>
      <trkpt lat="45.18837" lon="5.67692">
        <ele>376</ele>
        <time>2015-04-09T18:23:03.000Z</time>
      </trkpt>
      <trkpt lat="45.18832" lon="5.67696">
        <ele>374</ele>
        <time>2015-04-09T18:23:05.000Z</time>
      </trkpt>
      <trkpt lat="45.18822" lon="5.67702">
        <ele>371</ele>
        <time>2015-04-09T18:23:07.000Z</time>
      </trkpt>
      <trkpt lat="45.18813" lon="5.67709">
        <ele>374</ele>
        <time>2015-04-09T18:23:11.000Z</time>
      </trkpt>
      <trkpt lat="45.18805" lon="5.67716">
        <ele>373</ele>
        <time>2015-04-09T18:23:15.000Z</time>
      </trkpt>
      <trkpt lat="45.18796" lon="5.67723">
        <ele>373</ele>
        <time>2015-04-09T18:23:19.000Z</time>
      </trkpt>
      <trkpt lat="45.18785" lon="5.67728">
        <ele>372</ele>
        <time>2015-04-09T18:23:23.000Z</time>
      </trkpt>
      <trkpt lat="45.18776" lon="5.6773">
        <ele>371</ele>
        <time>2015-04-09T18:23:27.000Z</time>
      </trkpt>
      <trkpt lat="45.18776" lon="5.6773">
        <ele>371</ele>
        <time>2015-04-09T18:23:29.000Z</time>
      </trkpt>
      <trkpt lat="45.18776" lon="5.6773">
        <ele>371</ele>
        <time>2015-04-09T18:23:31.000Z</time>
      </trkpt>
      <trkpt lat="45.18776" lon="5.6773">
        <ele>371</ele>
        <time>2015-04-09T18:23:33.000Z</time>
      </trkpt>
      <trkpt lat="45.18776" lon="5.6773">
        <ele>371</ele>
        <time>2015-04-09T18:23:35.000Z</time>
      </trkpt>
      <trkpt lat="45.18776" lon="5.6773">
        <ele>371</ele>
        <time>2015-04-09T18:23:37.000Z</time>
      </trkpt>
      <trkpt lat="45.18776" lon="5.6773">
        <ele>371</ele>
        <time>2015-04-09T18:23:39.000Z</time>
      </trkpt>
      <trkpt lat="45.18776" lon="5.6773">
        <ele>371</ele>
        <time>2015-04-09T18:23:41.000Z</time>
      </trkpt>
      <trkpt lat="45.18776" lon="5.6773">
        <ele>371</ele>
        <time>2015-04-09T18:23:43.000Z</time>
      </trkpt>
      <trkpt lat="45.18738" lon="5.67764">
        <ele>377</ele>
        <time>2015-04-09T18:23:45.000Z</time>
      </trkpt>
      <trkpt lat="45.18732" lon="5.67776">
        <ele>379</ele>
        <time>2015-04-09T18:23:49.000Z</time>
      </trkpt>
      <trkpt lat="45.18727" lon="5.67788">
        <ele>381</ele>
        <time>2015-04-09T18:23:53.000Z</time>
      </trkpt>
      <trkpt lat="45.18722" lon="5.67798">
        <ele>384</ele>
        <time>2015-04-09T18:23:57.000Z</time>
      </trkpt>
      <trkpt lat="45.18722" lon="5.67798">
        <ele>384</ele>
        <time>2015-04-09T18:23:59.000Z</time>
      </trkpt>
      <trkpt lat="45.18722" lon="5.67798">
        <ele>384</ele>
        <time>2015-04-09T18:24:01.000Z</time>
      </trkpt>
      <trkpt lat="45.18722" lon="5.67798">
        <ele>384</ele>
        <time>2015-04-09T18:24:03.000Z</time>
      </trkpt>
      <trkpt lat="45.18722" lon="5.67798">
        <ele>384</ele>
        <time>2015-04-09T18:24:05.000Z</time>
      </trkpt>
      <trkpt lat="45.18722" lon="5.67798">
        <ele>384</ele>
        <time>2015-04-09T18:24:07.000Z</time>
      </trkpt>
      <trkpt lat="45.18722" lon="5.67798">
        <ele>384</ele>
        <time>2015-04-09T18:24:09.000Z</time>
      </trkpt>
      <trkpt lat="45.18722" lon="5.67798">
        <ele>384</ele>
        <time>2015-04-09T18:24:11.000Z</time>
      </trkpt>
      <trkpt lat="45.1869" lon="5.67834">
        <ele>384</ele>
        <time>2015-04-09T18:24:13.000Z</time>
      </trkpt>
      <trkpt lat="45.18683" lon="5.67847">
        <ele>386</ele>
        <time>2015-04-09T18:24:17.000Z</time>
      </trkpt>
      <trkpt lat="45.18673" lon="5.67855">
        <ele>386</ele>
        <time>2015-04-09T18:24:21.000Z</time>
      </trkpt>
      <trkpt lat="45.18666" lon="5.67867">
        <ele>388</ele>
        <time>2015-04-09T18:24:25.000Z</time>
      </trkpt>
      <trkpt lat="45.18657" lon="5.67878">
        <ele>385</ele>
        <time>2015-04-09T18:24:29.000Z</time>
      </trkpt>
      <trkpt lat="45.18648" lon="5.67889">
        <ele>386</ele>
        <time>2015-04-09T18:24:33.000Z</time>
      </trkpt>
      <trkpt lat="45.18648" lon="5.67889">
        <ele>386</ele>
        <time>2015-04-09T18:24:35.000Z</time>
      </trkpt>
      <trkpt lat="45.18648" lon="5.67889">
        <ele>386</ele>
        <time>2015-04-09T18:24:37.000Z</time>
      </trkpt>
      <trkpt lat="45.18648" lon="5.67889">
        <ele>386</ele>
        <time>2015-04-09T18:24:39.000Z</time>
      </trkpt>
      <trkpt lat="45.18648" lon="5.67889">
        <ele>386</ele>
        <time>2015-04-09T18:24:41.000Z</time>
      </trkpt>
      <trkpt lat="45.18635" lon="5.67902">
        <ele>375</ele>
        <time>2015-04-09T18:24:45.000Z</time>
      </trkpt>
      <trkpt lat="45.18627" lon="5.6791">
        <ele>377</ele>
        <time>2015-04-09T18:24:47.000Z</time>
      </trkpt>
      <trkpt lat="45.18621" lon="5.67916">
        <ele>382</ele>
        <time>2015-04-09T18:24:49.000Z</time>
      </trkpt>
      <trkpt lat="45.18617" lon="5.67922">
        <ele>388</ele>
        <time>2015-04-09T18:24:51.000Z</time>
      </trkpt>
      <trkpt lat="45.18617" lon="5.67922">
        <ele>388</ele>
        <time>2015-04-09T18:24:53.000Z</time>
      </trkpt>
      <trkpt lat="45.18617" lon="5.67922">
        <ele>388</ele>
        <time>2015-04-09T18:24:55.000Z</time>
      </trkpt>
      <trkpt lat="45.18617" lon="5.67922">
        <ele>388</ele>
        <time>2015-04-09T18:24:57.000Z</time>
      </trkpt>
      <trkpt lat="45.18617" lon="5.67922">
        <ele>388</ele>
        <time>2015-04-09T18:24:59.000Z</time>
      </trkpt>
      <trkpt lat="45.18617" lon="5.67922">
        <ele>388</ele>
        <time>2015-04-09T18:25:01.000Z</time>
      </trkpt>
      <trkpt lat="45.18617" lon="5.67922">
        <ele>388</ele>
        <time>2015-04-09T18:25:03.000Z</time>
      </trkpt>
      <trkpt lat="45.18617" lon="5.67922">
        <ele>388</ele>
        <time>2015-04-09T18:25:05.000Z</time>
      </trkpt>
      <trkpt lat="45.18617" lon="5.67922">
        <ele>388</ele>
        <time>2015-04-09T18:25:07.000Z</time>
      </trkpt>
      <trkpt lat="45.18617" lon="5.67922">
        <ele>388</ele>
        <time>2015-04-09T18:25:09.000Z</time>
      </trkpt>
      <trkpt lat="45.18617" lon="5.67922">
        <ele>388</ele>
        <time>2015-04-09T18:25:11.000Z</time>
      </trkpt>
      <trkpt lat="45.18617" lon="5.67922">
        <ele>388</ele>
        <time>2015-04-09T18:25:13.000Z</time>
      </trkpt>
      <trkpt lat="45.18617" lon="5.67922">
        <ele>388</ele>
        <time>2015-04-09T18:25:15.000Z</time>
      </trkpt>
      <trkpt lat="45.18617" lon="5.67922">
        <ele>388</ele>
        <time>2015-04-09T18:25:17.000Z</time>
      </trkpt>
      <trkpt lat="45.18617" lon="5.67922">
        <ele>388</ele>
        <time>2015-04-09T18:25:19.000Z</time>
      </trkpt>
      <trkpt lat="45.18617" lon="5.67922">
        <ele>388</ele>
        <time>2015-04-09T18:25:21.000Z</time>
      </trkpt>
      <trkpt lat="45.18617" lon="5.67922">
        <ele>388</ele>
        <time>2015-04-09T18:25:23.000Z</time>
      </trkpt>
      <trkpt lat="45.18596" lon="5.67973">
        <ele>383</ele>
        <time>2015-04-09T18:25:27.000Z</time>
      </trkpt>
      <trkpt lat="45.18584" lon="5.68002">
        <ele>384</ele>
        <time>2015-04-09T18:25:29.000Z</time>
      </trkpt>
      <trkpt lat="45.18577" lon="5.68019">
        <ele>385</ele>
        <time>2015-04-09T18:25:31.000Z</time>
      </trkpt>
      <trkpt lat="45.18573" lon="5.68032">
        <ele>385</ele>
        <time>2015-04-09T18:25:33.000Z</time>
      </trkpt>
      <trkpt lat="45.1857" lon="5.68041">
        <ele>386</ele>
        <time>2015-04-09T18:25:35.000Z</time>
      </trkpt>
      <trkpt lat="45.18565" lon="5.68057">
        <ele>381</ele>
        <time>2015-04-09T18:25:37.000Z</time>
      </trkpt>
      <trkpt lat="45.18561" lon="5.68071">
        <ele>379</ele>
        <time>2015-04-09T18:25:41.000Z</time>
      </trkpt>
      <trkpt lat="45.18558" lon="5.68083">
        <ele>381</ele>
        <time>2015-04-09T18:25:45.000Z</time>
      </trkpt>
      <trkpt lat="45.18555" lon="5.68097">
        <ele>381</ele>
        <time>2015-04-09T18:25:49.000Z</time>
      </trkpt>
      <trkpt lat="45.18551" lon="5.6811">
        <ele>383</ele>
        <time>2015-04-09T18:25:53.000Z</time>
      </trkpt>
      <trkpt lat="45.18549" lon="5.68124">
        <ele>382</ele>
        <time>2015-04-09T18:25:57.000Z</time>
      </trkpt>
      <trkpt lat="45.18546" lon="5.68138">
        <ele>382</ele>
        <time>2015-04-09T18:26:01.000Z</time>
      </trkpt>
      <trkpt lat="45.18542" lon="5.68152">
        <ele>381</ele>
        <time>2015-04-09T18:26:05.000Z</time>
      </trkpt>
      <trkpt lat="45.18538" lon="5.68168">
        <ele>378</ele>
        <time>2015-04-09T18:26:09.000Z</time>
      </trkpt>
      <trkpt lat="45.18533" lon="5.68183">
        <ele>377</ele>
        <time>2015-04-09T18:26:13.000Z</time>
      </trkpt>
      <trkpt lat="45.18528" lon="5.68198">
        <ele>375</ele>
        <time>2015-04-09T18:26:17.000Z</time>
      </trkpt>
      <trkpt lat="45.18528" lon="5.68198">
        <ele>375</ele>
        <time>2015-04-09T18:26:19.000Z</time>
      </trkpt>
      <trkpt lat="45.18528" lon="5.68198">
        <ele>375</ele>
        <time>2015-04-09T18:26:21.000Z</time>
      </trkpt>
      <trkpt lat="45.18528" lon="5.68198">
        <ele>375</ele>
        <time>2015-04-09T18:26:23.000Z</time>
      </trkpt>
      <trkpt lat="45.18528" lon="5.68198">
        <ele>375</ele>
        <time>2015-04-09T18:26:25.000Z</time>
      </trkpt>
      <trkpt lat="45.18514" lon="5.68245">
        <ele>379</ele>
        <time>2015-04-09T18:26:33.000Z</time>
      </trkpt>
      <trkpt lat="45.18506" lon="5.68256">
        <ele>373</ele>
        <time>2015-04-09T18:26:37.000Z</time>
      </trkpt>
      <trkpt lat="45.18502" lon="5.68271">
        <ele>376</ele>
        <time>2015-04-09T18:26:41.000Z</time>
      </trkpt>
      <trkpt lat="45.18495" lon="5.68281">
        <ele>378</ele>
        <time>2015-04-09T18:26:45.000Z</time>
      </trkpt>
      <trkpt lat="45.18488" lon="5.68291">
        <ele>381</ele>
        <time>2015-04-09T18:26:49.000Z</time>
      </trkpt>
      <trkpt lat="45.18481" lon="5.68299">
        <ele>381</ele>
        <time>2015-04-09T18:26:53.000Z</time>
      </trkpt>
      <trkpt lat="45.18474" lon="5.68311">
        <ele>369</ele>
        <time>2015-04-09T18:26:57.000Z</time>
      </trkpt>
      <trkpt lat="45.18465" lon="5.68323">
        <ele>376</ele>
        <time>2015-04-09T18:27:01.000Z</time>
      </trkpt>
      <trkpt lat="45.1846" lon="5.68336">
        <ele>378</ele>
        <time>2015-04-09T18:27:05.000Z</time>
      </trkpt>
      <trkpt lat="45.1846" lon="5.68336">
        <ele>378</ele>
        <time>2015-04-09T18:27:09.000Z</time>
      </trkpt>
      <trkpt lat="45.1846" lon="5.68336">
        <ele>378</ele>
        <time>2015-04-09T18:27:11.000Z</time>
      </trkpt>
      <trkpt lat="45.1846" lon="5.68336">
        <ele>378</ele>
        <time>2015-04-09T18:27:13.000Z</time>
      </trkpt>
      <trkpt lat="45.1846" lon="5.68336">
        <ele>378</ele>
        <time>2015-04-09T18:27:15.000Z</time>
      </trkpt>
      <trkpt lat="45.1846" lon="5.68336">
        <ele>378</ele>
        <time>2015-04-09T18:27:17.000Z</time>
      </trkpt>
      <trkpt lat="45.1846" lon="5.68336">
        <ele>378</ele>
        <time>2015-04-09T18:27:19.000Z</time>
      </trkpt>
      <trkpt lat="45.1846" lon="5.68336">
        <ele>378</ele>
        <time>2015-04-09T18:27:21.000Z</time>
      </trkpt>
      <trkpt lat="45.1846" lon="5.68336">
        <ele>378</ele>
        <time>2015-04-09T18:27:23.000Z</time>
      </trkpt>
      <trkpt lat="45.1846" lon="5.68336">
        <ele>378</ele>
        <time>2015-04-09T18:27:25.000Z</time>
      </trkpt>
      <trkpt lat="45.18462" lon="5.68367">
        <ele>357</ele>
        <time>2015-04-09T18:27:29.000Z</time>
      </trkpt>
      <trkpt lat="45.18464" lon="5.68388">
        <ele>357</ele>
        <time>2015-04-09T18:27:31.000Z</time>
      </trkpt>
      <trkpt lat="45.18466" lon="5.68404">
        <ele>357</ele>
        <time>2015-04-09T18:27:33.000Z</time>
      </trkpt>
      <trkpt lat="45.18465" lon="5.68416">
        <ele>356</ele>
        <time>2015-04-09T18:27:35.000Z</time>
      </trkpt>
      <trkpt lat="45.18464" lon="5.68424">
        <ele>355</ele>
        <time>2015-04-09T18:27:37.000Z</time>
      </trkpt>
      <trkpt lat="45.18464" lon="5.68424">
        <ele>355</ele>
        <time>2015-04-09T18:27:39.000Z</time>
      </trkpt>
      <trkpt lat="45.18464" lon="5.68424">
        <ele>355</ele>
        <time>2015-04-09T18:27:41.000Z</time>
      </trkpt>
      <trkpt lat="45.18464" lon="5.68424">
        <ele>355</ele>
        <time>2015-04-09T18:27:43.000Z</time>
      </trkpt>
      <trkpt lat="45.18464" lon="5.68424">
        <ele>355</ele>
        <time>2015-04-09T18:27:45.000Z</time>
      </trkpt>
      <trkpt lat="45.1846" lon="5.68459">
        <ele>360</ele>
        <time>2015-04-09T18:27:49.000Z</time>
      </trkpt>
      <trkpt lat="45.18456" lon="5.68472">
        <ele>362</ele>
        <time>2015-04-09T18:27:53.000Z</time>
      </trkpt>
      <trkpt lat="45.18453" lon="5.68484">
        <ele>361</ele>
        <time>2015-04-09T18:27:57.000Z</time>
      </trkpt>
      <trkpt lat="45.18453" lon="5.68484">
        <ele>361</ele>
        <time>2015-04-09T18:27:59.000Z</time>
      </trkpt>
      <trkpt lat="45.18449" lon="5.68496">
        <ele>356</ele>
        <time>2015-04-09T18:28:01.000Z</time>
      </trkpt>
      <trkpt lat="45.18449" lon="5.68496">
        <ele>356</ele>
        <time>2015-04-09T18:28:03.000Z</time>
      </trkpt>
      <trkpt lat="45.18449" lon="5.68496">
        <ele>356</ele>
        <time>2015-04-09T18:28:05.000Z</time>
      </trkpt>
      <trkpt lat="45.18449" lon="5.68496">
        <ele>356</ele>
        <time>2015-04-09T18:28:07.000Z</time>
      </trkpt>
      <trkpt lat="45.18449" lon="5.68496">
        <ele>356</ele>
        <time>2015-04-09T18:28:09.000Z</time>
      </trkpt>
      <trkpt lat="45.18449" lon="5.68496">
        <ele>356</ele>
        <time>2015-04-09T18:28:11.000Z</time>
      </trkpt>
      <trkpt lat="45.18449" lon="5.68496">
        <ele>356</ele>
        <time>2015-04-09T18:28:13.000Z</time>
      </trkpt>
      <trkpt lat="45.18449" lon="5.68496">
        <ele>356</ele>
        <time>2015-04-09T18:28:15.000Z</time>
      </trkpt>
      <trkpt lat="45.18449" lon="5.68496">
        <ele>356</ele>
        <time>2015-04-09T18:28:17.000Z</time>
      </trkpt>
      <trkpt lat="45.18449" lon="5.68496">
        <ele>356</ele>
        <time>2015-04-09T18:28:19.000Z</time>
      </trkpt>
      <trkpt lat="45.18449" lon="5.68496">
        <ele>356</ele>
        <time>2015-04-09T18:28:21.000Z</time>
      </trkpt>
      <trkpt lat="45.18449" lon="5.68496">
        <ele>356</ele>
        <time>2015-04-09T18:28:23.000Z</time>
      </trkpt>
      <trkpt lat="45.1843" lon="5.6857">
        <ele>348</ele>
        <time>2015-04-09T18:28:27.000Z</time>
      </trkpt>
      <trkpt lat="45.18432" lon="5.68584">
        <ele>351</ele>
        <time>2015-04-09T18:28:31.000Z</time>
      </trkpt>
      <trkpt lat="45.18436" lon="5.68601">
        <ele>352</ele>
        <time>2015-04-09T18:28:35.000Z</time>
      </trkpt>
      <trkpt lat="45.18433" lon="5.68614">
        <ele>353</ele>
        <time>2015-04-09T18:28:39.000Z</time>
      </trkpt>
      <trkpt lat="45.18433" lon="5.68614">
        <ele>353</ele>
        <time>2015-04-09T18:28:41.000Z</time>
      </trkpt>
      <trkpt lat="45.18425" lon="5.68626">
        <ele>344</ele>
        <time>2015-04-09T18:28:43.000Z</time>
      </trkpt>
      <trkpt lat="45.18425" lon="5.68626">
        <ele>344</ele>
        <time>2015-04-09T18:28:45.000Z</time>
      </trkpt>
      <trkpt lat="45.18425" lon="5.68626">
        <ele>344</ele>
        <time>2015-04-09T18:28:47.000Z</time>
      </trkpt>
      <trkpt lat="45.18425" lon="5.68626">
        <ele>344</ele>
        <time>2015-04-09T18:28:49.000Z</time>
      </trkpt>
      <trkpt lat="45.18425" lon="5.68626">
        <ele>344</ele>
        <time>2015-04-09T18:28:51.000Z</time>
      </trkpt>
      <trkpt lat="45.18425" lon="5.68626">
        <ele>344</ele>
        <time>2015-04-09T18:28:53.000Z</time>
      </trkpt>
      <trkpt lat="45.18425" lon="5.68626">
        <ele>344</ele>
        <time>2015-04-09T18:28:55.000Z</time>
      </trkpt>
      <trkpt lat="45.18425" lon="5.68626">
        <ele>344</ele>
        <time>2015-04-09T18:28:57.000Z</time>
      </trkpt>
      <trkpt lat="45.18425" lon="5.68626">
        <ele>344</ele>
        <time>2015-04-09T18:28:59.000Z</time>
      </trkpt>
      <trkpt lat="45.18425" lon="5.68626">
        <ele>344</ele>
        <time>2015-04-09T18:29:01.000Z</time>
      </trkpt>
      <trkpt lat="45.18415" lon="5.68646">
        <ele>341</ele>
        <time>2015-04-09T18:29:05.000Z</time>
      </trkpt>
      <trkpt lat="45.18409" lon="5.68657">
        <ele>338</ele>
        <time>2015-04-09T18:29:07.000Z</time>
      </trkpt>
      <trkpt lat="45.18405" lon="5.68665">
        <ele>335</ele>
        <time>2015-04-09T18:29:09.000Z</time>
      </trkpt>
      <trkpt lat="45.18401" lon="5.6867">
        <ele>328</ele>
        <time>2015-04-09T18:29:11.000Z</time>
      </trkpt>
      <trkpt lat="45.18401" lon="5.6867">
        <ele>328</ele>
        <time>2015-04-09T18:29:13.000Z</time>
      </trkpt>
      <trkpt lat="45.18401" lon="5.6867">
        <ele>328</ele>
        <time>2015-04-09T18:29:15.000Z</time>
      </trkpt>
      <trkpt lat="45.18401" lon="5.6867">
        <ele>328</ele>
        <time>2015-04-09T18:29:17.000Z</time>
      </trkpt>
      <trkpt lat="45.18393" lon="5.68672">
        <ele>320</ele>
        <time>2015-04-09T18:29:19.000Z</time>
      </trkpt>
      <trkpt lat="45.18386" lon="5.68672">
        <ele>320</ele>
        <time>2015-04-09T18:29:21.000Z</time>
      </trkpt>
      <trkpt lat="45.18382" lon="5.68671">
        <ele>319</ele>
        <time>2015-04-09T18:29:23.000Z</time>
      </trkpt>
      <trkpt lat="45.18382" lon="5.68671">
        <ele>319</ele>
        <time>2015-04-09T18:29:25.000Z</time>
      </trkpt>
      <trkpt lat="45.18378" lon="5.68667">
        <ele>320</ele>
        <time>2015-04-09T18:29:27.000Z</time>
      </trkpt>
      <trkpt lat="45.18378" lon="5.68667">
        <ele>320</ele>
        <time>2015-04-09T18:29:29.000Z</time>
      </trkpt>
      <trkpt lat="45.18378" lon="5.68667">
        <ele>320</ele>
        <time>2015-04-09T18:29:31.000Z</time>
      </trkpt>
      <trkpt lat="45.18378" lon="5.68667">
        <ele>320</ele>
        <time>2015-04-09T18:29:33.000Z</time>
      </trkpt>
      <trkpt lat="45.1837" lon="5.68657">
        <ele>320</ele>
        <time>2015-04-09T18:29:37.000Z</time>
      </trkpt>
      <trkpt lat="45.18364" lon="5.68649">
        <ele>320</ele>
        <time>2015-04-09T18:29:39.000Z</time>
      </trkpt>
      <trkpt lat="45.18362" lon="5.68643">
        <ele>319</ele>
        <time>2015-04-09T18:29:41.000Z</time>
      </trkpt>
      <trkpt lat="45.18362" lon="5.68643">
        <ele>319</ele>
        <time>2015-04-09T18:29:43.000Z</time>
      </trkpt>
      <trkpt lat="45.18362" lon="5.68643">
        <ele>319</ele>
        <time>2015-04-09T18:29:45.000Z</time>
      </trkpt>
      <trkpt lat="45.18362" lon="5.68643">
        <ele>319</ele>
        <time>2015-04-09T18:29:47.000Z</time>
      </trkpt>
      <trkpt lat="45.18362" lon="5.68643">
        <ele>319</ele>
        <time>2015-04-09T18:29:49.000Z</time>
      </trkpt>
      <trkpt lat="45.18362" lon="5.68643">
        <ele>319</ele>
        <time>2015-04-09T18:29:51.000Z</time>
      </trkpt>
      <trkpt lat="45.18362" lon="5.68643">
        <ele>319</ele>
        <time>2015-04-09T18:29:53.000Z</time>
      </trkpt>
      <trkpt lat="45.18362" lon="5.68643">
        <ele>319</ele>
        <time>2015-04-09T18:29:55.000Z</time>
      </trkpt>
      <trkpt lat="45.18362" lon="5.68643">
        <ele>319</ele>
        <time>2015-04-09T18:29:57.000Z</time>
      </trkpt>
      <trkpt lat="45.18354" lon="5.68642">
        <ele>314</ele>
        <time>2015-04-09T18:30:01.000Z</time>
      </trkpt>
      <trkpt lat="45.18354" lon="5.68642">
        <ele>314</ele>
        <time>2015-04-09T18:30:15.000Z</time>
      </trkpt>
      <trkpt lat="45.18354" lon="5.68642">
        <ele>314</ele>
        <time>2015-04-09T18:30:17.000Z</time>
      </trkpt>
      <trkpt lat="45.18349" lon="5.68647">
        <ele>302</ele>
        <time>2015-04-09T18:30:19.000Z</time>
      </trkpt>
      <trkpt lat="45.18344" lon="5.68649">
        <ele>301</ele>
        <time>2015-04-09T18:30:23.000Z</time>
      </trkpt>
      <trkpt lat="45.1834" lon="5.6865">
        <ele>301</ele>
        <time>2015-04-09T18:30:27.000Z</time>
      </trkpt>
      <trkpt lat="45.1834" lon="5.6865">
        <ele>301</ele>
        <time>2015-04-09T18:30:29.000Z</time>
      </trkpt>
      <trkpt lat="45.1834" lon="5.6865">
        <ele>301</ele>
        <time>2015-04-09T18:30:31.000Z</time>
      </trkpt>
      <trkpt lat="45.1834" lon="5.6865">
        <ele>301</ele>
        <time>2015-04-09T18:30:33.000Z</time>
      </trkpt>
      <trkpt lat="45.1834" lon="5.6865">
        <ele>301</ele>
        <time>2015-04-09T18:30:35.000Z</time>
      </trkpt>
      <trkpt lat="45.1834" lon="5.6865">
        <ele>301</ele>
        <time>2015-04-09T18:30:37.000Z</time>
      </trkpt>
      <trkpt lat="45.1834" lon="5.6865">
        <ele>301</ele>
        <time>2015-04-09T18:30:39.000Z</time>
      </trkpt>
      <trkpt lat="45.1834" lon="5.6865">
        <ele>301</ele>
        <time>2015-04-09T18:30:41.000Z</time>
      </trkpt>
      <trkpt lat="45.18337" lon="5.68656">
        <ele>298</ele>
        <time>2015-04-09T18:30:45.000Z</time>
      </trkpt>
      <trkpt lat="45.18333" lon="5.68659">
        <ele>300</ele>
        <time>2015-04-09T18:30:49.000Z</time>
      </trkpt>
      <trkpt lat="45.18328" lon="5.68663">
        <ele>304</ele>
        <time>2015-04-09T18:30:53.000Z</time>
      </trkpt>
      <trkpt lat="45.18328" lon="5.68663">
        <ele>304</ele>
        <time>2015-04-09T18:30:55.000Z</time>
      </trkpt>
      <trkpt lat="45.18328" lon="5.68663">
        <ele>304</ele>
        <time>2015-04-09T18:30:57.000Z</time>
      </trkpt>
      <trkpt lat="45.18328" lon="5.68663">
        <ele>304</ele>
        <time>2015-04-09T18:30:59.000Z</time>
      </trkpt>
      <trkpt lat="45.18328" lon="5.68673">
        <ele>301</ele>
        <time>2015-04-09T18:31:05.000Z</time>
      </trkpt>
      <trkpt lat="45.18328" lon="5.6868">
        <ele>299</ele>
        <time>2015-04-09T18:31:09.000Z</time>
      </trkpt>
      <trkpt lat="45.18328" lon="5.6868">
        <ele>299</ele>
        <time>2015-04-09T18:31:11.000Z</time>
      </trkpt>
      <trkpt lat="45.18328" lon="5.6868">
        <ele>299</ele>
        <time>2015-04-09T18:31:13.000Z</time>
      </trkpt>
      <trkpt lat="45.18328" lon="5.6868">
        <ele>299</ele>
        <time>2015-04-09T18:31:15.000Z</time>
      </trkpt>
      <trkpt lat="45.18328" lon="5.6868">
        <ele>299</ele>
        <time>2015-04-09T18:31:17.000Z</time>
      </trkpt>
      <trkpt lat="45.18328" lon="5.6868">
        <ele>299</ele>
        <time>2015-04-09T18:31:19.000Z</time>
      </trkpt>
      <trkpt lat="45.18328" lon="5.6868">
        <ele>299</ele>
        <time>2015-04-09T18:31:21.000Z</time>
      </trkpt>
      <trkpt lat="45.18328" lon="5.6868">
        <ele>299</ele>
        <time>2015-04-09T18:31:23.000Z</time>
      </trkpt>
      <trkpt lat="45.18338" lon="5.68701">
        <ele>284</ele>
        <time>2015-04-09T18:37:43.000Z</time>
      </trkpt>
      <trkpt lat="45.18338" lon="5.68701">
        <ele>284</ele>
        <time>2015-04-09T18:37:45.000Z</time>
      </trkpt>
      <trkpt lat="45.18338" lon="5.68701">
        <ele>284</ele>
        <time>2015-04-09T18:37:47.000Z</time>
      </trkpt>
      <trkpt lat="45.18338" lon="5.68701">
        <ele>284</ele>
        <time>2015-04-09T18:37:49.000Z</time>
      </trkpt>
      <trkpt lat="45.18338" lon="5.68712">
        <ele>289</ele>
        <time>2015-04-09T18:38:45.000Z</time>
      </trkpt>
      <trkpt lat="45.18333" lon="5.68715">
        <ele>289</ele>
        <time>2015-04-09T18:38:49.000Z</time>
      </trkpt>
      <trkpt lat="45.18328" lon="5.68715">
        <ele>284</ele>
        <time>2015-04-09T18:38:51.000Z</time>
      </trkpt>
      <trkpt lat="45.18322" lon="5.68714">
        <ele>284</ele>
        <time>2015-04-09T18:38:55.000Z</time>
      </trkpt>
      <trkpt lat="45.18316" lon="5.68712">
        <ele>283</ele>
        <time>2015-04-09T18:38:57.000Z</time>
      </trkpt>
      <trkpt lat="45.18311" lon="5.6871">
        <ele>280</ele>
        <time>2015-04-09T18:38:59.000Z</time>
      </trkpt>
      <trkpt lat="45.18305" lon="5.68708">
        <ele>280</ele>
        <time>2015-04-09T18:39:01.000Z</time>
      </trkpt>
      <trkpt lat="45.18299" lon="5.68708">
        <ele>281</ele>
        <time>2015-04-09T18:39:03.000Z</time>
      </trkpt>
      <trkpt lat="45.18288" lon="5.6871">
        <ele>283</ele>
        <time>2015-04-09T18:39:05.000Z</time>
      </trkpt>
      <trkpt lat="45.18277" lon="5.68714">
        <ele>280</ele>
        <time>2015-04-09T18:39:09.000Z</time>
      </trkpt>
      <trkpt lat="45.18277" lon="5.68714">
        <ele>280</ele>
        <time>2015-04-09T18:39:11.000Z</time>
      </trkpt>
      <trkpt lat="45.18277" lon="5.68714">
        <ele>280</ele>
        <time>2015-04-09T18:39:13.000Z</time>
      </trkpt>
      <trkpt lat="45.18277" lon="5.68714">
        <ele>280</ele>
        <time>2015-04-09T18:39:15.000Z</time>
      </trkpt>
      <trkpt lat="45.18277" lon="5.68714">
        <ele>280</ele>
        <time>2015-04-09T18:39:17.000Z</time>
      </trkpt>
      <trkpt lat="45.18277" lon="5.68714">
        <ele>280</ele>
        <time>2015-04-09T18:39:19.000Z</time>
      </trkpt>
      <trkpt lat="45.18245" lon="5.68715">
        <ele>283</ele>
        <time>2015-04-09T18:39:21.000Z</time>
      </trkpt>
      <trkpt lat="45.18237" lon="5.68724">
        <ele>286</ele>
        <time>2015-04-09T18:39:25.000Z</time>
      </trkpt>
      <trkpt lat="45.18237" lon="5.68724">
        <ele>286</ele>
        <time>2015-04-09T18:39:27.000Z</time>
      </trkpt>
      <trkpt lat="45.18237" lon="5.68724">
        <ele>286</ele>
        <time>2015-04-09T18:39:29.000Z</time>
      </trkpt>
      <trkpt lat="45.1822" lon="5.68758">
        <ele>279</ele>
        <time>2015-04-09T18:39:37.000Z</time>
      </trkpt>
      <trkpt lat="45.1822" lon="5.68758">
        <ele>279</ele>
        <time>2015-04-09T18:39:39.000Z</time>
      </trkpt>
      <trkpt lat="45.1822" lon="5.68758">
        <ele>279</ele>
        <time>2015-04-09T18:39:41.000Z</time>
      </trkpt>
      <trkpt lat="45.1822" lon="5.68758">
        <ele>279</ele>
        <time>2015-04-09T18:39:43.000Z</time>
      </trkpt>
      <trkpt lat="45.1822" lon="5.68758">
        <ele>279</ele>
        <time>2015-04-09T18:39:45.000Z</time>
      </trkpt>
      <trkpt lat="45.1822" lon="5.68758">
        <ele>279</ele>
        <time>2015-04-09T18:39:47.000Z</time>
      </trkpt>
      <trkpt lat="45.1822" lon="5.68758">
        <ele>279</ele>
        <time>2015-04-09T18:39:49.000Z</time>
      </trkpt>
      <trkpt lat="45.1822" lon="5.68758">
        <ele>279</ele>
        <time>2015-04-09T18:39:51.000Z</time>
      </trkpt>
      <trkpt lat="45.1822" lon="5.68758">
        <ele>279</ele>
        <time>2015-04-09T18:39:53.000Z</time>
      </trkpt>
      <trkpt lat="45.1822" lon="5.68758">
        <ele>279</ele>
        <time>2015-04-09T18:39:55.000Z</time>
      </trkpt>
      <trkpt lat="45.1822" lon="5.68758">
        <ele>279</ele>
        <time>2015-04-09T18:39:57.000Z</time>
      </trkpt>
      <trkpt lat="45.1822" lon="5.68758">
        <ele>279</ele>
        <time>2015-04-09T18:39:59.000Z</time>
      </trkpt>
      <trkpt lat="45.1822" lon="5.68758">
        <ele>279</ele>
        <time>2015-04-09T18:40:01.000Z</time>
      </trkpt>
      <trkpt lat="45.1822" lon="5.68758">
        <ele>279</ele>
        <time>2015-04-09T18:40:03.000Z</time>
      </trkpt>
      <trkpt lat="45.1822" lon="5.68758">
        <ele>279</ele>
        <time>2015-04-09T18:40:05.000Z</time>
      </trkpt>
      <trkpt lat="45.1822" lon="5.68758">
        <ele>279</ele>
        <time>2015-04-09T18:40:07.000Z</time>
      </trkpt>
      <trkpt lat="45.1822" lon="5.68758">
        <ele>279</ele>
        <time>2015-04-09T18:40:09.000Z</time>
      </trkpt>
      <trkpt lat="45.1822" lon="5.68758">
        <ele>279</ele>
        <time>2015-04-09T18:40:11.000Z</time>
      </trkpt>
      <trkpt lat="45.1822" lon="5.68758">
        <ele>279</ele>
        <time>2015-04-09T18:40:13.000Z</time>
      </trkpt>
      <trkpt lat="45.18209" lon="5.68791">
        <ele>266</ele>
        <time>2015-04-09T18:40:17.000Z</time>
      </trkpt>
      <trkpt lat="45.18205" lon="5.6881">
        <ele>265</ele>
        <time>2015-04-09T18:40:19.000Z</time>
      </trkpt>
      <trkpt lat="45.18203" lon="5.68821">
        <ele>265</ele>
        <time>2015-04-09T18:40:21.000Z</time>
      </trkpt>
      <trkpt lat="45.18203" lon="5.68829">
        <ele>266</ele>
        <time>2015-04-09T18:40:23.000Z</time>
      </trkpt>
      <trkpt lat="45.18203" lon="5.68838">
        <ele>267</ele>
        <time>2015-04-09T18:40:27.000Z</time>
      </trkpt>
      <trkpt lat="45.18203" lon="5.68846">
        <ele>269</ele>
        <time>2015-04-09T18:40:31.000Z</time>
      </trkpt>
      <trkpt lat="45.18204" lon="5.68854">
        <ele>269</ele>
        <time>2015-04-09T18:40:35.000Z</time>
      </trkpt>
      <trkpt lat="45.18206" lon="5.68863">
        <ele>269</ele>
        <time>2015-04-09T18:40:39.000Z</time>
      </trkpt>
      <trkpt lat="45.18208" lon="5.6887">
        <ele>269</ele>
        <time>2015-04-09T18:40:43.000Z</time>
      </trkpt>
      <trkpt lat="45.18211" lon="5.68879">
        <ele>270</ele>
        <time>2015-04-09T18:40:47.000Z</time>
      </trkpt>
      <trkpt lat="45.18213" lon="5.68885">
        <ele>270</ele>
        <time>2015-04-09T18:40:49.000Z</time>
      </trkpt>
      <trkpt lat="45.18212" lon="5.68892">
        <ele>272</ele>
        <time>2015-04-09T18:40:53.000Z</time>
      </trkpt>
      <trkpt lat="45.18209" lon="5.68898">
        <ele>273</ele>
        <time>2015-04-09T18:40:55.000Z</time>
      </trkpt>
      <trkpt lat="45.18206" lon="5.68903">
        <ele>271</ele>
        <time>2015-04-09T18:40:57.000Z</time>
      </trkpt>
      <trkpt lat="45.18202" lon="5.68908">
        <ele>272</ele>
        <time>2015-04-09T18:40:59.000Z</time>
      </trkpt>
      <trkpt lat="45.18197" lon="5.68911">
        <ele>271</ele>
        <time>2015-04-09T18:41:01.000Z</time>
      </trkpt>
      <trkpt lat="45.18187" lon="5.68916">
        <ele>271</ele>
        <time>2015-04-09T18:41:03.000Z</time>
      </trkpt>
      <trkpt lat="45.18177" lon="5.68919">
        <ele>273</ele>
        <time>2015-04-09T18:41:07.000Z</time>
      </trkpt>
      <trkpt lat="45.18165" lon="5.6892">
        <ele>273</ele>
        <time>2015-04-09T18:41:11.000Z</time>
      </trkpt>
      <trkpt lat="45.18152" lon="5.68922">
        <ele>275</ele>
        <time>2015-04-09T18:41:15.000Z</time>
      </trkpt>
      <trkpt lat="45.1814" lon="5.68925">
        <ele>276</ele>
        <time>2015-04-09T18:41:19.000Z</time>
      </trkpt>
      <trkpt lat="45.18129" lon="5.68927">
        <ele>277</ele>
        <time>2015-04-09T18:41:23.000Z</time>
      </trkpt>
      <trkpt lat="45.18129" lon="5.68927">
        <ele>277</ele>
        <time>2015-04-09T18:41:25.000Z</time>
      </trkpt>
      <trkpt lat="45.18129" lon="5.68927">
        <ele>277</ele>
        <time>2015-04-09T18:41:27.000Z</time>
      </trkpt>
      <trkpt lat="45.18129" lon="5.68927">
        <ele>277</ele>
        <time>2015-04-09T18:41:29.000Z</time>
      </trkpt>
      <trkpt lat="45.18129" lon="5.68927">
        <ele>277</ele>
        <time>2015-04-09T18:41:31.000Z</time>
      </trkpt>
      <trkpt lat="45.18129" lon="5.68927">
        <ele>277</ele>
        <time>2015-04-09T18:41:33.000Z</time>
      </trkpt>
      <trkpt lat="45.18129" lon="5.68927">
        <ele>277</ele>
        <time>2015-04-09T18:41:35.000Z</time>
      </trkpt>
      <trkpt lat="45.18129" lon="5.68927">
        <ele>277</ele>
        <time>2015-04-09T18:41:37.000Z</time>
      </trkpt>
      <trkpt lat="45.18129" lon="5.68927">
        <ele>277</ele>
        <time>2015-04-09T18:41:39.000Z</time>
      </trkpt>
      <trkpt lat="45.18129" lon="5.68927">
        <ele>277</ele>
        <time>2015-04-09T18:41:41.000Z</time>
      </trkpt>
      <trkpt lat="45.18129" lon="5.68927">
        <ele>277</ele>
        <time>2015-04-09T18:41:43.000Z</time>
      </trkpt>
      <trkpt lat="45.18129" lon="5.68927">
        <ele>277</ele>
        <time>2015-04-09T18:41:45.000Z</time>
      </trkpt>
      <trkpt lat="45.18129" lon="5.68927">
        <ele>277</ele>
        <time>2015-04-09T18:41:47.000Z</time>
      </trkpt>
      <trkpt lat="45.18129" lon="5.68927">
        <ele>277</ele>
        <time>2015-04-09T18:41:49.000Z</time>
      </trkpt>
      <trkpt lat="45.18077" lon="5.6898">
        <ele>271</ele>
        <time>2015-04-09T18:41:55.000Z</time>
      </trkpt>
      <trkpt lat="45.18079" lon="5.68997">
        <ele>271</ele>
        <time>2015-04-09T18:41:59.000Z</time>
      </trkpt>
      <trkpt lat="45.18082" lon="5.69013">
        <ele>270</ele>
        <time>2015-04-09T18:42:03.000Z</time>
      </trkpt>
      <trkpt lat="45.18082" lon="5.69013">
        <ele>270</ele>
        <time>2015-04-09T18:42:05.000Z</time>
      </trkpt>
      <trkpt lat="45.18084" lon="5.69026">
        <ele>270</ele>
        <time>2015-04-09T18:42:07.000Z</time>
      </trkpt>
      <trkpt lat="45.18084" lon="5.69026">
        <ele>270</ele>
        <time>2015-04-09T18:42:09.000Z</time>
      </trkpt>
      <trkpt lat="45.18084" lon="5.69026">
        <ele>270</ele>
        <time>2015-04-09T18:42:11.000Z</time>
      </trkpt>
      <trkpt lat="45.18084" lon="5.69026">
        <ele>270</ele>
        <time>2015-04-09T18:42:13.000Z</time>
      </trkpt>
      <trkpt lat="45.18084" lon="5.69026">
        <ele>270</ele>
        <time>2015-04-09T18:42:15.000Z</time>
      </trkpt>
      <trkpt lat="45.18084" lon="5.69026">
        <ele>270</ele>
        <time>2015-04-09T18:42:17.000Z</time>
      </trkpt>
      <trkpt lat="45.18084" lon="5.69026">
        <ele>270</ele>
        <time>2015-04-09T18:42:19.000Z</time>
      </trkpt>
      <trkpt lat="45.18084" lon="5.69026">
        <ele>270</ele>
        <time>2015-04-09T18:42:21.000Z</time>
      </trkpt>
      <trkpt lat="45.18084" lon="5.69026">
        <ele>270</ele>
        <time>2015-04-09T18:42:23.000Z</time>
      </trkpt>
      <trkpt lat="45.18084" lon="5.69026">
        <ele>270</ele>
        <time>2015-04-09T18:42:25.000Z</time>
      </trkpt>
      <trkpt lat="45.18084" lon="5.69026">
        <ele>270</ele>
        <time>2015-04-09T18:42:27.000Z</time>
      </trkpt>
      <trkpt lat="45.18084" lon="5.69026">
        <ele>270</ele>
        <time>2015-04-09T18:42:29.000Z</time>
      </trkpt>
      <trkpt lat="45.18084" lon="5.69026">
        <ele>270</ele>
        <time>2015-04-09T18:42:31.000Z</time>
      </trkpt>
      <trkpt lat="45.18084" lon="5.69026">
        <ele>270</ele>
        <time>2015-04-09T18:42:33.000Z</time>
      </trkpt>
      <trkpt lat="45.18084" lon="5.69026">
        <ele>270</ele>
        <time>2015-04-09T18:42:35.000Z</time>
      </trkpt>
      <trkpt lat="45.18084" lon="5.69026">
        <ele>270</ele>
        <time>2015-04-09T18:42:37.000Z</time>
      </trkpt>
      <trkpt lat="45.18084" lon="5.69026">
        <ele>270</ele>
        <time>2015-04-09T18:42:39.000Z</time>
      </trkpt>
      <trkpt lat="45.1809" lon="5.69088">
        <ele>276</ele>
        <time>2015-04-09T18:42:43.000Z</time>
      </trkpt>
      <trkpt lat="45.18093" lon="5.69123">
        <ele>277</ele>
        <time>2015-04-09T18:42:45.000Z</time>
      </trkpt>
      <trkpt lat="45.18095" lon="5.69144">
        <ele>277</ele>
        <time>2015-04-09T18:42:47.000Z</time>
      </trkpt>
      <trkpt lat="45.18098" lon="5.69158">
        <ele>277</ele>
        <time>2015-04-09T18:42:49.000Z</time>
      </trkpt>
      <trkpt lat="45.181" lon="5.69169">
        <ele>276</ele>
        <time>2015-04-09T18:42:51.000Z</time>
      </trkpt>
      <trkpt lat="45.18104" lon="5.69189">
        <ele>277</ele>
        <time>2015-04-09T18:42:53.000Z</time>
      </trkpt>
      <trkpt lat="45.18107" lon="5.69205">
        <ele>276</ele>
        <time>2015-04-09T18:42:57.000Z</time>
      </trkpt>
      <trkpt lat="45.18109" lon="5.6922">
        <ele>279</ele>
        <time>2015-04-09T18:43:01.000Z</time>
      </trkpt>
      <trkpt lat="45.18109" lon="5.6922">
        <ele>279</ele>
        <time>2015-04-09T18:43:03.000Z</time>
      </trkpt>
      <trkpt lat="45.18109" lon="5.6922">
        <ele>279</ele>
        <time>2015-04-09T18:43:05.000Z</time>
      </trkpt>
      <trkpt lat="45.18109" lon="5.6922">
        <ele>279</ele>
        <time>2015-04-09T18:43:07.000Z</time>
      </trkpt>
      <trkpt lat="45.18109" lon="5.6922">
        <ele>279</ele>
        <time>2015-04-09T18:43:09.000Z</time>
      </trkpt>
      <trkpt lat="45.18109" lon="5.6922">
        <ele>279</ele>
        <time>2015-04-09T18:43:11.000Z</time>
      </trkpt>
      <trkpt lat="45.18109" lon="5.6922">
        <ele>279</ele>
        <time>2015-04-09T18:43:13.000Z</time>
      </trkpt>
      <trkpt lat="45.18109" lon="5.6922">
        <ele>279</ele>
        <time>2015-04-09T18:43:15.000Z</time>
      </trkpt>
      <trkpt lat="45.18109" lon="5.6922">
        <ele>279</ele>
        <time>2015-04-09T18:43:17.000Z</time>
      </trkpt>
      <trkpt lat="45.18109" lon="5.6922">
        <ele>279</ele>
        <time>2015-04-09T18:43:19.000Z</time>
      </trkpt>
      <trkpt lat="45.18109" lon="5.6922">
        <ele>279</ele>
        <time>2015-04-09T18:43:21.000Z</time>
      </trkpt>
      <trkpt lat="45.18109" lon="5.6922">
        <ele>279</ele>
        <time>2015-04-09T18:43:23.000Z</time>
      </trkpt>
      <trkpt lat="45.18109" lon="5.6922">
        <ele>279</ele>
        <time>2015-04-09T18:43:25.000Z</time>
      </trkpt>
      <trkpt lat="45.18109" lon="5.6922">
        <ele>279</ele>
        <time>2015-04-09T18:43:27.000Z</time>
      </trkpt>
      <trkpt lat="45.18109" lon="5.6922">
        <ele>279</ele>
        <time>2015-04-09T18:43:29.000Z</time>
      </trkpt>
      <trkpt lat="45.18109" lon="5.6922">
        <ele>279</ele>
        <time>2015-04-09T18:43:31.000Z</time>
      </trkpt>
      <trkpt lat="45.18109" lon="5.6922">
        <ele>279</ele>
        <time>2015-04-09T18:43:33.000Z</time>
      </trkpt>
      <trkpt lat="45.18109" lon="5.6922">
        <ele>279</ele>
        <time>2015-04-09T18:43:35.000Z</time>
      </trkpt>
      <trkpt lat="45.18109" lon="5.6922">
        <ele>279</ele>
        <time>2015-04-09T18:43:37.000Z</time>
      </trkpt>
      <trkpt lat="45.18109" lon="5.6922">
        <ele>279</ele>
        <time>2015-04-09T18:43:41.000Z</time>
      </trkpt>
      <trkpt lat="45.18109" lon="5.6922">
        <ele>279</ele>
        <time>2015-04-09T18:43:43.000Z</time>
      </trkpt>
      <trkpt lat="45.18111" lon="5.69406">
        <ele>279</ele>
        <time>2015-04-09T18:43:53.000Z</time>
      </trkpt>
      <trkpt lat="45.18111" lon="5.69423">
        <ele>274</ele>
        <time>2015-04-09T18:43:57.000Z</time>
      </trkpt>
      <trkpt lat="45.1811" lon="5.69438">
        <ele>277</ele>
        <time>2015-04-09T18:44:01.000Z</time>
      </trkpt>
      <trkpt lat="45.18109" lon="5.69446">
        <ele>276</ele>
        <time>2015-04-09T18:44:05.000Z</time>
      </trkpt>
      <trkpt lat="45.18107" lon="5.69453">
        <ele>276</ele>
        <time>2015-04-09T18:44:07.000Z</time>
      </trkpt>
      <trkpt lat="45.18106" lon="5.69461">
        <ele>276</ele>
        <time>2015-04-09T18:44:09.000Z</time>
      </trkpt>
      <trkpt lat="45.18105" lon="5.69468">
        <ele>278</ele>
        <time>2015-04-09T18:44:11.000Z</time>
      </trkpt>
      <trkpt lat="45.18104" lon="5.69475">
        <ele>277</ele>
        <time>2015-04-09T18:44:13.000Z</time>
      </trkpt>
      <trkpt lat="45.18102" lon="5.69491">
        <ele>275</ele>
        <time>2015-04-09T18:44:15.000Z</time>
      </trkpt>
      <trkpt lat="45.18102" lon="5.69506">
        <ele>278</ele>
        <time>2015-04-09T18:44:19.000Z</time>
      </trkpt>
      <trkpt lat="45.181" lon="5.6952">
        <ele>278</ele>
        <time>2015-04-09T18:44:23.000Z</time>
      </trkpt>
      <trkpt lat="45.18094" lon="5.69532">
        <ele>283</ele>
        <time>2015-04-09T18:44:27.000Z</time>
      </trkpt>
      <trkpt lat="45.1809" lon="5.69545">
        <ele>284</ele>
        <time>2015-04-09T18:44:31.000Z</time>
      </trkpt>
      <trkpt lat="45.18088" lon="5.6956">
        <ele>280</ele>
        <time>2015-04-09T18:44:35.000Z</time>
      </trkpt>
      <trkpt lat="45.18089" lon="5.69575">
        <ele>281</ele>
        <time>2015-04-09T18:44:39.000Z</time>
      </trkpt>
      <trkpt lat="45.1809" lon="5.69589">
        <ele>285</ele>
        <time>2015-04-09T18:44:43.000Z</time>
      </trkpt>
      <trkpt lat="45.1809" lon="5.69603">
        <ele>287</ele>
        <time>2015-04-09T18:44:47.000Z</time>
      </trkpt>
      <trkpt lat="45.18095" lon="5.69617">
        <ele>289</ele>
        <time>2015-04-09T18:44:51.000Z</time>
      </trkpt>
      <trkpt lat="45.18089" lon="5.69627">
        <ele>286</ele>
        <time>2015-04-09T18:44:55.000Z</time>
      </trkpt>
      <trkpt lat="45.18086" lon="5.6964">
        <ele>283</ele>
        <time>2015-04-09T18:44:59.000Z</time>
      </trkpt>
      <trkpt lat="45.18086" lon="5.6964">
        <ele>283</ele>
        <time>2015-04-09T18:45:03.000Z</time>
      </trkpt>
      <trkpt lat="45.18086" lon="5.6964">
        <ele>283</ele>
        <time>2015-04-09T18:45:05.000Z</time>
      </trkpt>
      <trkpt lat="45.18086" lon="5.6964">
        <ele>283</ele>
        <time>2015-04-09T18:45:07.000Z</time>
      </trkpt>
      <trkpt lat="45.18086" lon="5.6964">
        <ele>283</ele>
        <time>2015-04-09T18:45:09.000Z</time>
      </trkpt>
      <trkpt lat="45.18086" lon="5.6964">
        <ele>283</ele>
        <time>2015-04-09T18:45:11.000Z</time>
      </trkpt>
      <trkpt lat="45.18086" lon="5.6964">
        <ele>283</ele>
        <time>2015-04-09T18:45:13.000Z</time>
      </trkpt>
      <trkpt lat="45.18086" lon="5.6964">
        <ele>283</ele>
        <time>2015-04-09T18:45:15.000Z</time>
      </trkpt>
      <trkpt lat="45.18086" lon="5.6964">
        <ele>283</ele>
        <time>2015-04-09T18:45:17.000Z</time>
      </trkpt>
      <trkpt lat="45.18086" lon="5.6964">
        <ele>283</ele>
        <time>2015-04-09T18:45:19.000Z</time>
      </trkpt>
      <trkpt lat="45.18086" lon="5.6964">
        <ele>283</ele>
        <time>2015-04-09T18:45:21.000Z</time>
      </trkpt>
      <trkpt lat="45.18086" lon="5.6964">
        <ele>283</ele>
        <time>2015-04-09T18:45:23.000Z</time>
      </trkpt>
      <trkpt lat="45.18086" lon="5.6964">
        <ele>283</ele>
        <time>2015-04-09T18:45:25.000Z</time>
      </trkpt>
      <trkpt lat="45.18086" lon="5.6964">
        <ele>283</ele>
        <time>2015-04-09T18:45:27.000Z</time>
      </trkpt>
      <trkpt lat="45.18086" lon="5.6964">
        <ele>283</ele>
        <time>2015-04-09T18:45:29.000Z</time>
      </trkpt>
      <trkpt lat="45.18086" lon="5.6964">
        <ele>283</ele>
        <time>2015-04-09T18:45:31.000Z</time>
      </trkpt>
      <trkpt lat="45.18086" lon="5.6964">
        <ele>283</ele>
        <time>2015-04-09T18:45:33.000Z</time>
      </trkpt>
      <trkpt lat="45.18086" lon="5.6964">
        <ele>283</ele>
        <time>2015-04-09T18:45:35.000Z</time>
      </trkpt>
      <trkpt lat="45.18086" lon="5.6964">
        <ele>283</ele>
        <time>2015-04-09T18:45:37.000Z</time>
      </trkpt>
      <trkpt lat="45.18086" lon="5.6964">
        <ele>283</ele>
        <time>2015-04-09T18:45:39.000Z</time>
      </trkpt>
      <trkpt lat="45.18086" lon="5.6964">
        <ele>283</ele>
        <time>2015-04-09T18:45:41.000Z</time>
      </trkpt>
      <trkpt lat="45.18086" lon="5.6964">
        <ele>283</ele>
        <time>2015-04-09T18:45:43.000Z</time>
      </trkpt>
      <trkpt lat="45.18086" lon="5.6964">
        <ele>283</ele>
        <time>2015-04-09T18:45:45.000Z</time>
      </trkpt>
      <trkpt lat="45.18057" lon="5.69733">
        <ele>283</ele>
        <time>2015-04-09T18:45:55.000Z</time>
      </trkpt>
      <trkpt lat="45.18041" lon="5.69782">
        <ele>287</ele>
        <time>2015-04-09T18:45:57.000Z</time>
      </trkpt>
      <trkpt lat="45.18032" lon="5.6981">
        <ele>290</ele>
        <time>2015-04-09T18:45:59.000Z</time>
      </trkpt>
      <trkpt lat="45.18026" lon="5.69826">
        <ele>293</ele>
        <time>2015-04-09T18:46:01.000Z</time>
      </trkpt>
      <trkpt lat="45.18022" lon="5.69837">
        <ele>299</ele>
        <time>2015-04-09T18:46:03.000Z</time>
      </trkpt>
      <trkpt lat="45.18014" lon="5.69854">
        <ele>301</ele>
        <time>2015-04-09T18:46:05.000Z</time>
      </trkpt>
      <trkpt lat="45.18013" lon="5.69867">
        <ele>296</ele>
        <time>2015-04-09T18:46:09.000Z</time>
      </trkpt>
      <trkpt lat="45.18013" lon="5.69881">
        <ele>296</ele>
        <time>2015-04-09T18:46:13.000Z</time>
      </trkpt>
      <trkpt lat="45.1801" lon="5.69893">
        <ele>300</ele>
        <time>2015-04-09T18:46:17.000Z</time>
      </trkpt>
      <trkpt lat="45.18007" lon="5.69905">
        <ele>310</ele>
        <time>2015-04-09T18:46:21.000Z</time>
      </trkpt>
      <trkpt lat="45.18008" lon="5.69919">
        <ele>305</ele>
        <time>2015-04-09T18:46:25.000Z</time>
      </trkpt>
      <trkpt lat="45.1801" lon="5.69933">
        <ele>301</ele>
        <time>2015-04-09T18:46:29.000Z</time>
      </trkpt>
      <trkpt lat="45.18009" lon="5.69951">
        <ele>305</ele>
        <time>2015-04-09T18:46:35.000Z</time>
      </trkpt>
      <trkpt lat="45.18012" lon="5.69968">
        <ele>299</ele>
        <time>2015-04-09T18:46:41.000Z</time>
      </trkpt>
      <trkpt lat="45.18015" lon="5.69985">
        <ele>296</ele>
        <time>2015-04-09T18:46:47.000Z</time>
      </trkpt>
      <trkpt lat="45.18015" lon="5.70005">
        <ele>291</ele>
        <time>2015-04-09T18:46:53.000Z</time>
      </trkpt>
      <trkpt lat="45.18016" lon="5.70018">
        <ele>288</ele>
        <time>2015-04-09T18:46:57.000Z</time>
      </trkpt>
      <trkpt lat="45.18016" lon="5.70032">
        <ele>288</ele>
        <time>2015-04-09T18:47:01.000Z</time>
      </trkpt>
      <trkpt lat="45.18017" lon="5.70047">
        <ele>290</ele>
        <time>2015-04-09T18:47:05.000Z</time>
      </trkpt>
      <trkpt lat="45.18017" lon="5.70061">
        <ele>292</ele>
        <time>2015-04-09T18:47:09.000Z</time>
      </trkpt>
      <trkpt lat="45.18017" lon="5.70074">
        <ele>291</ele>
        <time>2015-04-09T18:47:13.000Z</time>
      </trkpt>
      <trkpt lat="45.18017" lon="5.70089">
        <ele>293</ele>
        <time>2015-04-09T18:47:17.000Z</time>
      </trkpt>
      <trkpt lat="45.18016" lon="5.70104">
        <ele>291</ele>
        <time>2015-04-09T18:47:21.000Z</time>
      </trkpt>
      <trkpt lat="45.18016" lon="5.7012">
        <ele>289</ele>
        <time>2015-04-09T18:47:25.000Z</time>
      </trkpt>
      <trkpt lat="45.18016" lon="5.70135">
        <ele>291</ele>
        <time>2015-04-09T18:47:29.000Z</time>
      </trkpt>
      <trkpt lat="45.18017" lon="5.7015">
        <ele>292</ele>
        <time>2015-04-09T18:47:33.000Z</time>
      </trkpt>
      <trkpt lat="45.18016" lon="5.70164">
        <ele>295</ele>
        <time>2015-04-09T18:47:37.000Z</time>
      </trkpt>
      <trkpt lat="45.18014" lon="5.70179">
        <ele>292</ele>
        <time>2015-04-09T18:47:41.000Z</time>
      </trkpt>
      <trkpt lat="45.18014" lon="5.70179">
        <ele>292</ele>
        <time>2015-04-09T18:47:43.000Z</time>
      </trkpt>
      <trkpt lat="45.18014" lon="5.70179">
        <ele>292</ele>
        <time>2015-04-09T18:47:45.000Z</time>
      </trkpt>
      <trkpt lat="45.18014" lon="5.70179">
        <ele>292</ele>
        <time>2015-04-09T18:47:47.000Z</time>
      </trkpt>
      <trkpt lat="45.18014" lon="5.70179">
        <ele>292</ele>
        <time>2015-04-09T18:47:49.000Z</time>
      </trkpt>
      <trkpt lat="45.18014" lon="5.70179">
        <ele>292</ele>
        <time>2015-04-09T18:47:51.000Z</time>
      </trkpt>
      <trkpt lat="45.18014" lon="5.70187">
        <ele>289</ele>
        <time>2015-04-09T18:47:57.000Z</time>
      </trkpt>
      <trkpt lat="45.18014" lon="5.70196">
        <ele>289</ele>
        <time>2015-04-09T18:47:59.000Z</time>
      </trkpt>
      <trkpt lat="45.18013" lon="5.70204">
        <ele>289</ele>
        <time>2015-04-09T18:48:01.000Z</time>
      </trkpt>
      <trkpt lat="45.18014" lon="5.70212">
        <ele>288</ele>
        <time>2015-04-09T18:48:03.000Z</time>
      </trkpt>
      <trkpt lat="45.18014" lon="5.70219">
        <ele>287</ele>
        <time>2015-04-09T18:48:05.000Z</time>
      </trkpt>
      <trkpt lat="45.18015" lon="5.70235">
        <ele>287</ele>
        <time>2015-04-09T18:48:07.000Z</time>
      </trkpt>
      <trkpt lat="45.18015" lon="5.70249">
        <ele>288</ele>
        <time>2015-04-09T18:48:11.000Z</time>
      </trkpt>
      <trkpt lat="45.18014" lon="5.70264">
        <ele>288</ele>
        <time>2015-04-09T18:48:15.000Z</time>
      </trkpt>
      <trkpt lat="45.18013" lon="5.70278">
        <ele>288</ele>
        <time>2015-04-09T18:48:19.000Z</time>
      </trkpt>
      <trkpt lat="45.18014" lon="5.70293">
        <ele>288</ele>
        <time>2015-04-09T18:48:23.000Z</time>
      </trkpt>
      <trkpt lat="45.18014" lon="5.70309">
        <ele>287</ele>
        <time>2015-04-09T18:48:27.000Z</time>
      </trkpt>
      <trkpt lat="45.18013" lon="5.70325">
        <ele>288</ele>
        <time>2015-04-09T18:48:31.000Z</time>
      </trkpt>
      <trkpt lat="45.18014" lon="5.70342">
        <ele>287</ele>
        <time>2015-04-09T18:48:35.000Z</time>
      </trkpt>
      <trkpt lat="45.18012" lon="5.70358">
        <ele>287</ele>
        <time>2015-04-09T18:48:39.000Z</time>
      </trkpt>
      <trkpt lat="45.18011" lon="5.70373">
        <ele>288</ele>
        <time>2015-04-09T18:48:43.000Z</time>
      </trkpt>
      <trkpt lat="45.18011" lon="5.70373">
        <ele>288</ele>
        <time>2015-04-09T18:48:47.000Z</time>
      </trkpt>
      <trkpt lat="45.18011" lon="5.70373">
        <ele>288</ele>
        <time>2015-04-09T18:48:49.000Z</time>
      </trkpt>
      <trkpt lat="45.18011" lon="5.70373">
        <ele>288</ele>
        <time>2015-04-09T18:48:51.000Z</time>
      </trkpt>
      <trkpt lat="45.18011" lon="5.70373">
        <ele>288</ele>
        <time>2015-04-09T18:48:53.000Z</time>
      </trkpt>
      <trkpt lat="45.18011" lon="5.70373">
        <ele>288</ele>
        <time>2015-04-09T18:48:55.000Z</time>
      </trkpt>
      <trkpt lat="45.18011" lon="5.70373">
        <ele>288</ele>
        <time>2015-04-09T18:48:57.000Z</time>
      </trkpt>
      <trkpt lat="45.18009" lon="5.70443">
        <ele>291</ele>
        <time>2015-04-09T18:49:01.000Z</time>
      </trkpt>
      <trkpt lat="45.18011" lon="5.70461">
        <ele>291</ele>
        <time>2015-04-09T18:49:05.000Z</time>
      </trkpt>
      <trkpt lat="45.18015" lon="5.70479">
        <ele>287</ele>
        <time>2015-04-09T18:49:09.000Z</time>
      </trkpt>
      <trkpt lat="45.18017" lon="5.70496">
        <ele>283</ele>
        <time>2015-04-09T18:49:13.000Z</time>
      </trkpt>
      <trkpt lat="45.1802" lon="5.70511">
        <ele>282</ele>
        <time>2015-04-09T18:49:17.000Z</time>
      </trkpt>
      <trkpt lat="45.18024" lon="5.70525">
        <ele>285</ele>
        <time>2015-04-09T18:49:21.000Z</time>
      </trkpt>
      <trkpt lat="45.18024" lon="5.70541">
        <ele>286</ele>
        <time>2015-04-09T18:49:25.000Z</time>
      </trkpt>
      <trkpt lat="45.18024" lon="5.70541">
        <ele>286</ele>
        <time>2015-04-09T18:49:29.000Z</time>
      </trkpt>
      <trkpt lat="45.18024" lon="5.70541">
        <ele>286</ele>
        <time>2015-04-09T18:49:31.000Z</time>
      </trkpt>
      <trkpt lat="45.18024" lon="5.70541">
        <ele>286</ele>
        <time>2015-04-09T18:49:33.000Z</time>
      </trkpt>
      <trkpt lat="45.18024" lon="5.70541">
        <ele>286</ele>
        <time>2015-04-09T18:49:35.000Z</time>
      </trkpt>
      <trkpt lat="45.18024" lon="5.70541">
        <ele>286</ele>
        <time>2015-04-09T18:49:37.000Z</time>
      </trkpt>
      <trkpt lat="45.18024" lon="5.70541">
        <ele>286</ele>
        <time>2015-04-09T18:49:39.000Z</time>
      </trkpt>
      <trkpt lat="45.18024" lon="5.70541">
        <ele>286</ele>
        <time>2015-04-09T18:49:41.000Z</time>
      </trkpt>
      <trkpt lat="45.18024" lon="5.70541">
        <ele>286</ele>
        <time>2015-04-09T18:49:43.000Z</time>
      </trkpt>
      <trkpt lat="45.18024" lon="5.70541">
        <ele>286</ele>
        <time>2015-04-09T18:49:45.000Z</time>
      </trkpt>
      <trkpt lat="45.18024" lon="5.70541">
        <ele>286</ele>
        <time>2015-04-09T18:49:47.000Z</time>
      </trkpt>
      <trkpt lat="45.18024" lon="5.70541">
        <ele>286</ele>
        <time>2015-04-09T18:49:49.000Z</time>
      </trkpt>
      <trkpt lat="45.18024" lon="5.70541">
        <ele>286</ele>
        <time>2015-04-09T18:49:51.000Z</time>
      </trkpt>
      <trkpt lat="45.18024" lon="5.70541">
        <ele>286</ele>
        <time>2015-04-09T18:49:53.000Z</time>
      </trkpt>
      <trkpt lat="45.18024" lon="5.70541">
        <ele>286</ele>
        <time>2015-04-09T18:49:55.000Z</time>
      </trkpt>
      <trkpt lat="45.18024" lon="5.70541">
        <ele>286</ele>
        <time>2015-04-09T18:49:57.000Z</time>
      </trkpt>
      <trkpt lat="45.18024" lon="5.70541">
        <ele>286</ele>
        <time>2015-04-09T18:49:59.000Z</time>
      </trkpt>
      <trkpt lat="45.18024" lon="5.70541">
        <ele>286</ele>
        <time>2015-04-09T18:50:01.000Z</time>
      </trkpt>
      <trkpt lat="45.18024" lon="5.70541">
        <ele>286</ele>
        <time>2015-04-09T18:50:03.000Z</time>
      </trkpt>
      <trkpt lat="45.18024" lon="5.70541">
        <ele>286</ele>
        <time>2015-04-09T18:50:05.000Z</time>
      </trkpt>
      <trkpt lat="45.18024" lon="5.70541">
        <ele>286</ele>
        <time>2015-04-09T18:50:07.000Z</time>
      </trkpt>
      <trkpt lat="45.18024" lon="5.70541">
        <ele>286</ele>
        <time>2015-04-09T18:50:09.000Z</time>
      </trkpt>
      <trkpt lat="45.18024" lon="5.70541">
        <ele>286</ele>
        <time>2015-04-09T18:50:11.000Z</time>
      </trkpt>
      <trkpt lat="45.18024" lon="5.70541">
        <ele>286</ele>
        <time>2015-04-09T18:50:13.000Z</time>
      </trkpt>
      <trkpt lat="45.18024" lon="5.70541">
        <ele>286</ele>
        <time>2015-04-09T18:50:15.000Z</time>
      </trkpt>
      <trkpt lat="45.18024" lon="5.70541">
        <ele>286</ele>
        <time>2015-04-09T18:50:17.000Z</time>
      </trkpt>
      <trkpt lat="45.18024" lon="5.70541">
        <ele>286</ele>
        <time>2015-04-09T18:50:19.000Z</time>
      </trkpt>
      <trkpt lat="45.18024" lon="5.70541">
        <ele>286</ele>
        <time>2015-04-09T18:50:38.000Z</time>
      </trkpt>
    </trkseg>
  </trk>
</gpx>